[[{"header":{"parameterUnit":"m.s-1","parameterCategory":1,"la1":31.0,"la2":29.5877,"lo1":-88.7671,"lo2":-86.6584,"dy":0.0162,"dx":0.0185,"nx":115,"ny":88,"refTime":"2024-03-28T06:00:00:Z","depth":0,"parameterNumber":2,"parameterNumberName":"U-component_of_WINDS"},"data":[0.0,0.0,0.0,0.0,0.0,0.0,0.0,0.0,0.0,0.0,0.0,0.0,0.0,0.0,0.0,0.0,0.0,0.0,0.0,0.0,0.0,0.0,0.0,0.0,0.0,0.0,0.0,0.0,0.0,0.0,0.0,0.0,0.0,0.0,0.0,0.0,0.0,0.0,0.0,0.0,0.0,0.0,0.0,0.0,0.0,0.0,0.0,0.0,0.0,0.0,0.0,0.0,0.0,0.0,0.0,0.0,0.0,0.0,0.0,0.0,0.0,0.0,0.0,0.0,0.0,0.0,0.0,0.0,0.0,0.0,0.0,0.0,0.0,0.0,0.0,0.0,0.0,0.0,0.0,0.0,0.0,0.0,0.0,0.0,0.0,0.0,0.0,0.0,0.0,0.0,0.0,0.0,0.0,0.0,0.0,0.0,0.0,0.0,0.0,0.0,0.0,0.0,0.0,0.0,0.0,0.0,0.0,0.0,0.0,0.0,0.0,0.0,0.0,0.0,0.0,0.0,0.0,0.0,0.0,0.0,0.0,0.0,0.0,0.0,0.0,0.0,0.0,0.0,0.0,0.0,0.0,0.0,0.0,0.0,0.0,0.0,0.0,0.0,0.0,0.0,0.0,0.0,0.0,0.0,0.0,0.0,0.0,0.0,0.0,0.0,0.0,0.0,0.0,0.0,0.0,0.0,0.0,0.0,0.0,0.0,0.0,0.0,0.0,0.0,0.0,0.0,0.0,0.0,0.0,0.0,0.0,0.0,0.0,0.0,0.0,0.0,0.0,0.0,0.0,0.0,0.0,0.0,0.0,0.0,0.0,0.0,0.0,0.0,0.0,0.0,0.0,0.0,0.0,0.0,0.0,0.0,0.0,0.0,0.0,0.0,0.0,0.0,0.0,0.0,0.0,0.0,0.0,0.0,0.0,0.0,0.0,0.0,0.0,0.0,0.0,0.0,0.0,0.0,0.0,0.0,0.0,0.0,0.0,0.0,0.0,0.0,0.0,0.0,0.0,0.0,0.0,0.0,0.0,0.0,0.0,0.0,0.0,0.0,0.0,0.0,0.0,0.0,0.0,0.0,0.0,0.0,0.0,0.0,0.0,0.0,0.0,0.0,0.0,0.0,0.0,0.0,0.0,0.0,0.0,0.0,0.0,0.0,0.0,0.0,0.0,0.0,0.0,0.0,0.0,0.0,0.0,0.0,0.0,0.0,0.0,0.0,0.0,0.0,0.0,0.0,0.0,0.0,0.0,0.0,0.0,0.0,0.0,0.0,0.0,0.0,0.0,0.0,0.0,0.0,0.0,0.0,0.0,0.0,0.0,0.0,0.0,0.0,0.0,0.0,0.0,0.0,0.0,0.0,0.0,0.0,0.0,0.0,0.0,0.0,0.0,0.0,0.0,0.0,0.0,0.0,0.0,0.0,0.0,0.0,0.0,0.0,0.0,0.0,0.0,0.0,0.0,0.0,0.0,0.0,0.0,0.0,0.0,0.0,0.0,0.0,0.0,0.0,0.0,0.0,0.0,0.0,0.0,0.0,0.0,0.0,0.0,0.0,0.0,0.0,0.0,0.0,0.0,0.0,0.0,0.0,0.0,0.0,0.0,0.0,0.0,0.0,0.0,0.0,0.0,0.0,0.0,0.0,0.0,0.0,0.0,0.0,0.0,0.0,0.0,0.0,0.0,0.0,0.0,0.0,0.0,0.0,0.0,0.0,0.0,0.0,0.0,0.0,0.0,0.0,0.0,0.0,0.0,0.0,0.0,0.0,0.0,0.0,0.0,0.0,0.0,0.0,0.0,0.0,0.0,0.0,0.0,0.0,0.0,0.0,0.0,0.0,0.0,0.0,0.0,0.0,0.0,0.0,0.0,0.0,0.0,0.0,0.0,0.0,0.0,0.0,0.0,0.0,0.0,0.0,0.0,0.0,0.0,0.0,0.0,0.0,0.0,0.0,0.0,0.0,0.0,0.0,0.0,0.0,0.0,0.0,0.0,0.0,0.0,0.0,0.0,0.0,0.0,0.0,0.0,0.0,0.0,0.0,0.0,0.0,0.0,0.0,0.0,0.0,0.0,0.0,0.0,0.0,0.0,0.0,0.0,0.0,0.0,0.0,0.0,0.0,0.0,0.0,0.0,0.0,0.0,0.0,0.0,0.0,0.0,0.0,0.0,0.0,0.0,0.0,0.0,0.0,0.0,0.0,0.0,0.0,0.0,0.0,0.0,0.0,0.0,0.0,0.0,0.0,0.0,0.0,0.0,0.0,0.0,0.0,0.0,0.0,0.0,0.0,0.0,0.0,0.0,0.0,0.0,0.0,0.0,0.0,0.0,0.0,0.0,0.0,0.0,0.0,0.0,0.0,0.0,0.0,0.0,0.0,0.0,0.0,0.0,0.0,0.0,0.0,0.0,0.0,0.0,0.0,0.0,0.0,0.0,0.0,0.0,0.0,0.0,0.0,0.0,0.0,0.0,0.0,0.0,0.0,0.0,0.0,0.0,0.0,0.0,0.0,0.0,0.0,0.0,0.0,0.0,0.0,0.0,0.0,0.0,0.0,0.0,0.0,0.0,0.0,0.0,0.0,0.0,0.0,0.0,0.0,0.0,0.0,0.0,0.0,0.0,0.0,0.0,0.0,0.0,0.0,0.0,0.0,0.0,0.0,0.0,0.0,0.0,0.0,0.0,0.0,0.0,0.0,0.0,0.0,0.0,0.0,0.0,0.0,0.0,0.0,0.0,0.0,0.0,0.0,0.0,0.0,0.0,0.0,0.0,0.0,0.0,0.0,0.0,0.0,0.0,0.0,0.0,0.0,0.0,0.0,0.0,0.0,0.0,0.0,0.0,0.0,0.0,0.0,0.0,0.0,0.0,0.0,0.0,0.0,0.0,0.0,0.0,0.0,0.0,0.0,0.0,0.0,0.0,0.0,0.0,0.0,0.0,0.0,0.0,0.0,0.0,0.0,0.0,0.0,0.0,0.0,0.0,0.0,0.0,0.0,0.0,0.0,0.0,0.0,0.0,0.0,0.0,0.0,0.0,0.0,0.0,0.0,0.0,0.0,0.0,0.0,0.0,0.0,0.0,0.0,0.0,0.0,0.0,0.0,0.0,0.0,0.0,0.0,0.0,0.0,0.0,0.0,0.0,0.0,0.0,0.0,0.0,0.0,0.0,0.0,0.0,0.0,0.0,0.0,0.0,0.0,0.0,0.0,0.0,0.0,0.0,0.0,0.0,0.0,0.0,0.0,0.0,0.0,0.0,0.0,0.0,0.0,0.0,0.0,0.0,0.0,0.0,0.0,0.0,0.0,0.0,0.0,0.0,0.0,0.0,0.0,0.0,0.0,0.0,0.0,0.0,0.0,0.0,0.0,0.0,0.0,0.0,0.0,0.0,0.0,0.0,0.0,0.0,0.0,0.0,0.0,0.0,0.0,0.0,0.0,0.0,0.0,0.0,0.0,0.0,0.0,0.0,0.0,0.0,0.0,0.0,0.0,0.0,0.0,0.0,0.0,0.0,0.0,0.0,0.0,0.0,0.0,0.0,0.0,0.0,0.0,0.0,0.0,0.0,0.0,0.0,0.0,0.0,0.0,0.0,0.0,0.0,0.0,0.0,0.0,0.0,0.0,0.0,0.0,0.0,0.0,0.0,0.0,0.0,0.0,0.0,0.0,0.0,0.0,0.0,0.0,0.0,0.0,0.0,0.0,0.0,0.0,0.0,0.0,0.0,0.0,0.0,0.0,0.0,0.0,0.0,0.0,0.0,0.0,0.0,0.0,0.0,0.0,0.0,0.0,0.0,0.0,0.0,0.0,0.0,0.0,0.0,0.0,0.0,0.0,0.0,0.0,0.0,0.0,0.0,0.0,0.0,0.0,0.0,0.0,0.0,0.0,0.0,0.0,0.0,0.0,0.0,0.0,0.0,0.0,0.0,0.0,0.0,0.0,0.0,0.0,0.0,0.0,0.0,0.0,0.0,0.0,0.0,0.0,0.0,0.0,0.0,0.0,0.0,0.0,0.0,0.0,0.0,0.0,0.0,0.0,0.0,0.0,0.0,0.0,0.0,0.0,0.0,0.0,0.0,0.0,0.0,0.0,0.0,0.0,0.0,0.0,0.0,0.0,0.0,0.0,0.0,0.0,0.0,0.0,0.0,0.0,0.0,0.0,0.0,0.0,0.0,0.0,0.0,0.0,0.0,0.0,0.0,0.0,0.0,0.0,0.0,0.0,0.0,0.0,0.0,0.0,0.0,0.0,0.0,0.0,0.0,0.0,3.178,0.0,0.0,0.0,0.0,0.0,0.0,0.0,0.0,0.0,0.0,0.0,0.0,0.0,0.0,0.0,0.0,0.0,0.0,0.0,0.0,0.0,0.0,0.0,0.0,0.0,0.0,0.0,0.0,0.0,0.0,0.0,0.0,0.0,0.0,0.0,0.0,0.0,0.0,0.0,0.0,0.0,0.0,0.0,0.0,0.0,0.0,0.0,0.0,0.0,0.0,0.0,0.0,0.0,0.0,0.0,0.0,0.0,0.0,0.0,0.0,0.0,0.0,0.0,0.0,0.0,0.0,0.0,0.0,0.0,0.0,0.0,0.0,0.0,0.0,0.0,0.0,0.0,0.0,0.0,0.0,0.0,0.0,0.0,0.0,0.0,0.0,0.0,0.0,0.0,0.0,0.0,0.0,0.0,0.0,0.0,0.0,0.0,0.0,0.0,0.0,0.0,0.0,0.0,0.0,0.0,0.0,0.0,0.0,0.0,0.0,3.4699,3.4314,3.4289,3.3658,3.2436,0.0,0.0,0.0,0.0,0.0,0.0,0.0,0.0,0.0,0.0,0.0,0.0,0.0,0.0,0.0,0.0,0.0,0.0,0.0,0.0,0.0,0.0,0.0,0.0,0.0,0.0,0.0,0.0,0.0,0.0,0.0,0.0,0.0,0.0,0.0,0.0,0.0,0.0,0.0,0.0,0.0,0.0,0.0,0.0,0.0,0.0,0.0,0.0,0.0,0.0,0.0,0.0,0.0,0.0,0.0,0.0,0.0,0.0,0.0,0.0,0.0,0.0,0.0,0.0,0.0,0.0,0.0,0.0,0.0,0.0,0.0,0.0,0.0,0.0,0.0,0.0,0.0,0.0,0.0,0.0,0.0,0.0,0.0,0.0,0.0,0.0,0.0,0.0,0.0,0.0,0.0,0.0,0.0,0.0,0.0,0.0,0.0,0.0,0.0,0.0,0.0,0.0,0.0,0.0,0.0,0.0,0.0,0.0,0.0,0.0,0.0,0.0,3.4918,3.4106,3.3037,0.0,0.0,0.0,0.0,0.0,0.0,0.0,0.0,0.0,0.0,0.0,0.0,0.0,0.0,0.0,0.0,0.0,0.0,0.0,0.0,0.0,0.0,0.0,0.0,0.0,0.0,0.0,0.0,0.0,0.0,0.0,0.0,0.0,0.0,0.0,0.0,0.0,0.0,0.0,0.0,0.0,0.0,0.0,0.0,0.0,0.0,0.0,0.0,0.0,0.0,0.0,0.0,0.0,0.0,0.0,0.0,0.0,0.0,0.0,0.0,0.0,0.0,0.0,0.0,0.0,0.0,0.0,0.0,0.0,0.0,0.0,0.0,0.0,0.0,0.0,0.0,0.0,0.0,0.0,0.0,0.0,0.0,0.0,0.0,0.0,0.0,0.0,0.0,0.0,0.0,0.0,0.0,0.0,0.0,0.0,0.0,0.0,0.0,0.0,0.0,0.0,0.0,0.0,0.0,0.0,0.0,0.0,0.0,0.0,0.0,3.5507,3.5507,3.5457,0.0,3.313,0.0,0.0,0.0,0.0,0.0,0.0,0.0,0.0,0.0,0.0,0.0,0.0,0.0,0.0,0.0,0.0,0.0,0.0,0.0,0.0,0.0,0.0,0.0,0.0,0.0,0.0,0.0,0.0,0.0,0.0,0.0,0.0,0.0,0.0,0.0,0.0,0.0,0.0,0.0,0.0,0.0,0.0,0.0,0.0,0.0,0.0,0.0,0.0,0.0,0.0,0.0,0.0,0.0,0.0,0.0,0.0,0.0,0.0,0.0,0.0,0.0,0.0,0.0,0.0,0.0,0.0,0.0,0.0,0.0,0.0,0.0,0.0,0.0,0.0,0.0,0.0,0.0,0.0,0.0,0.0,0.0,0.0,0.0,0.0,0.0,0.0,0.0,0.0,0.0,0.0,0.0,0.0,0.0,0.0,0.0,0.0,0.0,0.0,0.0,0.0,0.0,0.0,0.0,0.0,0.0,0.0,0.0,0.0,0.0,0.0,3.5468,3.5495,3.5071,3.4268,0.0,0.0,0.0,0.0,0.0,0.0,0.0,0.0,0.0,0.0,0.0,0.0,0.0,0.0,0.0,0.0,0.0,0.0,0.0,0.0,0.0,0.0,0.0,0.0,0.0,0.0,0.0,0.0,0.0,0.0,0.0,0.0,0.0,0.0,0.0,0.0,0.0,0.0,0.0,0.0,0.0,0.0,0.0,0.0,0.0,0.0,0.0,0.0,0.0,0.0,0.0,0.0,0.0,0.0,0.0,0.0,0.0,0.0,0.0,0.0,0.0,0.0,0.0,0.0,0.0,0.0,0.0,0.0,0.0,0.0,0.0,0.0,0.0,0.0,0.0,0.0,0.0,0.0,0.0,0.0,0.0,0.0,0.0,0.0,0.0,0.0,0.0,0.0,0.0,0.0,0.0,0.0,0.0,0.0,0.0,0.0,0.0,0.0,0.0,0.0,0.0,0.0,0.0,0.0,0.0,0.0,0.0,0.0,0.0,0.0,3.5507,3.5534,3.5496,3.4747,3.3903,3.3112,0.0,0.0,0.0,0.0,0.0,0.0,0.0,0.0,0.0,0.0,0.0,0.0,0.0,0.0,0.0,0.0,0.0,0.0,0.0,0.0,0.0,0.0,0.0,0.0,0.0,0.0,0.0,0.0,0.0,0.0,0.0,0.0,0.0,0.0,0.0,0.0,0.0,0.0,0.0,0.0,0.0,0.0,0.0,0.0,0.0,0.0,0.0,0.0,0.0,0.0,0.0,0.0,0.0,0.0,0.0,0.0,0.0,0.0,0.0,0.0,0.0,0.0,0.0,0.0,0.0,0.0,0.0,0.0,0.0,0.0,0.0,0.0,0.0,0.0,0.0,0.0,0.0,0.0,0.0,0.0,0.0,0.0,0.0,0.0,0.0,0.0,0.0,0.0,0.0,0.0,0.0,0.0,0.0,0.0,0.0,0.0,0.0,0.0,0.0,0.0,0.0,0.0,0.0,0.0,0.0,0.0,0.0,0.0,3.543,3.5507,3.5534,3.5572,3.4759,3.3953,0.0,0.0,0.0,0.0,0.0,0.0,0.0,0.0,0.0,0.0,0.0,0.0,0.0,0.0,0.0,0.0,0.0,0.0,0.0,0.0,0.0,0.0,0.0,0.0,0.0,0.0,0.0,0.0,0.0,0.0,0.0,0.0,0.0,0.0,0.0,0.0,0.0,0.0,0.0,0.0,0.0,0.0,0.0,0.0,0.0,0.0,0.0,0.0,0.0,0.0,0.0,0.0,0.0,0.0,0.0,0.0,0.0,0.0,0.0,0.0,0.0,0.0,0.0,0.0,0.0,0.0,0.0,0.0,0.0,0.0,0.0,0.0,0.0,0.0,0.0,0.0,0.0,0.0,0.0,0.0,0.0,0.0,0.0,0.0,0.0,0.0,0.0,0.0,0.0,0.0,0.0,0.0,0.0,0.0,0.0,0.0,0.0,0.0,0.0,0.0,0.0,0.0,0.0,0.0,0.0,0.0,0.0,0.0,0.0,3.5391,3.5507,3.5534,3.5572,3.5299,3.4754,0.0,0.0,0.0,0.0,0.0,0.0,0.0,0.0,0.0,0.0,0.0,0.0,0.0,0.0,0.0,0.0,0.0,0.0,0.0,0.0,0.0,0.0,0.0,0.0,0.0,0.0,0.0,0.0,0.0,0.0,0.0,0.0,0.0,0.0,0.0,0.0,0.0,0.0,0.0,0.0,0.0,0.0,0.0,0.0,0.0,0.0,0.0,0.0,0.0,0.0,0.0,0.0,0.0,0.0,0.0,0.0,0.0,0.0,0.0,0.0,0.0,0.0,0.0,0.0,0.0,0.0,0.0,0.0,0.0,0.0,0.0,0.0,0.0,0.0,0.0,0.0,0.0,0.0,0.0,0.0,0.0,0.0,0.0,0.0,0.0,0.0,0.0,0.0,0.0,0.0,0.0,0.0,0.0,0.0,0.0,0.0,0.0,0.0,0.0,0.0,0.0,0.0,0.0,0.0,0.0,0.0,0.0,0.0,0.0,3.5815,0.0,3.6342,3.637,3.6137,3.5631,0.0,0.0,0.0,0.0,0.0,0.0,0.0,0.0,0.0,0.0,0.0,0.0,0.0,0.0,0.0,0.0,0.0,0.0,0.0,0.0,0.0,0.0,0.0,0.0,0.0,0.0,0.0,0.0,0.0,0.0,0.0,0.0,0.0,0.0,0.0,0.0,0.0,0.0,0.0,0.0,0.0,0.0,0.0,0.0,0.0,0.0,0.0,0.0,0.0,0.0,0.0,0.0,0.0,0.0,0.0,0.0,0.0,0.0,0.0,0.0,0.0,0.0,0.0,0.0,0.0,0.0,0.0,0.0,0.0,0.0,0.0,0.0,0.0,0.0,0.0,0.0,0.0,0.0,0.0,0.0,0.0,0.0,0.0,0.0,0.0,0.0,0.0,0.0,0.0,0.0,0.0,0.0,0.0,0.0,0.0,0.0,0.0,0.0,0.0,0.0,0.0,0.0,0.0,0.0,0.0,0.0,0.0,0.0,3.5122,3.6699,3.7546,3.7945,3.7973,3.7321,3.652,0.0,0.0,0.0,0.0,0.0,0.0,0.0,0.0,0.0,0.0,0.0,0.0,0.0,0.0,0.0,0.0,0.0,0.0,0.0,0.0,0.0,0.0,0.0,0.0,0.0,0.0,0.0,0.0,0.0,0.0,0.0,0.0,0.0,0.0,0.0,0.0,0.0,0.0,0.0,0.0,0.0,0.0,0.0,0.0,0.0,0.0,0.0,0.0,0.0,0.0,0.0,0.0,0.0,0.0,0.0,0.0,0.0,0.0,0.0,0.0,0.0,0.0,0.0,0.0,0.0,0.0,0.0,0.0,0.0,0.0,0.0,0.0,0.0,0.0,0.0,0.0,0.0,0.0,0.0,0.0,0.0,0.0,0.0,0.0,0.0,0.0,0.0,0.0,0.0,0.0,0.0,0.0,0.0,0.0,0.0,0.0,0.0,0.0,0.0,0.0,0.0,0.0,0.0,0.0,0.0,0.0,0.0,0.0,0.0,3.8424,3.8635,3.8767,3.8815,3.8642,3.7926,0.0,0.0,0.0,0.0,0.0,0.0,0.0,0.0,0.0,0.0,0.0,0.0,0.0,0.0,0.0,0.0,0.0,0.0,0.0,0.0,0.0,0.0,0.0,0.0,0.0,0.0,0.0,0.0,0.0,0.0,0.0,0.0,0.0,0.0,0.0,0.0,0.0,0.0,0.0,0.0,0.0,0.0,0.0,0.0,0.0,0.0,0.0,0.0,0.0,0.0,0.0,0.0,0.0,0.0,0.0,0.0,0.0,0.0,0.0,0.0,0.0,0.0,0.0,0.0,0.0,0.0,0.0,0.0,0.0,0.0,0.0,0.0,0.0,0.0,0.0,0.0,0.0,0.0,0.0,0.0,0.0,0.0,0.0,0.0,0.0,0.0,0.0,0.0,0.0,0.0,0.0,0.0,0.0,0.0,0.0,0.0,0.0,0.0,0.0,0.0,0.0,0.0,0.0,0.0,0.0,0.0,0.0,0.0,0.0,4.1025,4.0728,4.0593,4.0646,4.0115,3.9157,3.7874,0.0,0.0,0.0,0.0,0.0,0.0,0.0,0.0,0.0,0.0,0.0,0.0,0.0,0.0,0.0,0.0,0.0,0.0,0.0,0.0,0.0,0.0,0.0,0.0,0.0,0.0,0.0,0.0,0.0,0.0,0.0,0.0,0.0,0.0,0.0,0.0,0.0,0.0,0.0,0.0,0.0,0.0,0.0,0.0,0.0,0.0,0.0,0.0,0.0,0.0,0.0,0.0,0.0,0.0,0.0,0.0,0.0,0.0,0.0,0.0,0.0,0.0,0.0,0.0,0.0,0.0,0.0,0.0,0.0,0.0,0.0,0.0,0.0,0.0,0.0,0.0,0.0,0.0,0.0,0.0,0.0,0.0,0.0,0.0,0.0,0.0,0.0,0.0,0.0,0.0,0.0,0.0,0.0,0.0,0.0,0.0,0.0,0.0,0.0,0.0,0.0,0.0,0.0,0.0,0.0,0.0,0.0,0.0,4.4173,4.3503,4.3138,4.3107,4.1617,4.0391,0.0,0.0,0.0,0.0,0.0,0.0,0.0,0.0,0.0,0.0,0.0,0.0,0.0,0.0,0.0,0.0,0.0,0.0,0.0,0.0,0.0,0.0,0.0,0.0,0.0,0.0,0.0,0.0,0.0,0.0,0.0,0.0,0.0,0.0,0.0,0.0,0.0,0.0,0.0,0.0,0.0,0.0,0.0,0.0,0.0,0.0,0.0,0.0,0.0,0.0,0.0,0.0,0.0,0.0,0.0,0.0,0.0,0.0,0.0,0.0,0.0,0.0,0.0,0.0,0.0,0.0,0.0,0.0,0.0,0.0,0.0,0.0,0.0,0.0,0.0,0.0,0.0,0.0,0.0,0.0,0.0,0.0,0.0,0.0,0.0,0.0,0.0,0.0,0.0,0.0,0.0,0.0,0.0,0.0,0.0,0.0,0.0,0.0,0.0,0.0,0.0,0.0,0.0,0.0,0.0,0.0,0.0,0.0,0.0,4.4135,4.4557,4.4499,4.3942,4.3513,4.2348,0.0,0.0,0.0,0.0,0.0,0.0,0.0,0.0,0.0,0.0,0.0,0.0,0.0,0.0,0.0,0.0,0.0,0.0,0.0,0.0,0.0,0.0,0.0,0.0,0.0,0.0,0.0,0.0,0.0,0.0,0.0,0.0,0.0,0.0,0.0,0.0,0.0,0.0,0.0,0.0,0.0,0.0,0.0,0.0,0.0,0.0,0.0,0.0,0.0,0.0,0.0,0.0,0.0,0.0,0.0,0.0,0.0,0.0,0.0,0.0,0.0,0.0,0.0,0.0,0.0,0.0,0.0,0.0,0.0,0.0,0.0,0.0,0.0,0.0,0.0,0.0,0.0,0.0,0.0,0.0,0.0,0.0,0.0,0.0,0.0,0.0,0.0,0.0,0.0,0.0,0.0,0.0,0.0,0.0,0.0,0.0,0.0,0.0,0.0,0.0,0.0,0.0,0.0,0.0,0.0,0.0,0.0,0.0,4.463,4.5822,4.6302,4.6129,4.5323,4.463,4.3333,0.0,0.0,0.0,0.0,0.0,0.0,0.0,0.0,0.0,0.0,0.0,0.0,0.0,0.0,0.0,0.0,0.0,0.0,0.0,0.0,0.0,0.0,0.0,0.0,0.0,0.0,0.0,0.0,0.0,0.0,0.0,0.0,0.0,0.0,0.0,0.0,0.0,0.0,0.0,0.0,0.0,0.0,0.0,0.0,0.0,0.0,0.0,0.0,0.0,0.0,0.0,0.0,0.0,0.0,0.0,0.0,0.0,0.0,0.0,0.0,0.0,0.0,0.0,0.0,0.0,0.0,0.0,0.0,0.0,0.0,0.0,0.0,0.0,0.0,0.0,0.0,0.0,0.0,0.0,0.0,0.0,0.0,0.0,0.0,0.0,0.0,0.0,0.0,0.0,0.0,0.0,0.0,0.0,0.0,0.0,0.0,0.0,0.0,0.0,0.0,0.0,0.0,0.0,0.0,0.0,0.0,0.0,0.0,4.6301,4.7934,4.8049,4.7703,4.682,4.536,4.3778,0.0,0.0,0.0,0.0,0.0,0.0,0.0,0.0,0.0,0.0,0.0,0.0,0.0,0.0,0.0,0.0,0.0,0.0,0.0,0.0,0.0,0.0,0.0,0.0,0.0,0.0,0.0,0.0,0.0,0.0,0.0,0.0,0.0,0.0,0.0,0.0,0.0,0.0,0.0,0.0,0.0,0.0,0.0,0.0,0.0,0.0,0.0,0.0,0.0,0.0,0.0,0.0,0.0,0.0,0.0,0.0,0.0,0.0,0.0,0.0,0.0,0.0,0.0,0.0,0.0,0.0,0.0,0.0,0.0,0.0,0.0,0.0,0.0,0.0,0.0,0.0,0.0,0.0,0.0,0.0,0.0,0.0,0.0,0.0,0.0,0.0,0.0,0.0,0.0,0.0,0.0,0.0,0.0,0.0,0.0,0.0,0.0,0.0,0.0,0.0,0.0,0.0,0.0,0.0,0.0,0.0,0.0,0.0,4.605,4.705,4.7742,4.7665,4.682,4.6511,4.5257,0.0,0.0,0.0,0.0,0.0,0.0,0.0,0.0,0.0,0.0,0.0,0.0,0.0,0.0,0.0,0.0,0.0,0.0,0.0,0.0,0.0,0.0,0.0,0.0,0.0,0.0,0.0,0.0,0.0,0.0,0.0,0.0,0.0,0.0,0.0,0.0,0.0,0.0,0.0,0.0,0.0,0.0,0.0,0.0,0.0,0.0,0.0,0.0,4.1571,0.0,0.0,0.0,0.0,0.0,0.0,0.0,0.0,0.0,0.0,0.0,0.0,0.0,0.0,0.0,0.0,0.0,0.0,0.0,0.0,0.0,0.0,0.0,0.0,0.0,0.0,0.0,0.0,0.0,0.0,0.0,0.0,0.0,0.0,0.0,0.0,0.0,0.0,0.0,0.0,0.0,0.0,0.0,0.0,0.0,0.0,0.0,0.0,0.0,0.0,0.0,0.0,0.0,0.0,0.0,0.0,0.0,0.0,0.0,4.7183,4.801,4.8856,4.8702,4.7472,4.7452,4.6121,0.0,0.0,0.0,0.0,0.0,0.0,0.0,0.0,0.0,0.0,0.0,0.0,0.0,0.0,0.0,0.0,0.0,0.0,0.0,0.0,0.0,0.0,0.0,0.0,0.0,0.0,0.0,0.0,0.0,0.0,0.0,0.0,0.0,0.0,0.0,0.0,0.0,0.0,0.0,0.0,0.0,0.0,0.0,0.0,0.0,0.0,0.0,0.0,0.0,0.0,0.0,0.0,0.0,0.0,0.0,0.0,0.0,0.0,0.0,0.0,0.0,0.0,0.0,0.0,0.0,0.0,0.0,0.0,0.0,0.0,0.0,0.0,0.0,0.0,0.0,0.0,0.0,0.0,0.0,0.0,0.0,0.0,0.0,0.0,0.0,0.0,0.0,0.0,0.0,0.0,0.0,0.0,0.0,0.0,0.0,0.0,0.0,0.0,0.0,0.0,0.0,0.0,0.0,0.0,0.0,0.0,0.0,4.6624,4.8317,4.9202,5.0164,4.9856,4.8163,4.8086,4.6544,4.3351,0.0,0.0,0.0,0.0,0.0,0.0,0.0,0.0,0.0,0.0,0.0,0.0,0.0,0.0,0.0,0.0,0.0,0.0,0.0,0.0,0.0,0.0,0.0,0.0,0.0,0.0,0.0,0.0,0.0,0.0,0.0,0.0,0.0,0.0,0.0,0.0,0.0,0.0,4.0526,4.299,0.0,0.0,0.0,0.0,0.0,0.0,0.0,0.0,4.6067,0.0,0.0,0.0,0.0,0.0,0.0,0.0,0.0,0.0,0.0,0.0,0.0,0.0,0.0,0.0,0.0,0.0,0.0,0.0,0.0,0.0,0.0,0.0,0.0,0.0,0.0,0.0,0.0,0.0,0.0,0.0,0.0,0.0,0.0,0.0,0.0,0.0,0.0,0.0,0.0,0.0,0.0,0.0,0.0,0.0,0.0,0.0,0.0,0.0,0.0,0.0,0.0,0.0,0.0,0.0,0.0,4.3278,4.5817,4.7509,4.8317,4.9856,4.9856,4.8202,4.8086,4.6544,4.3351,0.0,0.0,0.0,0.0,0.0,0.0,0.0,0.0,0.0,0.0,0.0,0.0,0.0,0.0,0.0,0.0,0.0,0.0,0.0,0.0,0.0,0.0,0.0,0.0,0.0,0.0,0.0,0.0,0.0,0.0,0.0,0.0,0.0,0.0,0.0,0.0,0.0,0.0,0.0,4.5547,4.7144,0.0,0.0,0.0,0.0,0.0,0.0,0.0,0.0,4.6327,0.0,0.0,0.0,0.0,0.0,0.0,0.0,0.0,0.0,0.0,0.0,0.0,0.0,0.0,0.0,0.0,0.0,0.0,0.0,0.0,0.0,0.0,0.0,0.0,0.0,0.0,0.0,0.0,0.0,0.0,0.0,0.0,0.0,0.0,0.0,0.0,0.0,0.0,0.0,0.0,0.0,0.0,0.0,0.0,0.0,0.0,0.0,0.0,0.0,0.0,0.0,0.0,0.0,0.0,0.0,4.3124,4.6009,4.7702,4.8125,4.9817,4.9856,4.8163,4.8086,4.6544,0.0,0.0,0.0,0.0,0.0,0.0,0.0,0.0,0.0,0.0,0.0,0.0,0.0,0.0,0.0,0.0,0.0,0.0,0.0,0.0,0.0,0.0,0.0,0.0,0.0,0.0,0.0,0.0,0.0,0.0,0.0,0.0,0.0,0.0,0.0,0.0,0.0,0.0,0.0,0.0,4.733,4.863,4.9522,0.0,0.0,0.0,0.0,0.0,0.0,4.8742,4.8742,0.0,0.0,0.0,0.0,0.0,0.0,0.0,0.0,0.0,0.0,0.0,0.0,0.0,0.0,0.0,0.0,0.0,0.0,0.0,0.0,0.0,0.0,0.0,0.0,0.0,0.0,0.0,0.0,0.0,0.0,0.0,0.0,0.0,0.0,0.0,0.0,0.0,0.0,0.0,0.0,0.0,0.0,0.0,0.0,0.0,0.0,0.0,0.0,0.0,0.0,0.0,0.0,0.0,0.0,0.0,4.3124,4.624,4.7932,4.8163,4.9817,4.9894,4.8163,4.8086,4.6544,0.0,0.0,0.0,0.0,0.0,0.0,0.0,0.0,0.0,0.0,0.0,0.0,0.0,0.0,0.0,0.0,0.0,0.0,0.0,0.0,0.0,0.0,0.0,0.0,0.0,0.0,0.0,0.0,0.0,0.0,0.0,0.0,0.0,0.0,0.0,0.0,0.0,0.0,0.0,0.0,0.0,4.9968,5.1416,5.1639,0.0,0.0,0.0,0.0,5.0673,5.1045,0.0,0.0,0.0,0.0,0.0,0.0,0.0,0.0,0.0,0.0,0.0,0.0,0.0,0.0,0.0,0.0,0.0,0.0,0.0,0.0,0.0,0.0,0.0,0.0,0.0,0.0,0.0,0.0,0.0,0.0,0.0,0.0,0.0,0.0,0.0,0.0,0.0,0.0,0.0,0.0,0.0,0.0,0.0,0.0,0.0,0.0,0.0,0.0,0.0,0.0,0.0,0.0,0.0,0.0,0.0,0.0,4.3085,4.5701,4.7394,4.8125,4.9817,4.9856,4.8163,4.8086,4.6544,0.0,0.0,0.0,0.0,0.0,0.0,0.0,0.0,0.0,0.0,0.0,0.0,0.0,0.0,0.0,0.0,0.0,0.0,0.0,0.0,0.0,0.0,0.0,0.0,0.0,0.0,0.0,0.0,0.0,0.0,0.0,0.0,0.0,0.0,0.0,0.0,0.0,0.0,0.0,0.0,0.0,5.1454,5.2345,5.2457,5.2679,0.0,0.0,5.1602,5.2197,5.1788,0.0,0.0,0.0,0.0,0.0,0.0,0.0,0.0,0.0,0.0,0.0,0.0,0.0,0.0,0.0,0.0,0.0,0.0,0.0,0.0,0.0,0.0,0.0,0.0,0.0,0.0,0.0,0.0,0.0,0.0,0.0,0.0,0.0,0.0,0.0,0.0,0.0,0.0,0.0,0.0,0.0,0.0,0.0,0.0,0.0,0.0,0.0,0.0,0.0,0.0,0.0,0.0,0.0,0.0,0.0,4.1008,4.3124,4.6065,4.774,4.8125,4.9817,4.9856,4.8163,4.7663,4.5851,0.0,0.0,0.0,0.0,0.0,0.0,0.0,0.0,0.0,0.0,0.0,0.0,0.0,0.0,0.0,0.0,0.0,0.0,0.0,0.0,0.0,0.0,0.0,0.0,0.0,0.0,0.0,0.0,0.0,0.0,0.0,0.0,0.0,0.0,0.0,0.0,0.0,0.0,0.0,0.0,0.0,0.0,5.3088,5.3683,0.0,0.0,0.0,5.3571,5.3905,0.0,0.0,0.0,0.0,0.0,0.0,0.0,0.0,0.0,0.0,0.0,0.0,0.0,0.0,0.0,0.0,0.0,0.0,0.0,0.0,0.0,0.0,0.0,0.0,0.0,0.0,0.0,0.0,0.0,0.0,0.0,0.0,0.0,0.0,0.0,0.0,0.0,0.0,0.0,0.0,0.0,0.0,0.0,0.0,0.0,0.0,0.0,0.0,0.0,0.0,0.0,0.0,0.0,0.0,0.0,0.0,0.0,4.3118,4.6236,4.7892,4.8182,4.9798,4.9856,4.8163,4.7317,0.0,0.0,0.0,0.0,0.0,0.0,0.0,0.0,0.0,0.0,0.0,0.0,0.0,0.0,0.0,0.0,0.0,0.0,0.0,0.0,0.0,0.0,0.0,0.0,0.0,0.0,0.0,2.8812,0.0,0.0,0.0,0.0,0.0,0.0,0.0,0.0,0.0,0.0,0.0,0.0,0.0,0.0,5.1974,5.3571,5.45,5.502,0.0,0.0,5.502,5.502,5.4351,5.346,0.0,0.0,0.0,0.0,0.0,0.0,0.0,0.0,0.0,0.0,0.0,0.0,0.0,0.0,0.0,0.0,0.0,0.0,0.0,0.0,0.0,0.0,0.0,0.0,0.0,0.0,0.0,0.0,0.0,0.0,0.0,0.0,0.0,0.0,0.0,0.0,0.0,0.0,0.0,0.0,0.0,0.0,0.0,0.0,0.0,0.0,0.0,0.0,0.0,0.0,0.0,0.0,0.0,0.0,0.0,4.3173,4.5709,4.737,4.8179,4.9836,4.9856,4.8163,4.7317,4.5295,0.0,0.0,0.0,0.0,0.0,0.0,0.0,0.0,0.0,0.0,0.0,0.0,0.0,0.0,0.0,0.0,0.0,0.0,0.0,0.0,0.0,0.0,0.0,0.0,0.0,0.0,0.0,0.0,0.0,0.0,0.0,0.0,0.0,0.0,0.0,0.0,0.0,0.0,0.0,0.0,0.0,5.1974,5.3571,5.45,5.502,0.0,0.0,5.502,5.502,5.4314,5.3274,5.1751,0.0,0.0,0.0,0.0,0.0,0.0,0.0,0.0,0.0,0.0,0.0,0.0,0.0,0.0,0.0,0.0,0.0,0.0,0.0,0.0,0.0,0.0,0.0,0.0,0.0,0.0,0.0,0.0,0.0,0.0,0.0,0.0,0.0,0.0,0.0,0.0,0.0,0.0,0.0,0.0,0.0,0.0,0.0,0.0,0.0,0.0,0.0,0.0,0.0,0.0,0.0,0.0,0.0,4.0342,4.2401,4.5362,4.7311,4.8197,4.9836,4.9856,4.8125,4.6817,4.4526,0.0,0.0,0.0,0.0,0.0,0.0,0.0,0.0,0.0,0.0,0.0,0.0,0.0,0.0,0.0,0.0,0.0,0.0,0.0,0.0,0.0,0.0,0.0,0.0,0.0,0.0,0.0,0.0,3.1699,3.2201,3.2901,0.0,0.0,0.0,0.0,0.0,0.0,0.0,0.0,0.0,0.0,5.1193,5.2828,5.4166,0.0,0.0,5.502,5.502,5.502,5.4314,5.3423,5.2308,5.1822,0.0,0.0,0.0,0.0,0.0,0.0,0.0,0.0,0.0,0.0,0.0,0.0,0.0,0.0,0.0,0.0,0.0,0.0,0.0,0.0,0.0,0.0,0.0,0.0,0.0,0.0,0.0,0.0,0.0,0.0,0.0,0.0,0.0,0.0,0.0,0.0,0.0,0.0,0.0,0.0,0.0,0.0,0.0,0.0,0.0,0.0,0.0,0.0,0.0,0.0,0.0,0.0,3.9984,4.1928,4.497,4.7097,4.8214,4.9855,4.9856,4.8163,4.674,4.4393,0.0,0.0,0.0,0.0,0.0,0.0,0.0,0.0,0.0,0.0,0.0,0.0,0.0,0.0,0.0,0.0,0.0,0.0,0.0,0.0,0.0,0.0,0.0,0.0,0.0,0.0,0.0,0.0,3.2809,3.3542,3.4167,0.0,0.0,0.0,0.0,0.0,0.0,0.0,0.0,0.0,0.0,5.045,5.2345,5.3757,5.4648,5.4648,5.4871,5.4909,5.4686,5.398,5.3162,5.2382,0.0,0.0,0.0,0.0,0.0,0.0,0.0,0.0,0.0,0.0,0.0,0.0,0.0,0.0,0.0,0.0,0.0,0.0,0.0,0.0,0.0,0.0,0.0,0.0,0.0,0.0,0.0,0.0,0.0,0.0,3.1895,0.0,0.0,0.0,0.0,0.0,0.0,0.0,0.0,0.0,0.0,0.0,0.0,0.0,0.0,0.0,0.0,0.0,0.0,0.0,0.0,0.0,0.0,3.9457,4.197,4.4438,4.6552,4.8249,4.9874,4.9856,4.8202,4.7278,4.524,4.1816,0.0,0.0,0.0,0.0,0.0,0.0,0.0,0.0,0.0,0.0,0.0,0.0,0.0,0.0,0.0,0.0,0.0,0.0,0.0,0.0,0.0,0.0,0.0,0.0,0.0,0.0,3.3738,3.4611,3.5323,0.0,0.0,0.0,0.0,0.0,0.0,0.0,0.0,0.0,0.0,4.8407,4.9819,5.2234,5.3311,5.3831,5.3831,5.45,5.4723,5.398,5.32,5.2345,0.0,0.0,0.0,0.0,0.0,0.0,0.0,0.0,0.0,0.0,0.0,0.0,0.0,0.0,0.0,0.0,0.0,0.0,0.0,0.0,0.0,0.0,0.0,0.0,0.0,0.0,0.0,3.3105,3.3375,0.0,0.0,0.0,0.0,0.0,0.0,0.0,0.0,0.0,0.0,0.0,3.6342,3.6598,0.0,0.0,0.0,0.0,0.0,0.0,0.0,0.0,0.0,0.0,0.0,0.0,3.9173,4.1197,4.3588,4.5973,4.821,4.9335,4.9529,4.8913,4.7569,4.4994,4.1037,0.0,0.0,0.0,0.0,0.0,0.0,0.0,0.0,0.0,0.0,0.0,0.0,0.0,0.0,0.0,0.0,0.0,0.0,0.0,0.0,0.0,0.0,0.0,0.0,0.0,3.3593,0.0,0.0,0.0,0.0,0.0,0.0,0.0,0.0,0.0,0.0,0.0,4.4395,4.6624,4.8036,4.9596,5.1528,5.253,5.3237,0.0,0.0,0.0,0.0,0.0,0.0,0.0,0.0,0.0,0.0,0.0,0.0,0.0,0.0,4.5109,4.396,4.2672,4.172,4.1638,0.0,0.0,0.0,0.0,0.0,0.0,0.0,0.0,0.0,0.0,0.0,0.0,0.0,0.0,0.0,0.0,3.3958,0.0,0.0,0.0,0.0,0.0,0.0,0.0,0.0,3.777,3.7983,3.7978,3.8232,3.8232,0.0,3.8232,3.7079,0.0,0.0,0.0,0.0,0.0,0.0,0.0,0.0,3.903,4.081,4.3163,4.5665,4.8172,4.9026,4.9375,4.9278,4.7377,4.4632,4.1042,3.8185,3.6051,0.0,0.0,0.0,0.0,0.0,0.0,0.0,0.0,0.0,0.0,0.0,0.0,0.0,0.0,0.0,0.0,0.0,0.0,0.0,0.0,0.0,0.0,0.0,3.4779,0.0,0.0,0.0,0.0,0.0,0.0,0.0,0.0,0.0,4.1571,4.302,4.4618,4.629,4.7661,4.9222,5.1155,0.0,0.0,0.0,0.0,0.0,0.0,0.0,5.32,5.2679,5.2382,5.2011,5.1563,5.0666,4.966,4.877,0.0,0.0,4.5307,4.4098,4.3361,4.3348,4.3401,4.3639,4.4221,4.4974,4.5757,0.0,0.0,0.0,0.0,0.0,0.0,0.0,0.0,3.482,3.5327,0.0,3.5243,0.0,0.0,0.0,0.0,0.0,0.0,0.0,0.0,3.819,3.8131,3.8162,3.8898,3.8843,3.8153,3.8882,3.8821,3.7894,3.644,0.0,0.0,0.0,0.0,0.0,0.0,3.903,4.0848,4.3125,4.5603,4.821,4.8988,4.9337,4.9181,4.68,4.4308,4.1872,4.0053,3.7983,3.5546,3.4587,0.0,0.0,0.0,0.0,0.0,0.0,0.0,0.0,0.0,0.0,0.0,0.0,0.0,0.0,0.0,0.0,0.0,0.0,0.0,0.0,3.4683,0.0,0.0,0.0,0.0,0.0,0.0,0.0,0.0,0.0,0.0,4.1837,4.3162,4.4692,4.6364,0.0,0.0,0.0,0.0,5.2223,5.3867,5.4055,5.4019,5.3981,5.3237,5.2679,5.264,0.0,0.0,5.1454,5.1454,5.1119,5.0265,4.9485,4.8481,4.6958,4.6508,4.6359,4.6456,4.6382,4.6632,4.6824,4.6853,4.7137,3.8619,0.0,0.0,0.0,0.0,3.6176,3.629,3.6516,3.7141,3.7535,3.7765,3.7531,0.0,0.0,0.0,0.0,0.0,0.0,3.911,3.9928,4.0415,4.0943,4.1541,4.1737,4.1701,4.1489,4.1701,4.1067,3.9704,3.9292,3.8031,3.61,0.0,0.0,0.0,0.0,3.8721,4.1506,4.2342,4.45,4.8227,4.8428,4.8509,4.8335,4.6988,4.5339,4.3465,4.1206,3.9367,3.806,3.6051,0.0,0.0,0.0,0.0,0.0,0.0,0.0,0.0,0.0,0.0,0.0,0.0,0.0,0.0,0.0,0.0,0.0,0.0,0.0,3.4779,3.5659,3.6288,0.0,0.0,0.0,0.0,0.0,0.0,0.0,0.0,0.0,4.3446,4.4798,4.6364,0.0,0.0,5.0149,5.2082,5.2449,5.2895,5.3941,0.0,0.0,0.0,5.3758,5.3571,5.3459,5.3236,5.294,5.2345,5.2271,5.201,5.1264,5.0929,5.0629,5.0176,4.8203,4.6754,4.6663,4.6732,4.6831,4.693,4.7484,4.8032,4.1485,4.0369,3.8545,3.7765,3.7765,3.7765,3.7765,3.7756,3.8263,3.8497,3.8497,3.8532,3.8532,3.8527,3.8793,0.0,0.0,0.0,4.0805,4.1578,4.1997,4.2445,4.2908,4.2871,4.2872,4.2833,4.2891,4.2163,4.0879,4.0586,3.9561,3.7777,0.0,0.0,3.7385,3.7382,3.8914,4.1816,4.166,4.3564,4.7703,4.8333,4.8433,4.8008,4.7367,4.6101,4.4133,4.2298,4.0786,3.9618,3.7819,3.6119,0.0,0.0,0.0,0.0,0.0,0.0,0.0,0.0,0.0,0.0,0.0,3.1686,3.1703,0.0,0.0,0.0,3.412,3.525,3.6189,3.6779,0.0,0.0,0.0,0.0,0.0,0.0,0.0,4.2309,4.3521,4.4736,4.5935,4.6945,4.788,4.8779,4.9963,5.1188,5.2601,0.0,5.3334,5.4086,5.4495,5.4683,5.4537,5.4727,5.4761,5.4314,5.4277,5.398,5.3237,5.3126,5.2865,5.2194,5.2006,5.2001,5.1806,5.0015,4.8562,4.829,4.8022,4.7866,4.7897,4.8453,4.8928,4.3689,4.3434,4.0242,3.8922,3.8887,3.8926,3.8887,3.8922,3.8922,3.8922,3.8883,3.8873,3.8906,3.894,3.9591,0.0,4.1028,4.171,4.2395,4.3124,4.3038,4.3004,4.2986,4.3024,4.2985,4.3023,4.2985,4.2584,4.1781,4.0994,4.0202,3.9407,3.8681,3.8273,3.8209,3.8182,3.9456,4.1932,4.1196,4.2844,4.7001,4.8412,4.872,4.7951,4.7788,4.6538,4.4131,4.3214,4.2068,4.0501,3.9544,3.7976,3.5687,0.0,0.0,0.0,0.0,0.0,0.0,0.0,0.0,0.0,0.0,0.0,0.0,0.0,0.0,0.0,3.556,0.0,3.7857,3.8022,0.0,0.0,0.0,4.0769,4.1411,4.2155,4.3113,4.453,0.0,0.0,4.8725,0.0,4.9362,4.9222,5.0664,5.1999,5.2893,5.3256,5.3658,5.4446,5.5013,5.5425,5.5425,5.5809,5.5914,5.5243,5.5094,5.4834,5.4091,5.3981,5.3758,5.2975,5.2935,5.2819,5.2136,5.1944,5.172,5.0862,5.0076,4.9546,4.9678,4.9838,5.0023,4.4585,4.4468,4.2987,4.2409,4.2382,4.2382,4.2376,4.2364,4.2364,4.2364,4.2364,4.2403,4.2383,4.2393,4.2528,4.2604,4.2705,4.2844,4.3297,4.402,4.3939,4.4211,4.4768,4.4707,4.4704,4.4704,4.4704,4.4246,4.3425,4.2623,4.1837,4.1085,4.03,3.9644,3.9083,3.8491,3.9456,4.197,4.1803,4.3438,4.6877,4.7296,4.7319,4.7108,4.7011,4.6069,4.4153,4.3235,4.2298,4.1227,3.9832,3.8744,3.804,3.6819,0.0,0.0,0.0,0.0,0.0,0.0,0.0,0.0,0.0,3.3463,3.3515,0.0,3.574,0.0,3.6799,3.7806,3.872,3.935,0.0,0.0,4.1686,4.241,4.3145,4.3801,4.4575,4.5423,4.7057,4.8365,4.9123,5.0807,5.1964,5.1964,5.2298,5.2931,5.3824,5.4533,5.5053,5.531,5.5943,5.6324,5.6332,5.629,5.6283,5.6023,5.5986,5.5689,5.4871,5.4723,5.4539,5.3906,5.3792,5.3788,5.3703,5.3286,5.2836,5.2573,5.1898,5.133,5.1463,5.1518,5.1609,4.5475,4.5436,4.4929,4.4741,4.4709,4.3929,4.3611,4.3598,4.3598,4.3598,4.3598,4.3598,4.3622,4.3622,4.388,4.3962,4.3918,4.4197,4.453,4.4927,4.4804,4.4978,4.54,4.5319,4.5277,4.5277,4.5277,4.4857,4.4017,4.356,4.2814,4.1719,4.1306,4.0708,3.9932,3.9136,3.983,4.197,4.2783,4.4211,4.6336,4.6694,4.6663,4.6244,4.6167,4.5323,4.3561,4.2699,4.1992,4.1495,4.0272,3.9375,3.8975,3.8058,3.7107,0.0,0.0,0.0,0.0,0.0,0.0,0.0,0.0,0.0,0.0,0.0,3.7279,0.0,3.8935,0.0,4.069,4.1494,4.2164,4.2604,4.369,4.4331,4.4334,4.5659,4.6641,4.692,4.8694,5.0183,5.0796,5.2105,5.3227,5.3938,5.4086,5.4271,5.472,5.5242,5.569,5.6136,5.6807,5.7375,5.7562,5.7556,5.7289,5.6915,5.684,5.658,5.5726,5.5282,5.4987,5.4652,5.439,5.4235,5.434,5.4037,5.3733,5.3658,5.3391,5.2822,5.2247,5.2159,5.2251,4.6215,4.6215,4.6215,4.6215,4.6098,4.4579,4.3916,4.3916,4.3916,4.3909,4.3948,4.3948,4.3934,4.3964,4.4589,4.4827,4.4809,4.5448,4.5665,4.5603,4.5475,4.5438,4.5418,4.5357,4.5337,4.5277,4.5277,4.4895,4.4169,4.4095,4.3369,4.2064,4.198,4.1617,4.0935,4.0229,4.0578,4.2009,4.3518,4.4689,4.5526,4.6127,4.6022,4.5225,4.5247,4.4422,4.2718,4.1915,4.1476,4.1342,4.0692,3.9986,3.9337,3.9126,3.8784,0.0,3.7908,0.0,0.0,0.0,0.0,0.0,0.0,0.0,0.0,3.7985,3.8842,4.0425,4.1399,4.2183,4.2986,4.3866,4.4322,4.434,4.5535,4.6092,4.5504,4.7327,4.8689,4.8711,5.0071,5.1593,5.2731,5.3144,5.3818,5.513,5.5463,5.5575,5.5842,5.5953,5.6324,5.6962,5.7638,5.8241,5.8646,5.8828,5.8564,5.7847,5.7658,5.736,5.658,5.5953,5.5472,5.5174,5.4764,5.4423,5.4345,5.434,5.4337,5.4334,5.4326,5.3978,5.2918,5.2642,5.2553,4.6215,4.6215,4.6215,4.6215,4.6176,4.5825,4.5709,4.5709,4.5709,4.5702,4.5726,4.5702,4.5679,4.5619,4.5765,4.5792,4.566,4.5736,4.5742,4.5703,4.5565,4.5514,4.5419,4.538,4.5357,4.5277,4.5277,4.5201,4.5048,4.436,4.3904,4.3637,4.2984,4.2667,4.2626,0.0,0.0,0.0,4.2344,4.3206,4.4645,4.4174,4.3778,4.358,4.4187,0.0,4.2008,4.1703,4.1284,4.0578,4.0387,0.0,0.0,0.0,0.0,0.0,0.0,0.0,0.0,0.0,0.0,0.0,4.0261,3.9721,3.8727,3.9812,4.1051,4.2062,4.29,4.3716,4.4554,4.5392,4.5887,4.5963,4.6183,4.6516,4.6985,4.8022,4.906,5.0334,5.1826,5.286,5.317,5.3699,5.4487,5.5425,5.5717,5.6243,5.745,5.7563,5.7676,5.7938,5.8465,5.8877,5.8905,5.8902,5.8784,5.8553,5.8475,5.8141,5.7435,5.7138,5.6548,5.5508,5.51,5.4801,5.4348,5.4308,5.4265,5.4375,5.4439,5.4425,5.4226,5.4252,5.4345,4.5553,0.0,4.5553,4.5553,0.0,4.602,4.6215,4.6176,4.5748,4.5546,4.5577,4.6006,4.6177,4.6095,4.6076,4.5986,4.5905,4.5841,4.5771,4.568,4.5637,4.555,4.5438,4.5438,4.538,4.5357,4.5357,4.5319,4.5277,4.4857,4.4457,4.4097,4.3733,4.3401,4.3111,4.3612,4.367,4.3285,4.3272,4.3863,4.4978,4.4267,4.3794,4.3695,0.0,0.0,0.0,0.0,0.0,0.0,0.0,0.0,0.0,0.0,0.0,4.1775,4.1326,4.1028,4.1047,4.0939,4.1292,4.2208,4.305,4.2905,4.1396,4.246,4.3542,4.4341,4.5179,4.5712,4.5788,4.6806,4.7376,4.7034,4.7631,4.8263,4.8719,4.9765,5.0743,5.1563,5.3013,5.3935,5.387,5.4142,5.4931,5.6093,5.6353,5.699,5.8349,5.8424,5.8274,5.8614,5.8953,5.9215,5.9061,5.8982,5.8902,5.8859,5.8739,5.8549,5.8178,5.7769,5.71,5.5953,5.5174,5.4465,5.3753,5.3372,5.3253,5.3695,5.3837,5.3935,5.4069,5.4434,5.4829,4.5124,4.5124,4.5124,4.5124,4.5163,4.5903,4.6098,4.5942,0.0,0.0,0.0,4.5881,4.6177,4.6065,4.6027,4.5975,4.5917,4.5854,4.5786,4.5696,4.5654,4.5586,4.5532,4.5438,4.54,4.5418,4.5418,4.5378,4.5337,4.5298,4.4954,4.4383,4.4365,4.417,4.3859,4.4622,4.5128,4.5258,4.4974,4.5177,4.5889,4.5263,4.4807,4.4564,4.3883,4.3483,4.3311,4.3214,4.315,4.315,4.3047,4.308,4.3232,4.3178,4.3194,4.3331,4.324,4.3175,4.3114,4.3064,4.3378,4.4082,4.5481,4.5773,4.4505,4.5087,4.5741,4.6235,4.7186,4.7476,4.6678,4.8036,4.8631,4.7796,4.8908,4.969,4.9955,5.1244,5.2125,5.2605,5.3792,5.4673,5.45,5.4472,5.5078,5.6576,5.6983,5.7627,5.902,5.8872,5.8612,5.9102,5.9253,5.929,5.9215,5.91,5.8982,5.8899,5.8777,5.8698,5.8586,5.8141,5.7435,5.6655,5.5397,5.4428,5.3531,5.2997,5.2536,5.3095,5.3236,5.3257,5.3245,5.3792,5.43,4.5981,4.602,4.602,4.602,4.602,4.6176,4.5748,4.5163,4.5748,4.6013,4.6037,4.6146,4.6169,4.6124,4.6076,4.6046,4.5991,4.5917,4.5854,0.0,4.5712,4.5671,4.5586,4.5532,4.5438,4.54,4.5438,4.5398,4.5398,4.5357,4.526,4.5145,4.5208,4.5647,4.6397,4.6654,4.7124,4.7811,4.6383,4.6044,4.6885,4.6677,4.6201,4.556,4.5936,4.5783,4.4977,4.4891,4.4805,4.476,4.4691,4.4948,4.5558,4.5542,4.5859,4.6501,4.6543,4.6488,4.6403,4.6356,4.6393,4.6563,4.6927,4.7049,4.6844,4.696,4.6847,4.6367,4.7669,4.82,4.7479,4.8731,4.9375,4.8655,4.8731,4.9121,4.9917,5.0789,5.1907,5.321,5.4163,5.4736,5.4673,5.4641,5.5244,5.6673,5.7347,5.7872,5.9128,5.9325,5.9214,5.9253,5.929,5.929,5.9215,5.91,5.8982,5.8899,5.8818,5.8698,5.8698,5.8586,5.8141,5.7435,5.6476,5.5659,5.495,5.4387,5.3668,5.3282,5.3236,5.3144,5.2642,5.2734,5.2786,4.5475,4.5514,4.5514,4.5514,4.5514,4.5981,4.5981,4.567,4.602,4.5942,4.5577,4.5998,4.6169,4.6095,4.6124,4.6085,4.5991,4.5941,4.5893,4.58,4.5771,4.5735,4.5676,4.6065,4.6204,4.6167,4.6647,4.6857,4.6817,4.6797,4.6797,4.6758,4.682,4.7163,4.7615,4.7725,4.8144,4.8932,4.7758,4.7333,4.7719,4.7195,4.7124,4.7645,4.7549,4.7601,4.8012,4.748,4.7134,4.6998,4.6506,4.6417,4.6679,4.6705,4.6868,4.7202,4.7174,4.7145,4.709,4.7454,4.768,4.7767,4.8268,4.8607,4.864,4.8325,4.7946,4.7643,4.8666,4.9007,4.8211,4.9197,4.9576,4.878,4.9045,4.9879,5.094,5.1102,5.1916,5.3777,5.4125,5.4214,5.4667,5.4705,5.5309,5.6927,5.7872,5.8854,5.9609,5.9545,5.9401,5.9327,5.9365,5.9365,5.929,5.9177,5.9061,5.8982,5.8862,5.8818,5.8698,5.8698,5.8364,5.7664,5.6664,5.5623,5.4911,5.3746,5.314,5.332,5.3203,5.3043,5.2868,5.2613,5.2361,4.5202,4.5202,4.5202,4.5202,4.5241,4.5903,4.6215,4.6215,4.6215,4.5825,4.5358,4.5928,4.6177,4.6113,4.6134,4.6056,4.6014,4.6003,4.5956,4.5841,4.6007,4.6066,4.6089,4.6827,4.716,4.7203,4.7799,4.8068,4.8028,4.8028,4.8028,4.8048,4.8068,4.8259,4.8505,4.854,4.8981,4.9732,4.9363,4.9131,4.9097,4.8582,4.8914,5.0008,4.9465,4.9647,5.0718,5.01,4.9632,4.9435,4.8785,4.839,4.8268,4.8286,4.8294,4.8248,4.8047,4.7838,4.7671,4.8198,4.8536,4.8595,4.9286,4.9674,4.9514,4.9219,4.8882,4.8806,4.9375,4.9538,4.8932,4.9386,4.9652,4.9083,4.95,5.041,5.1774,5.1604,5.2105,5.4073,5.4049,5.4056,5.4547,5.4736,5.5448,5.7068,5.8627,5.9647,5.9757,5.9653,5.9547,5.9438,5.9438,5.9438,5.9365,5.9253,5.9139,5.9024,5.8942,5.8859,5.8739,5.8698,5.8553,5.7891,5.6704,5.5697,5.4872,5.3665,5.2982,5.317,5.3203,5.3193,5.3013,5.271,5.239,4.6059,4.6059,4.602,4.6059,4.6059,4.6176,4.6215,4.6215,4.6215,4.6176,4.6059,4.6201,4.6177,4.6113,4.6134,4.6066,4.5997,4.6003,4.603,4.6084,4.6668,4.6999,4.7047,4.7725,4.8081,4.8064,4.8145,4.8241,4.8241,4.8125,4.8086,4.8087,4.8087,4.8567,4.9296,4.9391,4.9812,5.0657,5.1316,5.1683,5.1703,5.2259,5.2619,5.2735,5.2548,5.2471,5.2476,5.2348,5.2178,5.1991,5.1752,5.1654,5.1511,5.1525,5.15,5.1356,5.0785,5.0146,4.937,4.9394,4.9461,4.9491,4.9646,4.9476,4.8899,4.9397,4.9451,4.9072,4.9451,4.9538,4.8856,4.9424,4.9868,4.9754,4.983,5.0258,5.1244,5.1926,5.2655,5.3669,5.4322,5.4814,5.4784,5.4973,5.5648,5.7163,5.8765,5.9757,5.9791,5.9757,5.9723,5.9581,5.9545,5.9512,5.9438,5.929,5.9177,5.9024,5.8905,5.8747,5.8591,5.8549,5.8628,5.8005,5.7301,5.6257,5.5956,5.524,5.3883,5.3466,5.3381,5.3182,5.2621,5.2588,5.2608,4.6215,4.6215,4.6215,4.6215,4.6215,4.6215,4.6215,4.6215,4.6215,4.6215,4.6215,4.6208,4.6193,4.6138,4.6113,4.6085,4.6095,4.654,4.674,4.6783,4.7546,4.7879,4.7897,4.8629,4.9003,4.9044,4.9394,4.9644,4.9625,4.9625,4.9625,4.9644,4.9644,4.9856,5.0202,5.0202,5.0625,5.1453,5.2281,5.2954,5.3377,5.3259,5.3349,5.3744,5.3736,5.3847,5.4051,5.3655,5.3252,5.2953,5.2477,5.2114,5.1946,5.192,5.1925,5.1893,5.1625,5.1093,5.0303,5.0289,5.0131,4.9759,4.9778,4.9683,4.9408,4.9728,4.9754,4.9603,4.9754,4.9754,4.9516,4.977,4.9959,4.9959,4.9933,5.0464,5.1774,5.168,5.2247,5.3959,5.4178,5.433,5.4898,5.5761,5.6588,5.7497,5.8797,5.9753,5.9857,5.9824,5.9791,5.9753,5.9723,5.9618,5.9547,5.9365,5.9253,5.9064,5.8611,5.8234,5.8114,5.755,5.7327,5.756,5.663,5.6033,5.5915,5.5275,5.4259,5.395,5.4081,5.4094,5.3815,5.3838,5.3897,4.5981,4.6176,4.6215,4.6215,4.6215,4.6215,4.6215,4.6215,4.6215,4.6215,4.6215,4.6215,4.6208,4.6193,4.613,4.6221,4.6504,4.7056,4.74,4.7624,4.8464,4.8798,4.8748,4.9495,4.9869,4.9949,5.0394,5.0664,5.0702,5.0702,5.0702,5.0702,5.0702,5.0702,5.0702,5.0702,5.1087,5.1895,5.2741,5.3626,5.4318,5.4087,5.4101,5.4603,5.4848,5.5033,5.5064,5.477,5.4325,5.3761,5.3201,5.2799,5.2602,5.2569,5.2494,5.2273,5.2268,5.1925,5.123,5.1186,5.087,5.0232,5.0147,5.0089,4.9955,4.9879,4.9917,4.9944,4.9906,4.9933,5.0024,5.005,5.0088,5.0316,5.0354,5.0973,5.2144,5.1935,5.2513,5.411,5.4216,5.4073,5.4905,5.6216,5.7346,5.7535,5.8759,5.9824,5.9885,5.9857,5.9857,5.9885,5.9857,5.9723,5.9583,5.9438,5.9328,5.9103,5.8614,5.8236,5.7893,5.7218,5.6734,5.745,5.6108,5.5472,5.5615,5.5047,5.4552,5.4608,5.4705,5.4799,5.4602,5.4814,5.4903,4.5436,4.6137,4.6215,4.6215,4.6215,4.6215,4.6215,4.6215,4.6215,4.6215,4.6215,4.6215,4.6215,4.6254,4.6216,4.6571,4.7242,4.7406,4.78,4.8502,4.933,4.9716,4.9713,5.0378,5.0696,5.064,5.0644,5.0702,5.0702,5.0702,5.0702,5.0702,5.0702,5.0702,5.0702,5.0741,5.1125,5.201,5.2856,5.3664,5.4511,5.5203,5.5506,5.5547,5.6165,5.6078,5.5407,5.5874,5.5768,5.4705,5.4597,5.4495,5.4292,5.4221,5.3883,5.3245,5.3132,5.2822,5.2171,5.2083,5.1798,5.113,5.1074,5.0827,5.022,5.0069,5.0031,4.9982,5.0009,5.0062,5.0164,5.0228,5.0482,5.1154,5.1307,5.1711,5.2455,5.311,5.3604,5.3935,5.4427,5.4701,5.4958,5.636,5.7232,5.7687,5.8824,5.9885,5.9885,5.9885,5.9885,5.9885,5.9857,5.9757,5.9616,5.951,5.9365,5.914,5.8914,5.876,5.849,5.8185,5.7782,5.7301,5.6295,5.5658,5.55,5.5228,5.4948,5.4893,5.4956,5.5019,5.4898,5.4979,5.5,4.5358,4.6176,4.6215,4.6215,4.6215,4.6215,4.6215,4.6215,4.6215,4.6215,4.6215,4.6215,4.6527,4.7033,4.6972,4.7095,4.7495,4.8487,4.9093,4.9459,5.0209,5.0593,5.0503,5.0692,5.0756,5.072,5.0702,5.0702,5.0702,5.0702,5.0702,5.0702,5.0702,5.0702,5.0779,5.1241,5.1895,5.2702,5.3587,5.4434,5.5241,5.6088,5.6489,5.6399,5.6635,5.6754,5.6711,5.7016,5.6869,5.622,5.622,5.589,5.5228,5.4706,5.4296,5.3996,5.3958,5.3616,5.3,5.2881,5.2604,5.1962,5.1878,5.1793,5.1509,5.1054,5.0751,5.0806,5.0778,5.0844,5.0897,5.0886,5.0988,5.133,5.1825,5.2406,5.3138,5.3632,5.3974,5.4439,5.479,5.4882,5.5223,5.636,5.7346,5.7573,5.8824,5.9734,5.9885,5.9885,5.9885,5.9885,5.989,5.9786,5.9616,5.9545,5.9438,5.914,5.8878,5.8427,5.8124,5.7637,5.719,5.7229,5.637,5.6181,5.6136,5.6237,5.5842,5.5599,5.5624,5.5466,5.4996,5.535,5.5294,4.5336,4.6123,4.6162,4.6162,4.6162,4.6208,4.6208,4.6208,4.6215,4.6215,4.6215,4.6215,4.6683,4.7462,4.772,4.8007,4.8331,4.943,4.9998,5.0248,5.0829,5.1044,5.0897,5.0846,5.0794,5.0701,5.0683,5.0702,5.0702,5.0702,5.0702,5.0702,5.0933,5.1087,5.1202,5.1933,5.2741,5.3587,5.4203,5.4857,5.5703,5.6549,5.7143,5.7305,5.7503,5.7583,5.7682,5.7853,5.7734,5.7262,5.7121,5.6756,5.6018,5.5269,5.4784,5.4784,5.4521,5.4217,5.3757,5.3677,5.3402,5.2734,5.2681,5.2635,5.2361,5.1897,5.1661,5.1651,5.1661,5.1698,5.1754,5.1934,5.2085,5.2178,5.2634,5.328,5.405,5.4192,5.4496,5.4838,5.4933,5.495,5.511,5.6436,5.7232,5.7422,5.8824,5.9809,5.9885,5.9885,5.9885,5.9885,5.9885,5.9786,5.9685,5.9545,5.9512,5.9252,5.9065,5.8503,5.8015,5.7416,5.708,5.6968,5.693,5.6853,5.692,5.7058,5.6857,5.6538,5.6488,5.6436,5.6156,5.5949,5.6007,4.5296,4.6035,4.6113,4.6122,4.6122,4.6177,4.6185,4.6193,4.6208,4.6169,4.6215,4.6215,4.6722,4.7579,4.8358,4.9153,4.981,5.0013,5.0386,5.0959,5.1062,5.1005,5.088,5.0846,5.0738,5.0682,5.0721,5.0741,5.0818,5.0933,5.0933,5.0971,5.1625,5.1933,5.1933,5.2779,5.3626,5.428,5.4511,5.4972,5.5703,5.6626,5.7412,5.8112,5.8807,5.8795,5.7891,5.8529,5.8456,5.7592,5.7343,5.7096,5.6847,5.6099,5.5575,5.5423,5.4859,5.448,5.4434,5.4392,5.4048,5.3579,5.349,5.3248,5.2786,5.2513,5.2428,5.2456,5.2428,5.2428,5.257,5.3101,5.3575,5.384,5.3764,5.4154,5.4724,5.5009,5.5075,5.5095,5.5104,5.5047,5.5329,5.6581,5.7567,5.787,5.8894,5.9918,5.995,5.995,5.9918,5.9918,5.9918,5.9853,5.9719,5.9581,5.9512,5.9402,5.929,5.8952,5.8728,5.8278,5.8016,5.7866,5.7641,5.7602,5.7745,5.7846,5.7645,5.7402,5.7428,5.727,5.6952,5.6785,5.713,4.5289,4.6027,4.6065,4.6113,4.6113,4.6122,4.613,4.613,4.6138,4.6185,4.6193,4.6193,4.6987,4.8164,4.8709,4.9543,5.0744,5.0812,5.0914,5.1076,5.1114,5.1044,5.0897,5.0829,5.0758,5.0759,5.1201,5.1449,5.1565,5.2026,5.2392,5.251,5.2664,5.2779,5.2856,5.3626,5.428,5.4511,5.5049,5.5472,5.5818,5.7126,5.7989,5.835,5.9484,5.997,5.954,5.9625,5.9482,5.8996,5.9001,5.8597,5.7818,5.696,5.6249,5.5685,5.5385,5.4934,5.4518,5.4476,5.4397,5.4301,5.4289,5.4276,5.4027,5.3573,5.3308,5.3299,5.3299,5.3308,5.3413,5.4048,5.4267,5.3803,5.4258,5.4629,5.4914,5.5064,5.5091,5.5199,5.5617,5.5893,5.6244,5.7392,5.8296,5.841,5.9323,6.0007,6.0007,6.0045,6.0045,5.9982,5.995,5.9999,5.9946,6.0109,6.0376,6.0078,5.9778,5.9553,5.9328,5.899,5.8765,5.8615,5.8428,5.8389,5.8533,5.8559,5.8396,5.8273,5.8262,5.7952,5.7567,5.7658,5.7976,4.4955,4.5925,4.6007,4.6017,4.6027,4.6037,4.6047,4.6056,4.6074,4.6122,4.6177,4.6185,4.7128,4.8507,4.8787,4.9698,5.1094,5.1211,5.1169,5.1139,5.1114,5.1005,5.0974,5.1177,5.1183,5.1219,5.189,5.2252,5.2291,5.279,5.308,5.3161,5.349,5.3664,5.378,5.4511,5.4934,5.5011,5.5434,5.5857,5.6395,5.755,5.8412,5.885,5.9945,6.043,6.0304,6.0159,6.0045,5.989,5.9828,5.9386,5.8681,5.7858,5.711,5.6587,5.5948,5.5385,5.4897,5.4597,5.4476,5.4608,5.4673,5.4736,5.4784,5.433,5.417,5.4132,5.4132,5.4132,5.4238,5.4541,5.4617,5.4238,5.4579,5.4912,5.5,5.5064,5.5298,5.5614,5.611,5.6539,5.7159,5.7938,5.8881,5.8995,5.9604,6.0099,6.0099,6.0099,6.0076,6.0197,6.0431,6.0378,6.0251,6.0636,6.1204,6.083,6.0379,6.0116,5.989,5.9403,5.9065,5.9028,5.8915,5.8915,5.906,5.9241,5.9194,5.9148,5.8987,5.8938,5.8736,5.8684,5.8897,4.4381,4.5841,4.5905,4.5917,4.5929,4.5975,4.5997,4.6007,4.6047,4.6104,4.6113,4.6169,4.712,4.8452,4.8779,4.9659,5.0987,5.1211,5.1219,5.119,5.1127,5.1083,5.1183,5.1604,5.1838,5.2005,5.2752,5.3114,5.3107,5.3344,5.3272,5.3541,5.422,5.4549,5.4664,5.5318,5.5588,5.5588,5.5665,5.6088,5.6896,5.7819,5.8642,5.9302,6.0112,6.048,6.0275,6.0281,6.0121,5.9918,5.9824,5.9685,5.9395,5.8683,5.8234,5.7863,5.6549,5.5873,5.5498,5.4972,5.4589,5.4576,5.4673,5.4736,5.4791,5.4776,5.4769,5.4769,5.4806,5.4806,5.4806,5.4882,5.4882,5.4958,5.4958,5.495,5.5076,5.5171,5.5663,5.6343,5.6611,5.6938,5.7815,5.8597,5.8986,5.9215,5.9748,6.0053,6.0205,6.0243,6.0182,6.0494,6.0919,6.1098,6.1117,6.1578,6.207,6.1883,6.1394,6.1055,6.0641,6.0154,5.9891,5.9816,5.9628,5.9627,5.9588,5.9773,5.9767,5.9496,5.9559,5.988,5.983,5.9558,5.9513,4.4395,4.5867,4.5893,4.5917,4.5917,4.5929,4.5941,4.5941,4.5953,4.5986,4.6017,4.6027,4.7038,4.86,4.8725,4.9642,5.0899,5.1211,5.1219,5.1202,5.1127,5.1401,5.1713,5.1933,5.2279,5.273,5.3552,5.3928,5.392,5.445,5.4802,5.4962,5.5105,5.5357,5.5434,5.5588,5.5665,5.5703,5.5703,5.6126,5.7011,5.7896,5.8619,5.9379,6.0188,6.0506,6.0418,6.0776,6.0621,5.9923,5.9824,5.9757,5.9688,5.9319,5.8872,5.8234,5.7712,5.6849,5.5873,5.5529,5.522,5.4716,5.478,5.4799,5.489,5.489,5.492,5.492,5.492,5.492,5.492,5.4958,5.5185,5.5678,5.5413,5.5261,5.5708,5.5987,5.6369,5.7167,5.7853,5.8339,5.8797,5.9359,5.9893,5.997,6.0122,6.0361,6.0475,6.076,6.089,6.1248,6.1603,6.189,6.217,6.2631,6.2899,6.2862,6.2559,6.2181,6.1731,6.1243,6.1168,6.1205,6.0868,6.0717,6.0492,6.0454,6.015,6.0103,6.0059,6.0236,6.0069,5.9836,5.9906,4.4111,4.5311,4.5699,4.5829,4.5867,4.588,4.5893,4.5893,4.5905,4.5929,4.5964,4.5986,4.6999,4.8555,4.869,4.9624,5.1084,5.119,5.1208,5.128,5.1477,5.1788,5.2121,5.2357,5.2915,5.3612,5.4373,5.4709,5.48,5.527,5.5508,5.5516,5.566,5.5703,5.5665,5.5703,5.5703,5.578,5.6049,5.6665,5.755,5.8335,5.9134,5.9791,6.0367,6.0567,6.0857,6.1476,6.1386,6.0638,6.0383,6.0203,5.9828,5.9688,5.9357,5.8756,5.8384,5.7636,5.6887,5.6469,5.5932,5.539,5.5265,5.5132,5.4966,5.492,5.492,5.492,5.492,5.492,5.4958,5.5223,5.583,5.6474,5.6247,5.6171,5.6664,5.6763,5.7232,5.7967,5.8635,5.9188,5.9522,6.0074,6.0293,6.037,6.0332,6.0599,6.0876,6.1315,6.1683,6.204,6.2439,6.28,6.3038,6.3423,6.3578,6.3578,6.3387,6.3122,6.2519,6.2031,6.1919,6.1844,6.1845,6.1732,6.1356,6.1131,6.1168,6.1014,6.0783,6.0736,6.0728,6.06,6.0633,4.3694,4.4583,4.5438,4.5786,4.58,4.5827,4.588,4.5893,4.5867,4.5893,4.5917,4.5964,4.6996,4.8599,4.8691,4.9596,5.1169,5.1219,5.1186,5.1372,5.1773,5.2253,5.245,5.3147,5.3802,5.4501,5.5201,5.5346,5.5322,5.5461,5.5485,5.5531,5.566,5.5703,5.5703,5.5703,5.5742,5.6049,5.6527,5.7373,5.8235,5.8957,5.9638,6.0316,6.0659,6.1172,6.1721,6.2281,6.226,6.1401,6.1288,6.0837,6.0165,5.9942,5.976,5.9432,5.8832,5.8309,5.8048,5.7404,5.6832,5.6252,5.6128,5.5813,5.5307,5.5185,5.5185,5.5223,5.5072,5.5223,5.5451,5.5943,5.6626,5.7308,5.7497,5.7535,5.7649,5.7635,5.797,5.8774,5.9041,5.9511,5.9989,6.0361,6.0446,6.0828,6.0828,6.1134,6.1573,6.2124,6.2452,6.2731,6.3204,6.3782,6.3982,6.4177,6.4219,6.4218,6.4103,6.3761,6.3008,6.2595,6.2332,6.2333,6.2709,6.2596,6.2108,6.1957,6.2034,6.1807,6.1464,6.1762,6.2022,6.1785,6.1662,4.3689,4.4577,4.5403,4.5712,4.5712,4.5765,4.5781,4.581,4.5824,4.5866,4.5906,4.5932,4.695,4.8599,4.8688,4.9565,5.1053,5.1208,5.1175,5.1244,5.1928,5.2601,5.3106,5.3937,5.4649,5.5215,5.5462,5.5531,5.5523,5.5508,5.5554,5.5615,5.5621,5.5703,5.5703,5.578,5.6088,5.6626,5.6906,5.7766,5.8842,5.9281,5.9805,6.0545,6.1114,6.2069,6.3099,6.3492,6.3427,6.2989,6.2463,6.1822,6.1027,6.0732,6.0399,5.9839,5.9432,5.8945,5.8452,5.8185,5.7804,5.7111,5.6986,5.6746,5.6057,5.5906,5.5906,5.5906,5.5943,5.6171,5.6702,5.6967,5.7535,5.8142,5.8407,5.8635,5.9051,5.878,5.8894,5.9419,5.9709,5.9916,6.0235,6.037,6.0657,6.1144,6.1488,6.1755,6.2269,6.2864,6.3182,6.346,6.3854,6.4355,6.4471,6.4668,6.4822,6.4973,6.4896,6.4815,6.4101,6.3686,6.3648,6.3723,6.3834,6.3458,6.2857,6.2782,6.2823,6.2485,6.2258,6.2482,6.2667,6.2621,6.2576,4.3397,4.3975,4.5163,4.568,4.568,4.568,4.5735,4.5765,4.5781,4.581,4.5852,4.588,4.6913,4.8526,4.8654,4.9571,5.0875,5.1225,5.1385,5.1773,5.2535,5.3298,5.3955,5.4728,5.5401,5.5643,5.5638,5.5593,5.5554,5.5593,5.5615,5.5615,5.5682,5.5703,5.5818,5.6088,5.6489,5.7043,5.7766,5.8549,5.9229,5.9728,6.0223,6.1152,6.2118,6.3223,6.3791,6.4324,6.4377,6.4127,6.3789,6.2993,6.1856,6.133,6.0808,6.0399,5.9874,5.9505,5.9087,5.8971,5.8703,5.7937,5.7959,5.7497,5.7005,5.6739,5.6777,5.6777,5.6815,5.7081,5.7876,5.799,5.8407,5.9014,5.9241,5.943,5.9696,5.9506,5.9355,5.9842,5.9906,6.0007,6.0144,6.051,6.0883,6.1476,6.2018,6.2323,6.294,6.3524,6.3878,6.4191,6.4579,6.4813,6.4891,6.5082,6.5351,6.5615,6.5879,6.5875,6.5645,6.5419,6.5229,6.4925,6.4472,6.4172,6.3683,6.3646,6.3573,6.3462,6.3352,6.3313,6.3423,6.3646,6.3489,4.3069,4.3239,4.4922,4.5648,4.5648,4.5648,4.5687,4.5703,4.575,4.5765,4.5795,4.5852,4.6861,4.8231,4.8541,4.9574,5.0802,5.1229,5.1464,5.2239,5.3025,5.3785,5.4514,5.5268,5.573,5.5703,5.566,5.5599,5.5599,5.5599,5.5638,5.5599,5.5682,5.5857,5.6088,5.6588,5.7181,5.7651,5.8587,5.9306,5.9677,6.0288,6.1075,6.2233,6.3159,6.4016,6.4311,6.4742,6.5057,6.4924,6.4888,6.413,6.3031,6.2008,6.133,6.1262,6.0509,6.0059,5.9874,5.9757,5.9412,5.8765,5.883,5.8445,5.7839,5.7573,5.7611,5.7687,5.7801,5.8142,5.8786,5.8862,5.9203,5.9658,5.9847,5.9885,5.9923,5.9961,6.0075,5.9918,6.0178,6.0393,6.0653,6.1019,6.14,6.1811,6.242,6.2998,6.3644,6.4068,6.4381,6.4537,6.481,6.5229,6.5345,6.5914,6.6181,6.6296,6.6635,6.6747,6.6819,6.644,6.5986,6.5301,6.4885,6.4622,6.4397,6.4172,6.4212,6.4362,6.4292,6.403,6.4292,6.4743,6.4325,4.2946,4.3081,4.4747,4.5457,4.5457,4.5457,4.5512,4.5603,4.5637,4.5687,4.5781,4.5834,4.682,4.8139,4.8503,4.9562,5.0829,5.1166,5.1567,5.2419,5.3189,5.3923,5.4805,5.5499,5.5807,5.5724,5.5682,5.5682,5.5682,5.5682,5.5682,5.5682,5.578,5.6049,5.6588,5.7049,5.7835,5.8549,5.9254,5.9677,6.0353,6.119,6.2156,6.3388,6.4076,6.4474,6.4908,6.5079,6.5128,6.4989,6.4924,6.4699,6.4244,6.3524,6.2845,6.2125,6.13,6.0808,6.0653,6.0165,5.9862,5.9663,5.962,5.9279,5.871,5.8445,5.8445,5.8597,5.8976,5.9468,5.9658,5.9582,5.9696,5.9885,5.9961,5.9999,6.0075,6.0454,6.0681,6.0378,6.0671,6.1007,6.131,6.1723,6.2254,6.2743,6.327,6.3769,6.4305,6.4571,6.4727,6.4845,6.4888,6.5381,6.58,6.6595,6.7126,6.7089,6.7316,6.7392,6.7352,6.7086,6.663,6.6475,6.5865,6.5414,6.511,6.4847,6.4662,6.4742,6.4708,6.4671,6.4708,6.4781,6.4853,4.2872,4.3044,4.4691,4.54,4.54,4.54,4.5438,4.5514,4.5568,4.5637,4.5687,4.5812,4.6761,4.8058,4.8435,4.9459,5.0739,5.1102,5.176,5.2778,5.3367,5.4177,5.5133,5.575,5.5768,5.5724,5.5703,5.5703,5.5703,5.5703,5.5742,5.5818,5.6088,5.6588,5.7126,5.7934,5.8543,5.9369,5.9741,6.0303,6.1114,6.2233,6.3427,6.3962,6.4611,6.5001,6.5175,6.5264,6.5128,6.5027,6.4924,6.4926,6.4813,6.4509,6.3903,6.3107,6.2239,6.1485,6.1212,6.0648,6.0345,5.9923,5.9923,5.9734,5.943,5.9317,5.9279,5.9393,5.9506,5.9885,5.9847,5.9923,5.9885,5.9961,6.0264,6.0492,6.0719,6.1326,6.1363,6.1174,6.1586,6.1923,6.1966,6.2459,6.3141,6.3668,6.412,6.4499,6.4882,6.492,6.4958,6.5227,6.5381,6.6103,6.6671,6.7428,6.7996,6.7997,6.8073,6.8148,6.83,6.8185,6.8296,6.8289,6.7529,6.651,6.6128,6.5981,6.557,6.5195,6.5351,6.5313,6.4934,6.4817,6.5042,4.2774,4.2908,4.4612,4.5341,4.5341,4.5361,4.5361,4.5438,4.5514,4.5568,4.5603,4.5748,4.6677,4.8129,4.8933,4.979,5.1062,5.1087,5.1964,5.3174,5.3491,5.4315,5.5499,5.5885,5.5825,5.5724,5.5703,5.5703,5.5742,5.5972,5.5972,5.628,5.6857,5.7396,5.7857,5.8742,5.9341,5.9805,6.0201,6.0928,6.2041,6.3312,6.4305,6.4496,6.5222,6.565,6.5703,6.5874,6.5884,6.5745,6.5603,6.5495,6.5381,6.5229,6.4813,6.4092,6.3183,6.2349,6.1856,6.1401,6.106,6.0378,6.0189,6.0075,5.9847,5.9772,5.9809,5.9885,5.9885,5.9885,5.9923,6.0075,6.0151,6.034,6.0871,6.1401,6.1591,6.2008,6.2501,6.2538,6.2762,6.28,6.2842,6.3296,6.4013,6.4089,6.4541,6.4617,6.4924,6.4924,6.5075,6.5568,6.6025,6.6899,6.7618,6.8337,6.8754,6.8868,6.902,6.9209,6.936,6.9473,6.947,6.924,6.8709,6.7723,6.7457,6.6924,6.644,6.6181,6.622,6.6144,6.5991,6.5762,6.58,4.2612,4.2764,4.4424,4.5148,4.5132,4.5213,4.5256,4.5319,4.538,4.5477,4.5607,4.5757,4.6711,4.8321,4.9946,5.0681,5.0981,5.1252,5.2012,5.3298,5.3597,5.4378,5.5712,5.5807,5.5766,5.5763,5.5742,5.5703,5.5934,5.6472,5.6819,5.7011,5.7703,5.8434,5.8896,5.9435,5.9826,6.0342,6.0585,6.1349,6.2653,6.3762,6.4535,6.5299,6.5987,6.6522,6.6536,6.6859,6.7102,6.7182,6.7081,6.7049,6.6973,6.6367,6.6025,6.5381,6.4509,6.341,6.3107,6.2576,6.1856,6.1174,6.0984,6.0568,6.0226,5.9961,5.9923,5.9885,5.9961,6.0113,6.0302,6.0605,6.0833,6.1212,6.1705,6.2122,6.2387,6.2955,6.341,6.36,6.3676,6.3638,6.3638,6.4244,6.4775,6.4813,6.485,6.4888,6.5002,6.5078,6.5684,6.6329,6.6897,6.7731,6.83,6.9096,6.9285,6.9512,6.9702,6.9891,6.9853,6.9777,6.9777,6.9472,6.9092,6.8826,6.8371,6.7841,6.7276,6.7089,6.7089,6.7127,6.7164,6.6973,6.6556,4.2503,4.2699,4.4379,4.5103,4.5103,4.5148,4.5192,4.5235,4.5298,4.5418,4.563,4.6108,4.7296,4.8964,5.0361,5.0929,5.1076,5.144,5.2276,5.3365,5.3911,5.4746,5.5557,5.5807,5.5766,5.584,5.6165,5.6472,5.6588,5.6819,5.7165,5.7857,5.855,5.9088,5.9627,6.0012,6.0325,6.0802,6.1425,6.248,6.3532,6.4458,6.5261,6.6101,6.6522,6.6942,6.7369,6.7507,6.7673,6.7639,6.7498,6.739,6.7314,6.6973,6.6668,6.6025,6.5492,6.462,6.3713,6.3296,6.2652,6.2084,6.178,6.1477,6.0719,6.0226,6.0226,6.0568,6.0568,6.0757,6.1136,6.1629,6.1743,6.2046,6.2576,6.288,6.3259,6.3903,6.4396,6.4509,6.4585,6.4396,6.4282,6.4547,6.485,6.4888,6.4888,6.4926,6.5192,6.5457,6.6367,6.754,6.8034,6.8603,6.9096,6.9626,6.9626,6.9778,6.9816,6.9929,6.9891,6.9891,7.0081,7.0005,6.9663,6.9398,6.9169,6.8867,6.8412,6.8186,6.796,6.7959,6.7883,6.739,6.7049,4.2739,4.2936,4.4425,4.5057,4.5057,4.508,4.5103,4.5148,4.5235,4.5337,4.5666,4.657,4.8029,4.9412,5.0349,5.0846,5.0941,5.1785,5.2597,5.3412,5.4244,5.4998,5.5576,5.5787,5.5745,5.5703,5.6511,5.7011,5.7341,5.7649,5.8149,5.8649,5.9457,5.9804,6.0035,6.0396,6.0786,6.1083,6.2432,6.3418,6.4191,6.5222,6.5987,6.6636,6.7133,6.7591,6.8095,6.8422,6.8396,6.8399,6.8296,6.8262,6.8186,6.7919,6.7502,6.6973,6.6554,6.5758,6.4775,6.4092,6.3524,6.2955,6.2425,6.2008,6.1548,6.0795,6.0681,6.1435,6.1439,6.178,6.2235,6.2501,6.269,6.2955,6.3448,6.3713,6.3979,6.4434,6.4699,6.4737,6.4775,6.4848,6.4772,6.4848,6.4924,6.4926,6.4926,6.504,6.5495,6.6063,6.7011,6.8261,6.8754,6.9171,6.9512,6.9891,6.9967,7.0157,7.0195,7.0422,7.0612,7.0725,7.0953,7.0687,7.0384,7.0574,7.0686,7.0155,6.9587,6.9209,6.8868,6.8603,6.8375,6.7958,6.7693,4.3625,4.3701,4.4559,4.4938,4.4938,4.4986,4.5033,4.5057,4.5148,4.5311,4.5816,4.7126,4.8452,4.949,5.0316,5.0738,5.0829,5.1699,5.2605,5.3397,5.4169,5.5075,5.5535,5.5745,5.5763,5.5857,5.6742,5.755,5.8226,5.8924,5.9271,5.9617,6.0195,6.0619,6.0673,6.0704,6.1132,6.1658,6.2978,6.3838,6.4573,6.5566,6.6567,6.7056,6.8126,6.9082,6.9158,6.9527,6.969,6.969,6.9473,6.9361,6.9171,6.8792,6.8375,6.7958,6.754,6.6782,6.5912,6.5116,6.4396,6.3638,6.2955,6.2501,6.2307,6.2235,6.2235,6.2231,6.2273,6.2425,6.2728,6.3031,6.3486,6.3713,6.4055,6.432,6.4509,6.4623,6.485,6.4888,6.4961,6.5034,6.5297,6.5407,6.5373,6.541,6.5755,6.5869,6.6592,6.7199,6.7919,6.8792,6.9323,6.9702,6.9854,7.0119,7.0422,7.0839,7.1029,7.1445,7.1824,7.19,7.1635,7.1711,7.1521,7.1862,7.1976,7.1141,7.0497,7.0043,6.9664,6.9285,6.9096,6.883,6.8603,4.3966,4.4459,4.4762,4.4876,4.4914,4.4938,4.4986,4.501,4.5057,4.5818,4.6827,4.7677,4.8777,4.9912,5.0356,5.0682,5.0969,5.2278,5.2877,5.3668,5.4554,5.5381,5.5707,5.5724,5.5703,5.6049,5.7049,5.7896,5.8357,5.9678,6.0299,6.0608,6.0779,6.0834,6.0888,6.0873,6.1211,6.1927,6.2863,6.3579,6.4535,6.5834,6.6949,6.7553,6.847,6.9464,6.9851,7.0099,7.0182,7.0149,7.0004,6.9929,6.9891,6.9475,6.9133,6.8754,6.8299,6.7731,6.6935,6.6101,6.5305,6.4471,6.3676,6.3145,6.3103,6.2766,6.2804,6.288,6.3145,6.3259,6.3979,6.4206,6.4434,6.4509,6.4623,6.485,6.504,6.5078,6.5265,6.5417,6.5335,6.5255,6.5555,6.5927,6.5893,6.5931,6.6353,6.6812,6.7498,6.8108,6.8715,6.9209,6.9778,7.0233,7.0384,7.0649,7.0953,7.1408,7.19,7.2279,7.2658,7.2355,7.2166,7.2355,7.2545,7.2583,7.2355,7.1862,7.1332,7.0839,7.0308,6.9778,6.9664,6.9588,6.9361,4.4383,4.4876,4.4876,4.4876,4.4876,4.4876,4.4938,4.4986,4.501,4.6054,4.7739,4.8133,4.9077,5.0235,5.0545,5.0586,5.1087,5.2242,5.2974,5.38,5.4703,5.5528,5.5682,5.5698,5.5835,5.6335,5.7396,5.8357,5.8819,6.0278,6.0723,6.0877,6.0933,6.0911,6.0927,6.1017,6.1352,6.2169,6.2901,6.3923,6.4993,6.63,6.7483,6.8279,6.9196,6.9769,7.0157,7.0251,7.0185,7.0114,7.0041,6.9929,6.9891,6.9816,6.955,6.9209,6.8868,6.8565,6.7769,6.6708,6.5912,6.5229,6.4471,6.4092,6.3827,6.3448,6.3676,6.3903,6.4017,6.4244,6.4926,6.4813,6.4775,6.4737,6.4737,6.4964,6.5305,6.5495,6.5755,6.598,6.5939,6.6163,6.6641,6.7055,6.7059,6.7102,6.741,6.7832,6.825,6.8787,6.9283,6.9739,7.0157,7.0612,7.0953,7.1332,7.1749,7.2393,7.281,7.3037,7.3227,7.2962,7.3075,7.3492,7.353,7.3227,7.3037,7.2886,7.2317,7.1635,7.1029,7.0384,7.0195,7.0119,6.9891,4.4876,4.4876,4.4876,4.4876,4.4876,4.4876,4.4914,4.509,4.5214,4.6221,4.7823,4.8624,4.9494,5.0281,5.0462,5.056,5.1041,5.2308,5.3114,5.3612,5.4786,5.5431,5.557,5.5631,5.5983,5.6906,5.7812,5.8642,5.9358,6.0388,6.0834,6.0911,6.0911,6.0911,6.1032,6.1478,6.2157,6.2974,6.3628,6.4832,6.6063,6.7178,6.8279,6.8929,6.9731,7.0266,7.0348,7.0289,7.0261,7.0378,7.0232,7.0119,7.0081,7.0081,6.9929,6.974,6.974,6.9361,6.8603,6.7049,6.6367,6.6063,6.5343,6.4888,6.485,6.4737,6.4547,6.4547,6.4699,6.4813,6.4964,6.5002,6.504,6.5305,6.5381,6.5495,6.5912,6.6137,6.6435,6.6619,6.7075,6.7528,6.7964,6.8297,6.8341,6.8422,6.8621,6.8853,6.9119,6.9389,6.9847,7.027,7.065,7.1257,7.1673,7.209,7.2583,7.3227,7.3644,7.3871,7.4099,7.4136,7.4326,7.4629,7.444,7.4061,7.4061,7.4136,7.3454,7.2734,7.1711,7.1066,7.0877,7.0764,7.0688,4.4876,4.4876,4.4876,4.4876,4.4876,4.4914,4.5217,4.5811,4.6478,4.7424,4.8348,4.8961,4.9564,5.0183,5.0451,5.0725,5.1437,5.2302,5.3146,5.3989,5.5025,5.537,5.5523,5.5623,5.603,5.6921,5.7789,5.8696,5.9473,6.0442,6.0834,6.0911,6.0911,6.0888,6.0843,6.1044,6.139,6.2322,6.3437,6.4764,6.5948,6.7668,6.889,6.9234,7.0037,7.0419,7.0462,7.0369,7.0527,7.0872,7.0801,7.0687,7.0687,7.0687,7.046,7.0119,6.9929,6.9816,6.9285,6.8375,6.7542,6.6973,6.6253,6.5722,6.572,6.5154,6.5002,6.5002,6.5154,6.5305,6.5571,6.5722,6.5912,6.6556,6.6746,6.6746,6.6935,6.7007,6.7192,6.7334,6.7635,6.8236,6.875,6.9126,6.9246,6.9475,6.9599,6.9641,6.9832,6.9988,7.0296,7.0723,7.1181,7.1864,7.2432,7.2886,7.3378,7.4023,7.4364,7.4553,7.4781,7.4895,7.4857,7.4743,7.4819,7.4857,7.4705,7.4516,7.4478,7.3871,7.2848,7.209,7.1862,7.1863,7.1902,4.4889,4.4914,4.5217,4.5331,4.5331,4.5369,4.5824,4.6683,4.7642,4.8376,4.8895,4.932,4.9809,5.0252,5.0428,5.0849,5.1698,5.2541,5.3383,5.4264,5.5068,5.5375,5.5451,5.5552,5.629,5.7105,5.792,5.875,6.0012,6.0596,6.0827,6.0866,6.0888,6.0866,6.0873,6.1006,6.1543,6.2602,6.3896,6.5337,6.6636,6.8012,6.9273,6.9693,7.0151,7.0501,7.0696,7.0823,7.0948,7.1482,7.1636,7.1521,7.1521,7.1445,7.1256,7.0877,7.046,7.027,6.974,6.9437,6.8716,6.8375,6.7238,6.663,6.6516,6.6177,6.5988,6.5912,6.5722,6.6025,6.6404,6.6556,6.6821,6.7466,6.7504,6.7504,6.7844,6.788,6.8177,6.8282,6.8536,6.906,6.9393,6.9775,7.0119,7.0348,7.0648,7.0615,7.0548,7.0705,7.0937,7.1365,7.194,7.2661,7.3268,7.3759,7.425,7.4819,7.497,7.5008,7.4895,7.4895,7.4895,7.4932,7.497,7.5008,7.4932,7.4819,7.4781,7.4591,7.4023,7.3378,7.2924,7.2813,7.2776,4.484,4.5066,4.5824,4.6165,4.6241,4.6316,4.6771,4.7517,4.8517,4.8947,4.9023,4.993,5.0245,5.0283,5.0359,5.0932,5.1835,5.2638,5.3479,5.4243,5.5123,5.5314,5.539,5.5479,5.6409,5.7479,5.8333,5.8995,6.055,6.0766,6.0804,6.0843,6.0804,6.0781,6.0926,6.1697,6.2349,6.3368,6.4661,6.6208,6.7668,6.8776,6.9655,7.008,7.0501,7.0887,7.1201,7.1439,7.1863,7.2244,7.2471,7.2432,7.2432,7.2432,7.2432,7.2129,7.1484,7.0839,7.0195,6.9967,6.9778,6.9323,6.8375,6.7768,6.7351,6.7125,6.6859,6.6897,6.6859,6.7125,6.739,6.7428,6.7504,6.7731,6.7807,6.8072,6.8564,6.8903,6.9241,6.95,6.9794,7.009,7.0119,7.0419,7.0877,7.0992,7.1221,7.145,7.1455,7.1574,7.1773,7.2157,7.2773,7.3536,7.4066,7.4366,7.4516,7.4895,7.516,7.5274,7.5084,7.5236,7.5577,7.569,7.5274,7.5236,7.5615,7.5463,7.5084,7.4857,7.4705,7.4328,7.3759,7.3383,7.3307,4.518,4.5748,4.6064,4.6544,4.7112,4.7719,4.8136,4.8427,4.9353,4.9746,4.9784,5.0159,5.0397,5.0359,5.0971,5.1697,5.2499,5.3339,5.4218,5.4868,5.525,5.5365,5.5403,5.5505,5.655,5.7506,5.8322,5.901,6.0388,6.0757,6.0781,6.0781,6.0781,6.0757,6.1516,6.2643,6.3461,6.4441,6.5741,6.7164,6.847,6.9464,7.0042,7.0429,7.0815,7.1239,7.1591,7.2052,7.2586,7.3231,7.3266,7.3265,7.3266,7.3227,7.3113,7.247,7.2014,7.1673,7.0953,7.0763,7.0536,7.0119,6.9399,6.8868,6.8375,6.7883,6.7617,6.7731,6.7807,6.7921,6.8186,6.83,6.8451,6.8641,6.8716,6.9019,6.9436,6.9737,7.0149,7.0484,7.0743,7.0849,7.0877,7.1145,7.1527,7.1642,7.1833,7.2138,7.2329,7.2487,7.2605,7.2955,7.3419,7.4106,7.4485,7.4824,7.4859,7.4932,7.5387,7.5766,7.588,7.6107,7.6486,7.6486,7.6221,7.6373,7.6752,7.6411,7.5804,7.5539,7.5311,7.4973,7.4596,7.4258,7.4068,4.5531,4.6138,4.6909,4.7617,4.8401,4.8932,4.9159,4.9299,4.9848,5.0127,5.0165,5.0617,5.0818,5.0971,5.1697,5.2499,5.3301,5.376,5.4486,5.5135,5.5403,5.5403,5.5403,5.5556,5.6486,5.7456,5.8336,5.8985,6.0325,6.0757,6.0781,6.0781,6.0781,6.1195,6.2068,6.3449,6.4852,6.5944,6.708,6.8196,6.9043,6.9737,7.009,7.0705,7.1166,7.1439,7.228,7.2852,7.3421,7.4104,7.4136,7.4136,7.4099,7.4099,7.372,7.3113,7.2848,7.2393,7.1824,7.1635,7.1142,7.0649,7.0346,6.9891,6.9361,6.883,6.8679,6.8641,6.8565,6.8603,6.8868,6.9171,6.9475,6.974,6.9891,7.0043,7.0308,7.057,7.0944,7.1281,7.1464,7.157,7.1718,7.2024,7.2253,7.2444,7.2788,7.3208,7.3323,7.3399,7.3479,7.3674,7.4139,7.4638,7.4942,7.5281,7.5428,7.5653,7.6221,7.6562,7.6714,7.6865,7.7093,7.7207,7.7244,7.7396,7.7472,7.7093,7.66,7.6373,7.6145,7.5962,7.5586,7.5056,7.4943,4.5998,4.6479,4.8029,4.9067,4.9803,4.9841,4.9879,5.002,5.0228,5.0241,5.0418,5.1166,5.1582,5.1811,5.2537,5.3263,5.3836,5.4256,5.4715,5.5403,5.5403,5.5403,5.5441,5.567,5.6804,5.7685,5.8527,5.9459,6.0339,6.0757,6.0781,6.0819,6.095,6.1541,6.281,6.4266,6.5714,6.7187,6.8119,6.9005,6.9088,6.9437,6.9866,7.0976,7.121,7.1443,7.3118,7.3914,7.4218,7.467,7.4857,7.4819,7.4781,7.4743,7.4288,7.4023,7.3757,7.3227,7.2734,7.2469,7.1976,7.1521,7.118,7.0877,7.046,6.9626,6.9361,6.9323,6.9247,6.9475,6.9778,6.9967,7.0233,7.0574,7.0801,7.0991,7.1219,7.1519,7.1776,7.2113,7.2261,7.2329,7.2444,7.2711,7.3055,7.3246,7.3705,7.424,7.4278,7.4278,7.4354,7.4434,7.4671,7.5056,7.5399,7.5738,7.6035,7.6411,7.7017,7.7358,7.751,7.7586,7.7661,7.7965,7.8306,7.8002,7.7889,7.7661,7.751,7.7358,7.721,7.7027,7.6576,7.6008,7.5551,4.6591,4.7947,4.9105,4.9728,4.9879,4.9879,5.0296,5.0865,5.1026,5.1078,5.1142,5.1509,5.2002,5.2614,5.3416,5.4027,5.418,5.4715,5.5135,5.5326,5.5403,5.5517,5.5747,5.6549,5.7416,5.8207,5.9102,6.0009,6.0545,6.0734,6.0819,6.0935,6.131,6.2311,6.3564,6.5053,6.6834,6.8112,6.8731,6.9158,6.9202,6.9709,7.0328,7.0944,7.114,7.2282,7.3647,7.4328,7.4594,7.4895,7.4895,7.4895,7.4895,7.4895,7.4819,7.4629,7.4478,7.4023,7.3606,7.3265,7.2886,7.2393,7.2052,7.1976,7.1483,7.0498,6.9967,6.9967,7.0081,7.0422,7.0649,7.0801,7.0991,7.1332,7.1673,7.1902,7.2168,7.2469,7.2688,7.291,7.3059,7.3208,7.3284,7.3476,7.3781,7.424,7.4775,7.5157,7.508,7.5042,7.5119,7.516,7.5089,7.5398,7.5818,7.6386,7.6837,7.7286,7.7813,7.8078,7.8306,7.8533,7.8723,7.914,7.9367,7.8988,7.8647,7.8571,7.8419,7.8306,7.8083,7.7783,7.7602,7.715,7.6388,4.7475,4.8485,4.9484,4.9879,4.9955,5.0296,5.0751,5.1233,5.1711,5.217,5.2475,5.2654,5.2957,5.3492,5.4295,5.4639,5.4715,5.5135,5.5326,5.5365,5.5517,5.5708,5.6358,5.739,5.7963,5.8716,5.9726,6.0494,6.0674,6.0699,6.08,6.1261,6.2081,6.3257,6.4555,6.6489,6.7692,6.847,6.8967,6.9088,6.9093,6.9523,7.022,7.0722,7.1826,7.2963,7.3987,7.4667,7.4781,7.4895,7.4895,7.4895,7.4895,7.4895,7.4895,7.4857,7.4781,7.4667,7.4288,7.4023,7.3757,7.3227,7.2924,7.2848,7.2203,7.1332,7.1294,7.1294,7.1255,7.152,7.1597,7.1749,7.1787,7.2014,7.2205,7.2357,7.3079,7.3758,7.4056,7.4281,7.4393,7.4431,7.4507,7.4545,7.4775,7.4813,7.5424,7.5462,7.5462,7.5653,7.5768,7.5959,7.5964,7.5968,7.6237,7.6997,7.7789,7.82,7.8614,7.8874,7.914,7.9519,7.986,7.9822,7.9822,7.9746,7.9481,7.9253,7.9253,7.9177,7.8879,7.858,7.84,7.8216,7.7646,4.8348,4.8664,4.9522,4.9879,5.0031,5.0827,5.1282,5.1537,5.233,5.3248,5.3922,5.4104,5.4231,5.4562,5.4982,5.525,5.5403,5.5365,5.5403,5.5632,5.567,5.6358,5.7237,5.8077,5.9109,5.9671,6.0338,6.0545,6.0597,6.0815,6.1301,6.1927,6.3165,6.4517,6.6374,6.7684,6.8495,6.8808,6.9043,6.8979,6.8989,6.9116,7.0149,7.118,7.2243,7.3341,7.4402,7.4895,7.4895,7.4895,7.4895,7.4895,7.4895,7.4895,7.4895,7.4895,7.4895,7.4857,7.4781,7.4705,7.4364,7.3985,7.3833,7.3454,7.2848,7.2696,7.2658,7.262,7.2581,7.2429,7.2467,7.2543,7.2583,7.2811,7.2964,7.3079,7.3991,7.4822,7.5083,7.5348,7.5348,7.5348,7.5386,7.5424,7.5462,7.5501,7.5501,7.5501,7.5577,7.5921,7.6112,7.6647,7.6993,7.6958,7.7074,7.757,7.8517,7.8887,7.9301,7.9637,7.9898,7.9898,7.9898,7.9898,7.9898,7.9898,7.9898,7.967,7.9784,7.9784,7.9519,7.9187,7.9239,7.9055,7.8866,4.8708,4.9446,4.9765,4.9879,5.0031,5.0827,5.1585,5.2267,5.3148,5.4068,5.4645,5.4928,5.5045,5.5174,5.5288,5.5441,5.5594,5.5556,5.5938,5.6282,5.6358,5.7351,5.8498,5.9606,6.1172,6.1392,6.0999,6.0556,6.0889,6.1299,6.1697,6.2092,6.4259,6.5609,6.6719,6.7921,6.8884,6.8967,6.8706,6.8597,6.9264,6.9766,7.0836,7.194,7.3001,7.3909,7.4629,7.4857,7.4895,7.4895,7.4895,7.4895,7.4895,7.4895,7.4895,7.4895,7.4895,7.4895,7.4895,7.4895,7.4553,7.4553,7.444,7.444,7.4099,7.4136,7.4023,7.3871,7.3679,7.3149,7.3111,7.33,7.3454,7.4027,7.4294,7.441,7.4904,7.5203,7.5386,7.5462,7.5462,7.5462,7.5462,7.5462,7.5462,7.5501,7.5501,7.5539,7.5768,7.6112,7.6494,7.722,7.7871,7.8407,7.8675,7.8561,7.9169,7.9543,7.9798,7.987,7.9903,7.9898,7.9898,7.9898,7.9898,7.9898,7.9898,7.9898,7.986,7.986,7.986,7.9794,7.9847,7.9816,7.9552]},{"header":{"parameterUnit":"m.s-1","parameterCategory":1,"la1":31.0,"la2":29.5877,"lo1":-88.7671,"lo2":-86.6584,"dy":0.0162,"dx":0.0185,"nx":115,"ny":88,"refTime":"2024-03-28T06:00:00:Z","depth":0,"parameterNumber":3,"parameterNumberName":"V-component_of_WINDS"},"data":[0.0,0.0,0.0,0.0,0.0,0.0,0.0,0.0,0.0,0.0,0.0,0.0,0.0,0.0,0.0,0.0,0.0,0.0,0.0,0.0,0.0,0.0,0.0,0.0,0.0,0.0,0.0,0.0,0.0,0.0,0.0,0.0,0.0,0.0,0.0,0.0,0.0,0.0,0.0,0.0,0.0,0.0,0.0,0.0,0.0,0.0,0.0,0.0,0.0,0.0,0.0,0.0,0.0,0.0,0.0,0.0,0.0,0.0,0.0,0.0,0.0,0.0,0.0,0.0,0.0,0.0,0.0,0.0,0.0,0.0,0.0,0.0,0.0,0.0,0.0,0.0,0.0,0.0,0.0,0.0,0.0,0.0,0.0,0.0,0.0,0.0,0.0,0.0,0.0,0.0,0.0,0.0,0.0,0.0,0.0,0.0,0.0,0.0,0.0,0.0,0.0,0.0,0.0,0.0,0.0,0.0,0.0,0.0,0.0,0.0,0.0,0.0,0.0,0.0,0.0,0.0,0.0,0.0,0.0,0.0,0.0,0.0,0.0,0.0,0.0,0.0,0.0,0.0,0.0,0.0,0.0,0.0,0.0,0.0,0.0,0.0,0.0,0.0,0.0,0.0,0.0,0.0,0.0,0.0,0.0,0.0,0.0,0.0,0.0,0.0,0.0,0.0,0.0,0.0,0.0,0.0,0.0,0.0,0.0,0.0,0.0,0.0,0.0,0.0,0.0,0.0,0.0,0.0,0.0,0.0,0.0,0.0,0.0,0.0,0.0,0.0,0.0,0.0,0.0,0.0,0.0,0.0,0.0,0.0,0.0,0.0,0.0,0.0,0.0,0.0,0.0,0.0,0.0,0.0,0.0,0.0,0.0,0.0,0.0,0.0,0.0,0.0,0.0,0.0,0.0,0.0,0.0,0.0,0.0,0.0,0.0,0.0,0.0,0.0,0.0,0.0,0.0,0.0,0.0,0.0,0.0,0.0,0.0,0.0,0.0,0.0,0.0,0.0,0.0,0.0,0.0,0.0,0.0,0.0,0.0,0.0,0.0,0.0,0.0,0.0,0.0,0.0,0.0,0.0,0.0,0.0,0.0,0.0,0.0,0.0,0.0,0.0,0.0,0.0,0.0,0.0,0.0,0.0,0.0,0.0,0.0,0.0,0.0,0.0,0.0,0.0,0.0,0.0,0.0,0.0,0.0,0.0,0.0,0.0,0.0,0.0,0.0,0.0,0.0,0.0,0.0,0.0,0.0,0.0,0.0,0.0,0.0,0.0,0.0,0.0,0.0,0.0,0.0,0.0,0.0,0.0,0.0,0.0,0.0,0.0,0.0,0.0,0.0,0.0,0.0,0.0,0.0,0.0,0.0,0.0,0.0,0.0,0.0,0.0,0.0,0.0,0.0,0.0,0.0,0.0,0.0,0.0,0.0,0.0,0.0,0.0,0.0,0.0,0.0,0.0,0.0,0.0,0.0,0.0,0.0,0.0,0.0,0.0,0.0,0.0,0.0,0.0,0.0,0.0,0.0,0.0,0.0,0.0,0.0,0.0,0.0,0.0,0.0,0.0,0.0,0.0,0.0,0.0,0.0,0.0,0.0,0.0,0.0,0.0,0.0,0.0,0.0,0.0,0.0,0.0,0.0,0.0,0.0,0.0,0.0,0.0,0.0,0.0,0.0,0.0,0.0,0.0,0.0,0.0,0.0,0.0,0.0,0.0,0.0,0.0,0.0,0.0,0.0,0.0,0.0,0.0,0.0,0.0,0.0,0.0,0.0,0.0,0.0,0.0,0.0,0.0,0.0,0.0,0.0,0.0,0.0,0.0,0.0,0.0,0.0,0.0,0.0,0.0,0.0,0.0,0.0,0.0,0.0,0.0,0.0,0.0,0.0,0.0,0.0,0.0,0.0,0.0,0.0,0.0,0.0,0.0,0.0,0.0,0.0,0.0,0.0,0.0,0.0,0.0,0.0,0.0,0.0,0.0,0.0,0.0,0.0,0.0,0.0,0.0,0.0,0.0,0.0,0.0,0.0,0.0,0.0,0.0,0.0,0.0,0.0,0.0,0.0,0.0,0.0,0.0,0.0,0.0,0.0,0.0,0.0,0.0,0.0,0.0,0.0,0.0,0.0,0.0,0.0,0.0,0.0,0.0,0.0,0.0,0.0,0.0,0.0,0.0,0.0,0.0,0.0,0.0,0.0,0.0,0.0,0.0,0.0,0.0,0.0,0.0,0.0,0.0,0.0,0.0,0.0,0.0,0.0,0.0,0.0,0.0,0.0,0.0,0.0,0.0,0.0,0.0,0.0,0.0,0.0,0.0,0.0,0.0,0.0,0.0,0.0,0.0,0.0,0.0,0.0,0.0,0.0,0.0,0.0,0.0,0.0,0.0,0.0,0.0,0.0,0.0,0.0,0.0,0.0,0.0,0.0,0.0,0.0,0.0,0.0,0.0,0.0,0.0,0.0,0.0,0.0,0.0,0.0,0.0,0.0,0.0,0.0,0.0,0.0,0.0,0.0,0.0,0.0,0.0,0.0,0.0,0.0,0.0,0.0,0.0,0.0,0.0,0.0,0.0,0.0,0.0,0.0,0.0,0.0,0.0,0.0,0.0,0.0,0.0,0.0,0.0,0.0,0.0,0.0,0.0,0.0,0.0,0.0,0.0,0.0,0.0,0.0,0.0,0.0,0.0,0.0,0.0,0.0,0.0,0.0,0.0,0.0,0.0,0.0,0.0,0.0,0.0,0.0,0.0,0.0,0.0,0.0,0.0,0.0,0.0,0.0,0.0,0.0,0.0,0.0,0.0,0.0,0.0,0.0,0.0,0.0,0.0,0.0,0.0,0.0,0.0,0.0,0.0,0.0,0.0,0.0,0.0,0.0,0.0,0.0,0.0,0.0,0.0,0.0,0.0,0.0,0.0,0.0,0.0,0.0,0.0,0.0,0.0,0.0,0.0,0.0,0.0,0.0,0.0,0.0,0.0,0.0,0.0,0.0,0.0,0.0,0.0,0.0,0.0,0.0,0.0,0.0,0.0,0.0,0.0,0.0,0.0,0.0,0.0,0.0,0.0,0.0,0.0,0.0,0.0,0.0,0.0,0.0,0.0,0.0,0.0,0.0,0.0,0.0,0.0,0.0,0.0,0.0,0.0,0.0,0.0,0.0,0.0,0.0,0.0,0.0,0.0,0.0,0.0,0.0,0.0,0.0,0.0,0.0,0.0,0.0,0.0,0.0,0.0,0.0,0.0,0.0,0.0,0.0,0.0,0.0,0.0,0.0,0.0,0.0,0.0,0.0,0.0,0.0,0.0,0.0,0.0,0.0,0.0,0.0,0.0,0.0,0.0,0.0,0.0,0.0,0.0,0.0,0.0,0.0,0.0,0.0,0.0,0.0,0.0,0.0,0.0,0.0,0.0,0.0,0.0,0.0,0.0,0.0,0.0,0.0,0.0,0.0,0.0,0.0,0.0,0.0,0.0,0.0,0.0,0.0,0.0,0.0,0.0,0.0,0.0,0.0,0.0,0.0,0.0,0.0,0.0,0.0,0.0,0.0,0.0,0.0,0.0,0.0,0.0,0.0,0.0,0.0,0.0,0.0,0.0,0.0,0.0,0.0,0.0,0.0,0.0,0.0,0.0,0.0,0.0,0.0,0.0,0.0,0.0,0.0,0.0,0.0,0.0,0.0,0.0,0.0,0.0,0.0,0.0,0.0,0.0,0.0,0.0,0.0,0.0,0.0,0.0,0.0,0.0,0.0,0.0,0.0,0.0,0.0,0.0,0.0,0.0,0.0,0.0,0.0,0.0,0.0,0.0,0.0,0.0,0.0,0.0,0.0,0.0,0.0,0.0,0.0,0.0,0.0,0.0,0.0,0.0,0.0,0.0,0.0,0.0,0.0,0.0,0.0,0.0,0.0,0.0,0.0,0.0,0.0,0.0,0.0,0.0,0.0,0.0,0.0,0.0,0.0,0.0,0.0,0.0,0.0,0.0,0.0,0.0,0.0,0.0,0.0,0.0,0.0,0.0,0.0,0.0,0.0,0.0,0.0,0.0,0.0,0.0,0.0,0.0,0.0,0.0,0.0,0.0,0.0,0.0,0.0,0.0,0.0,0.0,0.0,0.0,0.0,0.0,0.0,0.0,0.0,0.0,0.0,0.0,0.0,0.0,0.0,0.0,0.0,0.0,0.0,0.0,0.0,0.0,0.0,0.0,0.0,0.0,0.0,0.0,0.0,0.0,0.0,0.0,0.0,0.0,0.0,0.0,0.0,0.0,-0.5105,0.0,0.0,0.0,0.0,0.0,0.0,0.0,0.0,0.0,0.0,0.0,0.0,0.0,0.0,0.0,0.0,0.0,0.0,0.0,0.0,0.0,0.0,0.0,0.0,0.0,0.0,0.0,0.0,0.0,0.0,0.0,0.0,0.0,0.0,0.0,0.0,0.0,0.0,0.0,0.0,0.0,0.0,0.0,0.0,0.0,0.0,0.0,0.0,0.0,0.0,0.0,0.0,0.0,0.0,0.0,0.0,0.0,0.0,0.0,0.0,0.0,0.0,0.0,0.0,0.0,0.0,0.0,0.0,0.0,0.0,0.0,0.0,0.0,0.0,0.0,0.0,0.0,0.0,0.0,0.0,0.0,0.0,0.0,0.0,0.0,0.0,0.0,0.0,0.0,0.0,0.0,0.0,0.0,0.0,0.0,0.0,0.0,0.0,0.0,0.0,0.0,0.0,0.0,0.0,0.0,0.0,0.0,0.0,0.0,0.0,-0.6118,-0.6051,-0.5738,-0.5482,-0.521,0.0,0.0,0.0,0.0,0.0,0.0,0.0,0.0,0.0,0.0,0.0,0.0,0.0,0.0,0.0,0.0,0.0,0.0,0.0,0.0,0.0,0.0,0.0,0.0,0.0,0.0,0.0,0.0,0.0,0.0,0.0,0.0,0.0,0.0,0.0,0.0,0.0,0.0,0.0,0.0,0.0,0.0,0.0,0.0,0.0,0.0,0.0,0.0,0.0,0.0,0.0,0.0,0.0,0.0,0.0,0.0,0.0,0.0,0.0,0.0,0.0,0.0,0.0,0.0,0.0,0.0,0.0,0.0,0.0,0.0,0.0,0.0,0.0,0.0,0.0,0.0,0.0,0.0,0.0,0.0,0.0,0.0,0.0,0.0,0.0,0.0,0.0,0.0,0.0,0.0,0.0,0.0,0.0,0.0,0.0,0.0,0.0,0.0,0.0,0.0,0.0,0.0,0.0,0.0,0.0,0.0,0.0,0.0,0.0,0.0,0.0,0.0,-0.5765,-0.5402,-0.5159,0.0,0.0,0.0,0.0,0.0,0.0,0.0,0.0,0.0,0.0,0.0,0.0,0.0,0.0,0.0,0.0,0.0,0.0,0.0,0.0,0.0,0.0,0.0,0.0,0.0,0.0,0.0,0.0,0.0,0.0,0.0,0.0,0.0,0.0,0.0,0.0,0.0,0.0,0.0,0.0,0.0,0.0,0.0,0.0,0.0,0.0,0.0,0.0,0.0,0.0,0.0,0.0,0.0,0.0,0.0,0.0,0.0,0.0,0.0,0.0,0.0,0.0,0.0,0.0,0.0,0.0,0.0,0.0,0.0,0.0,0.0,0.0,0.0,0.0,0.0,0.0,0.0,0.0,0.0,0.0,0.0,0.0,0.0,0.0,0.0,0.0,0.0,0.0,0.0,0.0,0.0,0.0,0.0,0.0,0.0,0.0,0.0,0.0,0.0,0.0,0.0,0.0,0.0,0.0,0.0,0.0,0.0,0.0,0.0,0.0,-0.6261,-0.6261,-0.5854,0.0,-0.4804,0.0,0.0,0.0,0.0,0.0,0.0,0.0,0.0,0.0,0.0,0.0,0.0,0.0,0.0,0.0,0.0,0.0,0.0,0.0,0.0,0.0,0.0,0.0,0.0,0.0,0.0,0.0,0.0,0.0,0.0,0.0,0.0,0.0,0.0,0.0,0.0,0.0,0.0,0.0,0.0,0.0,0.0,0.0,0.0,0.0,0.0,0.0,0.0,0.0,0.0,0.0,0.0,0.0,0.0,0.0,0.0,0.0,0.0,0.0,0.0,0.0,0.0,0.0,0.0,0.0,0.0,0.0,0.0,0.0,0.0,0.0,0.0,0.0,0.0,0.0,0.0,0.0,0.0,0.0,0.0,0.0,0.0,0.0,0.0,0.0,0.0,0.0,0.0,0.0,0.0,0.0,0.0,0.0,0.0,0.0,0.0,0.0,0.0,0.0,0.0,0.0,0.0,0.0,0.0,0.0,0.0,0.0,0.0,0.0,0.0,-0.6254,-0.6099,-0.5555,-0.5121,0.0,0.0,0.0,0.0,0.0,0.0,0.0,0.0,0.0,0.0,0.0,0.0,0.0,0.0,0.0,0.0,0.0,0.0,0.0,0.0,0.0,0.0,0.0,0.0,0.0,0.0,0.0,0.0,0.0,0.0,0.0,0.0,0.0,0.0,0.0,0.0,0.0,0.0,0.0,0.0,0.0,0.0,0.0,0.0,0.0,0.0,0.0,0.0,0.0,0.0,0.0,0.0,0.0,0.0,0.0,0.0,0.0,0.0,0.0,0.0,0.0,0.0,0.0,0.0,0.0,0.0,0.0,0.0,0.0,0.0,0.0,0.0,0.0,0.0,0.0,0.0,0.0,0.0,0.0,0.0,0.0,0.0,0.0,0.0,0.0,0.0,0.0,0.0,0.0,0.0,0.0,0.0,0.0,0.0,0.0,0.0,0.0,0.0,0.0,0.0,0.0,0.0,0.0,0.0,0.0,0.0,0.0,0.0,0.0,0.0,-0.6261,-0.6106,-0.586,-0.5348,-0.4916,-0.4654,0.0,0.0,0.0,0.0,0.0,0.0,0.0,0.0,0.0,0.0,0.0,0.0,0.0,0.0,0.0,0.0,0.0,0.0,0.0,0.0,0.0,0.0,0.0,0.0,0.0,0.0,0.0,0.0,0.0,0.0,0.0,0.0,0.0,0.0,0.0,0.0,0.0,0.0,0.0,0.0,0.0,0.0,0.0,0.0,0.0,0.0,0.0,0.0,0.0,0.0,0.0,0.0,0.0,0.0,0.0,0.0,0.0,0.0,0.0,0.0,0.0,0.0,0.0,0.0,0.0,0.0,0.0,0.0,0.0,0.0,0.0,0.0,0.0,0.0,0.0,0.0,0.0,0.0,0.0,0.0,0.0,0.0,0.0,0.0,0.0,0.0,0.0,0.0,0.0,0.0,0.0,0.0,0.0,0.0,0.0,0.0,0.0,0.0,0.0,0.0,0.0,0.0,0.0,0.0,0.0,0.0,0.0,0.0,-0.6247,-0.6261,-0.6106,-0.5634,-0.5272,-0.4847,0.0,0.0,0.0,0.0,0.0,0.0,0.0,0.0,0.0,0.0,0.0,0.0,0.0,0.0,0.0,0.0,0.0,0.0,0.0,0.0,0.0,0.0,0.0,0.0,0.0,0.0,0.0,0.0,0.0,0.0,0.0,0.0,0.0,0.0,0.0,0.0,0.0,0.0,0.0,0.0,0.0,0.0,0.0,0.0,0.0,0.0,0.0,0.0,0.0,0.0,0.0,0.0,0.0,0.0,0.0,0.0,0.0,0.0,0.0,0.0,0.0,0.0,0.0,0.0,0.0,0.0,0.0,0.0,0.0,0.0,0.0,0.0,0.0,0.0,0.0,0.0,0.0,0.0,0.0,0.0,0.0,0.0,0.0,0.0,0.0,0.0,0.0,0.0,0.0,0.0,0.0,0.0,0.0,0.0,0.0,0.0,0.0,0.0,0.0,0.0,0.0,0.0,0.0,0.0,0.0,0.0,0.0,0.0,0.0,-0.624,-0.6261,-0.6106,-0.5634,-0.5354,-0.5039,0.0,0.0,0.0,0.0,0.0,0.0,0.0,0.0,0.0,0.0,0.0,0.0,0.0,0.0,0.0,0.0,0.0,0.0,0.0,0.0,0.0,0.0,0.0,0.0,0.0,0.0,0.0,0.0,0.0,0.0,0.0,0.0,0.0,0.0,0.0,0.0,0.0,0.0,0.0,0.0,0.0,0.0,0.0,0.0,0.0,0.0,0.0,0.0,0.0,0.0,0.0,0.0,0.0,0.0,0.0,0.0,0.0,0.0,0.0,0.0,0.0,0.0,0.0,0.0,0.0,0.0,0.0,0.0,0.0,0.0,0.0,0.0,0.0,0.0,0.0,0.0,0.0,0.0,0.0,0.0,0.0,0.0,0.0,0.0,0.0,0.0,0.0,0.0,0.0,0.0,0.0,0.0,0.0,0.0,0.0,0.0,0.0,0.0,0.0,0.0,0.0,0.0,0.0,0.0,0.0,0.0,0.0,0.0,0.0,-0.6315,0.0,-0.6245,-0.5842,-0.5562,-0.5246,0.0,0.0,0.0,0.0,0.0,0.0,0.0,0.0,0.0,0.0,0.0,0.0,0.0,0.0,0.0,0.0,0.0,0.0,0.0,0.0,0.0,0.0,0.0,0.0,0.0,0.0,0.0,0.0,0.0,0.0,0.0,0.0,0.0,0.0,0.0,0.0,0.0,0.0,0.0,0.0,0.0,0.0,0.0,0.0,0.0,0.0,0.0,0.0,0.0,0.0,0.0,0.0,0.0,0.0,0.0,0.0,0.0,0.0,0.0,0.0,0.0,0.0,0.0,0.0,0.0,0.0,0.0,0.0,0.0,0.0,0.0,0.0,0.0,0.0,0.0,0.0,0.0,0.0,0.0,0.0,0.0,0.0,0.0,0.0,0.0,0.0,0.0,0.0,0.0,0.0,0.0,0.0,0.0,0.0,0.0,0.0,0.0,0.0,0.0,0.0,0.0,0.0,0.0,0.0,0.0,0.0,0.0,0.0,-0.6193,-0.6471,-0.662,-0.6605,-0.644,-0.5828,-0.5377,0.0,0.0,0.0,0.0,0.0,0.0,0.0,0.0,0.0,0.0,0.0,0.0,0.0,0.0,0.0,0.0,0.0,0.0,0.0,0.0,0.0,0.0,0.0,0.0,0.0,0.0,0.0,0.0,0.0,0.0,0.0,0.0,0.0,0.0,0.0,0.0,0.0,0.0,0.0,0.0,0.0,0.0,0.0,0.0,0.0,0.0,0.0,0.0,0.0,0.0,0.0,0.0,0.0,0.0,0.0,0.0,0.0,0.0,0.0,0.0,0.0,0.0,0.0,0.0,0.0,0.0,0.0,0.0,0.0,0.0,0.0,0.0,0.0,0.0,0.0,0.0,0.0,0.0,0.0,0.0,0.0,0.0,0.0,0.0,0.0,0.0,0.0,0.0,0.0,0.0,0.0,0.0,0.0,0.0,0.0,0.0,0.0,0.0,0.0,0.0,0.0,0.0,0.0,0.0,0.0,0.0,0.0,0.0,0.0,-0.7035,-0.7597,-0.7535,-0.6844,-0.6466,-0.6007,0.0,0.0,0.0,0.0,0.0,0.0,0.0,0.0,0.0,0.0,0.0,0.0,0.0,0.0,0.0,0.0,0.0,0.0,0.0,0.0,0.0,0.0,0.0,0.0,0.0,0.0,0.0,0.0,0.0,0.0,0.0,0.0,0.0,0.0,0.0,0.0,0.0,0.0,0.0,0.0,0.0,0.0,0.0,0.0,0.0,0.0,0.0,0.0,0.0,0.0,0.0,0.0,0.0,0.0,0.0,0.0,0.0,0.0,0.0,0.0,0.0,0.0,0.0,0.0,0.0,0.0,0.0,0.0,0.0,0.0,0.0,0.0,0.0,0.0,0.0,0.0,0.0,0.0,0.0,0.0,0.0,0.0,0.0,0.0,0.0,0.0,0.0,0.0,0.0,0.0,0.0,0.0,0.0,0.0,0.0,0.0,0.0,0.0,0.0,0.0,0.0,0.0,0.0,0.0,0.0,0.0,0.0,0.0,0.0,-0.7789,-0.8286,-0.8167,-0.7258,-0.6893,-0.6465,-0.5829,0.0,0.0,0.0,0.0,0.0,0.0,0.0,0.0,0.0,0.0,0.0,0.0,0.0,0.0,0.0,0.0,0.0,0.0,0.0,0.0,0.0,0.0,0.0,0.0,0.0,0.0,0.0,0.0,0.0,0.0,0.0,0.0,0.0,0.0,0.0,0.0,0.0,0.0,0.0,0.0,0.0,0.0,0.0,0.0,0.0,0.0,0.0,0.0,0.0,0.0,0.0,0.0,0.0,0.0,0.0,0.0,0.0,0.0,0.0,0.0,0.0,0.0,0.0,0.0,0.0,0.0,0.0,0.0,0.0,0.0,0.0,0.0,0.0,0.0,0.0,0.0,0.0,0.0,0.0,0.0,0.0,0.0,0.0,0.0,0.0,0.0,0.0,0.0,0.0,0.0,0.0,0.0,0.0,0.0,0.0,0.0,0.0,0.0,0.0,0.0,0.0,0.0,0.0,0.0,0.0,0.0,0.0,0.0,-0.8586,-0.8752,-0.8385,-0.7698,-0.7151,-0.6669,0.0,0.0,0.0,0.0,0.0,0.0,0.0,0.0,0.0,0.0,0.0,0.0,0.0,0.0,0.0,0.0,0.0,0.0,0.0,0.0,0.0,0.0,0.0,0.0,0.0,0.0,0.0,0.0,0.0,0.0,0.0,0.0,0.0,0.0,0.0,0.0,0.0,0.0,0.0,0.0,0.0,0.0,0.0,0.0,0.0,0.0,0.0,0.0,0.0,0.0,0.0,0.0,0.0,0.0,0.0,0.0,0.0,0.0,0.0,0.0,0.0,0.0,0.0,0.0,0.0,0.0,0.0,0.0,0.0,0.0,0.0,0.0,0.0,0.0,0.0,0.0,0.0,0.0,0.0,0.0,0.0,0.0,0.0,0.0,0.0,0.0,0.0,0.0,0.0,0.0,0.0,0.0,0.0,0.0,0.0,0.0,0.0,0.0,0.0,0.0,0.0,0.0,0.0,0.0,0.0,0.0,0.0,0.0,0.0,-0.8579,-0.8661,-0.8549,-0.8343,-0.7868,-0.7277,0.0,0.0,0.0,0.0,0.0,0.0,0.0,0.0,0.0,0.0,0.0,0.0,0.0,0.0,0.0,0.0,0.0,0.0,0.0,0.0,0.0,0.0,0.0,0.0,0.0,0.0,0.0,0.0,0.0,0.0,0.0,0.0,0.0,0.0,0.0,0.0,0.0,0.0,0.0,0.0,0.0,0.0,0.0,0.0,0.0,0.0,0.0,0.0,0.0,0.0,0.0,0.0,0.0,0.0,0.0,0.0,0.0,0.0,0.0,0.0,0.0,0.0,0.0,0.0,0.0,0.0,0.0,0.0,0.0,0.0,0.0,0.0,0.0,0.0,0.0,0.0,0.0,0.0,0.0,0.0,0.0,0.0,0.0,0.0,0.0,0.0,0.0,0.0,0.0,0.0,0.0,0.0,0.0,0.0,0.0,0.0,0.0,0.0,0.0,0.0,0.0,0.0,0.0,0.0,0.0,0.0,0.0,0.0,-0.8272,-0.87,-0.8686,-0.8758,-0.8605,-0.8272,-0.7543,0.0,0.0,0.0,0.0,0.0,0.0,0.0,0.0,0.0,0.0,0.0,0.0,0.0,0.0,0.0,0.0,0.0,0.0,0.0,0.0,0.0,0.0,0.0,0.0,0.0,0.0,0.0,0.0,0.0,0.0,0.0,0.0,0.0,0.0,0.0,0.0,0.0,0.0,0.0,0.0,0.0,0.0,0.0,0.0,0.0,0.0,0.0,0.0,0.0,0.0,0.0,0.0,0.0,0.0,0.0,0.0,0.0,0.0,0.0,0.0,0.0,0.0,0.0,0.0,0.0,0.0,0.0,0.0,0.0,0.0,0.0,0.0,0.0,0.0,0.0,0.0,0.0,0.0,0.0,0.0,0.0,0.0,0.0,0.0,0.0,0.0,0.0,0.0,0.0,0.0,0.0,0.0,0.0,0.0,0.0,0.0,0.0,0.0,0.0,0.0,0.0,0.0,0.0,0.0,0.0,0.0,0.0,0.0,-0.8477,-0.8884,-0.8905,-0.8841,-0.8678,-0.8407,-0.7719,0.0,0.0,0.0,0.0,0.0,0.0,0.0,0.0,0.0,0.0,0.0,0.0,0.0,0.0,0.0,0.0,0.0,0.0,0.0,0.0,0.0,0.0,0.0,0.0,0.0,0.0,0.0,0.0,0.0,0.0,0.0,0.0,0.0,0.0,0.0,0.0,0.0,0.0,0.0,0.0,0.0,0.0,0.0,0.0,0.0,0.0,0.0,0.0,0.0,0.0,0.0,0.0,0.0,0.0,0.0,0.0,0.0,0.0,0.0,0.0,0.0,0.0,0.0,0.0,0.0,0.0,0.0,0.0,0.0,0.0,0.0,0.0,0.0,0.0,0.0,0.0,0.0,0.0,0.0,0.0,0.0,0.0,0.0,0.0,0.0,0.0,0.0,0.0,0.0,0.0,0.0,0.0,0.0,0.0,0.0,0.0,0.0,0.0,0.0,0.0,0.0,0.0,0.0,0.0,0.0,0.0,0.0,0.0,-0.8327,-0.872,-0.8848,-0.8834,-0.8678,-0.8411,-0.7878,0.0,0.0,0.0,0.0,0.0,0.0,0.0,0.0,0.0,0.0,0.0,0.0,0.0,0.0,0.0,0.0,0.0,0.0,0.0,0.0,0.0,0.0,0.0,0.0,0.0,0.0,0.0,0.0,0.0,0.0,0.0,0.0,0.0,0.0,0.0,0.0,0.0,0.0,0.0,0.0,0.0,0.0,0.0,0.0,0.0,0.0,0.0,0.0,-1.3507,0.0,0.0,0.0,0.0,0.0,0.0,0.0,0.0,0.0,0.0,0.0,0.0,0.0,0.0,0.0,0.0,0.0,0.0,0.0,0.0,0.0,0.0,0.0,0.0,0.0,0.0,0.0,0.0,0.0,0.0,0.0,0.0,0.0,0.0,0.0,0.0,0.0,0.0,0.0,0.0,0.0,0.0,0.0,0.0,0.0,0.0,0.0,0.0,0.0,0.0,0.0,0.0,0.0,0.0,0.0,0.0,0.0,0.0,0.0,-0.8426,-0.8682,-0.8835,-0.8807,-0.8584,-0.8474,-0.7925,0.0,0.0,0.0,0.0,0.0,0.0,0.0,0.0,0.0,0.0,0.0,0.0,0.0,0.0,0.0,0.0,0.0,0.0,0.0,0.0,0.0,0.0,0.0,0.0,0.0,0.0,0.0,0.0,0.0,0.0,0.0,0.0,0.0,0.0,0.0,0.0,0.0,0.0,0.0,0.0,0.0,0.0,0.0,0.0,0.0,0.0,0.0,0.0,0.0,0.0,0.0,0.0,0.0,0.0,0.0,0.0,0.0,0.0,0.0,0.0,0.0,0.0,0.0,0.0,0.0,0.0,0.0,0.0,0.0,0.0,0.0,0.0,0.0,0.0,0.0,0.0,0.0,0.0,0.0,0.0,0.0,0.0,0.0,0.0,0.0,0.0,0.0,0.0,0.0,0.0,0.0,0.0,0.0,0.0,0.0,0.0,0.0,0.0,0.0,0.0,0.0,0.0,0.0,0.0,0.0,0.0,0.0,-0.8221,-0.852,-0.8676,-0.8845,-0.8791,-0.8492,-0.8479,-0.7998,-0.6963,0.0,0.0,0.0,0.0,0.0,0.0,0.0,0.0,0.0,0.0,0.0,0.0,0.0,0.0,0.0,0.0,0.0,0.0,0.0,0.0,0.0,0.0,0.0,0.0,0.0,0.0,0.0,0.0,0.0,0.0,0.0,0.0,0.0,0.0,0.0,0.0,0.0,0.0,-1.356,-1.4072,0.0,0.0,0.0,0.0,0.0,0.0,0.0,0.0,-1.4968,0.0,0.0,0.0,0.0,0.0,0.0,0.0,0.0,0.0,0.0,0.0,0.0,0.0,0.0,0.0,0.0,0.0,0.0,0.0,0.0,0.0,0.0,0.0,0.0,0.0,0.0,0.0,0.0,0.0,0.0,0.0,0.0,0.0,0.0,0.0,0.0,0.0,0.0,0.0,0.0,0.0,0.0,0.0,0.0,0.0,0.0,0.0,0.0,0.0,0.0,0.0,0.0,0.0,0.0,0.0,0.0,-0.7631,-0.8079,-0.8377,-0.852,-0.8791,-0.8791,-0.8499,-0.8479,-0.7998,-0.6963,0.0,0.0,0.0,0.0,0.0,0.0,0.0,0.0,0.0,0.0,0.0,0.0,0.0,0.0,0.0,0.0,0.0,0.0,0.0,0.0,0.0,0.0,0.0,0.0,0.0,0.0,0.0,0.0,0.0,0.0,0.0,0.0,0.0,0.0,0.0,0.0,0.0,0.0,0.0,-1.4799,-1.5318,0.0,0.0,0.0,0.0,0.0,0.0,0.0,0.0,-1.5052,0.0,0.0,0.0,0.0,0.0,0.0,0.0,0.0,0.0,0.0,0.0,0.0,0.0,0.0,0.0,0.0,0.0,0.0,0.0,0.0,0.0,0.0,0.0,0.0,0.0,0.0,0.0,0.0,0.0,0.0,0.0,0.0,0.0,0.0,0.0,0.0,0.0,0.0,0.0,0.0,0.0,0.0,0.0,0.0,0.0,0.0,0.0,0.0,0.0,0.0,0.0,0.0,0.0,0.0,0.0,-0.7604,-0.8113,-0.8411,-0.8486,-0.8784,-0.8791,-0.8492,-0.8479,-0.7998,0.0,0.0,0.0,0.0,0.0,0.0,0.0,0.0,0.0,0.0,0.0,0.0,0.0,0.0,0.0,0.0,0.0,0.0,0.0,0.0,0.0,0.0,0.0,0.0,0.0,0.0,0.0,0.0,0.0,0.0,0.0,0.0,0.0,0.0,0.0,0.0,0.0,0.0,0.0,0.0,-1.5378,-1.5801,-1.6091,0.0,0.0,0.0,0.0,0.0,0.0,-1.5837,-1.5837,0.0,0.0,0.0,0.0,0.0,0.0,0.0,0.0,0.0,0.0,0.0,0.0,0.0,0.0,0.0,0.0,0.0,0.0,0.0,0.0,0.0,0.0,0.0,0.0,0.0,0.0,0.0,0.0,0.0,0.0,0.0,0.0,0.0,0.0,0.0,0.0,0.0,0.0,0.0,0.0,0.0,0.0,0.0,0.0,0.0,0.0,0.0,0.0,0.0,0.0,0.0,0.0,0.0,0.0,0.0,-0.7604,-0.8153,-0.8452,-0.8492,-0.8784,-0.8798,-0.8492,-0.8479,-0.7998,0.0,0.0,0.0,0.0,0.0,0.0,0.0,0.0,0.0,0.0,0.0,0.0,0.0,0.0,0.0,0.0,0.0,0.0,0.0,0.0,0.0,0.0,0.0,0.0,0.0,0.0,0.0,0.0,0.0,0.0,0.0,0.0,0.0,0.0,0.0,0.0,0.0,0.0,0.0,0.0,0.0,-1.6235,-1.6706,-1.6779,0.0,0.0,0.0,0.0,-1.6465,-1.6585,0.0,0.0,0.0,0.0,0.0,0.0,0.0,0.0,0.0,0.0,0.0,0.0,0.0,0.0,0.0,0.0,0.0,0.0,0.0,0.0,0.0,0.0,0.0,0.0,0.0,0.0,0.0,0.0,0.0,0.0,0.0,0.0,0.0,0.0,0.0,0.0,0.0,0.0,0.0,0.0,0.0,0.0,0.0,0.0,0.0,0.0,0.0,0.0,0.0,0.0,0.0,0.0,0.0,0.0,0.0,0.0,-0.7597,-0.8058,-0.8357,-0.8486,-0.8784,-0.8791,-0.8492,-0.8479,-0.7998,0.0,0.0,0.0,0.0,0.0,0.0,0.0,0.0,0.0,0.0,0.0,0.0,0.0,0.0,0.0,0.0,0.0,0.0,0.0,0.0,0.0,0.0,0.0,0.0,0.0,0.0,0.0,0.0,0.0,0.0,0.0,0.0,0.0,0.0,0.0,0.0,0.0,0.0,0.0,0.0,0.0,-1.6718,-1.7008,-1.7044,-1.7117,0.0,0.0,-1.6767,-1.696,-1.6827,0.0,0.0,0.0,0.0,0.0,0.0,0.0,0.0,0.0,0.0,0.0,0.0,0.0,0.0,0.0,0.0,0.0,0.0,0.0,0.0,0.0,0.0,0.0,0.0,0.0,0.0,0.0,0.0,0.0,0.0,0.0,0.0,0.0,0.0,0.0,0.0,0.0,0.0,0.0,0.0,0.0,0.0,0.0,0.0,0.0,0.0,0.0,0.0,0.0,0.0,0.0,0.0,0.0,0.0,0.0,-0.7231,-0.7604,-0.8019,-0.8418,-0.8486,-0.8784,-0.8791,-0.8492,-0.8404,-0.7879,0.0,0.0,0.0,0.0,0.0,0.0,0.0,0.0,0.0,0.0,0.0,0.0,0.0,0.0,0.0,0.0,0.0,0.0,0.0,0.0,0.0,0.0,0.0,0.0,0.0,0.0,0.0,0.0,0.0,0.0,0.0,0.0,0.0,0.0,0.0,0.0,0.0,0.0,0.0,0.0,0.0,0.0,-1.7249,-1.7443,0.0,0.0,0.0,-1.7406,-1.7515,0.0,0.0,0.0,0.0,0.0,0.0,0.0,0.0,0.0,0.0,0.0,0.0,0.0,0.0,0.0,0.0,0.0,0.0,0.0,0.0,0.0,0.0,0.0,0.0,0.0,0.0,0.0,0.0,0.0,0.0,0.0,0.0,0.0,0.0,0.0,0.0,0.0,0.0,0.0,0.0,0.0,0.0,0.0,0.0,0.0,0.0,0.0,0.0,0.0,0.0,0.0,0.0,0.0,0.0,0.0,0.0,0.0,-0.7409,-0.7945,-0.8229,-0.8387,-0.8669,-0.8791,-0.8492,-0.8343,0.0,0.0,0.0,0.0,0.0,0.0,0.0,0.0,0.0,0.0,0.0,0.0,0.0,0.0,0.0,0.0,0.0,0.0,0.0,0.0,0.0,0.0,0.0,0.0,0.0,0.0,0.0,-0.7317,0.0,0.0,0.0,0.0,0.0,0.0,0.0,0.0,0.0,0.0,0.0,0.0,0.0,0.0,-1.6887,-1.7406,-1.7708,-1.7877,0.0,0.0,-1.7877,-1.7877,-1.766,-1.737,0.0,0.0,0.0,0.0,0.0,0.0,0.0,0.0,0.0,0.0,0.0,0.0,0.0,0.0,0.0,0.0,0.0,0.0,0.0,0.0,0.0,0.0,0.0,0.0,0.0,0.0,0.0,0.0,0.0,0.0,0.0,0.0,0.0,0.0,0.0,0.0,0.0,0.0,0.0,0.0,0.0,0.0,0.0,0.0,0.0,0.0,0.0,0.0,0.0,0.0,0.0,0.0,0.0,0.0,0.0,-0.6838,-0.7547,-0.8033,-0.8171,-0.8675,-0.8791,-0.8492,-0.8343,-0.7885,0.0,0.0,0.0,0.0,0.0,0.0,0.0,0.0,0.0,0.0,0.0,0.0,0.0,0.0,0.0,0.0,0.0,0.0,0.0,0.0,0.0,0.0,0.0,0.0,0.0,0.0,0.0,0.0,0.0,0.0,0.0,0.0,0.0,0.0,0.0,0.0,0.0,0.0,0.0,0.0,0.0,-1.6887,-1.7406,-1.7708,-1.7877,0.0,0.0,-1.7877,-1.7877,-1.7648,-1.731,-1.6815,0.0,0.0,0.0,0.0,0.0,0.0,0.0,0.0,0.0,0.0,0.0,0.0,0.0,0.0,0.0,0.0,0.0,0.0,0.0,0.0,0.0,0.0,0.0,0.0,0.0,0.0,0.0,0.0,0.0,0.0,0.0,0.0,0.0,0.0,0.0,0.0,0.0,0.0,0.0,0.0,0.0,0.0,0.0,0.0,0.0,0.0,0.0,0.0,0.0,0.0,0.0,0.0,0.0,-0.648,-0.6716,-0.7489,-0.7917,-0.8065,-0.8675,-0.8791,-0.8486,-0.8255,-0.7751,0.0,0.0,0.0,0.0,0.0,0.0,0.0,0.0,0.0,0.0,0.0,0.0,0.0,0.0,0.0,0.0,0.0,0.0,0.0,0.0,0.0,0.0,0.0,0.0,0.0,0.0,0.0,0.0,-0.7683,-0.8253,-0.897,0.0,0.0,0.0,0.0,0.0,0.0,0.0,0.0,0.0,0.0,-1.6634,-1.7165,-1.7599,0.0,0.0,-1.7877,-1.7877,-1.7877,-1.7648,-1.7358,-1.6996,-1.6464,0.0,0.0,0.0,0.0,0.0,0.0,0.0,0.0,0.0,0.0,0.0,0.0,0.0,0.0,0.0,0.0,0.0,0.0,0.0,0.0,0.0,0.0,0.0,0.0,0.0,0.0,0.0,0.0,0.0,0.0,0.0,0.0,0.0,0.0,0.0,0.0,0.0,0.0,0.0,0.0,0.0,0.0,0.0,0.0,0.0,0.0,0.0,0.0,0.0,0.0,0.0,0.0,-0.6243,-0.6453,-0.7223,-0.7776,-0.796,-0.8567,-0.8791,-0.8492,-0.8241,-0.7828,0.0,0.0,0.0,0.0,0.0,0.0,0.0,0.0,0.0,0.0,0.0,0.0,0.0,0.0,0.0,0.0,0.0,0.0,0.0,0.0,0.0,0.0,0.0,0.0,0.0,0.0,0.0,0.0,-0.7575,-0.8208,-0.9075,0.0,0.0,0.0,0.0,0.0,0.0,0.0,0.0,0.0,0.0,-1.6392,-1.7008,-1.7467,-1.7756,-1.7756,-1.7829,-1.7841,-1.7768,-1.7539,-1.7274,-1.702,0.0,0.0,0.0,0.0,0.0,0.0,0.0,0.0,0.0,0.0,0.0,0.0,0.0,0.0,0.0,0.0,0.0,0.0,0.0,0.0,0.0,0.0,0.0,0.0,0.0,0.0,0.0,0.0,0.0,0.0,-0.1114,0.0,0.0,0.0,0.0,0.0,0.0,0.0,0.0,0.0,0.0,0.0,0.0,0.0,0.0,0.0,0.0,0.0,0.0,0.0,0.0,0.0,0.0,-0.5809,-0.5899,-0.684,-0.7477,-0.775,-0.8458,-0.8791,-0.8499,-0.8336,-0.7977,-0.7373,0.0,0.0,0.0,0.0,0.0,0.0,0.0,0.0,0.0,0.0,0.0,0.0,0.0,0.0,0.0,0.0,0.0,0.0,0.0,0.0,0.0,0.0,0.0,0.0,0.0,0.0,-0.7171,-0.7752,-0.8317,0.0,0.0,0.0,0.0,0.0,0.0,0.0,0.0,0.0,0.0,-1.5728,-1.6187,-1.6972,-1.7322,-1.7491,-1.7491,-1.7708,-1.7781,-1.7539,-1.7286,-1.7008,0.0,0.0,0.0,0.0,0.0,0.0,0.0,0.0,0.0,0.0,0.0,0.0,0.0,0.0,0.0,0.0,0.0,0.0,0.0,0.0,0.0,0.0,0.0,0.0,0.0,0.0,0.0,-0.1156,-0.1238,0.0,0.0,0.0,0.0,0.0,0.0,0.0,0.0,0.0,0.0,0.0,-0.6245,-0.6371,0.0,0.0,0.0,0.0,0.0,0.0,0.0,0.0,0.0,0.0,0.0,0.0,-0.5593,-0.579,-0.6709,-0.7384,-0.7744,-0.8366,-0.8845,-0.8955,-0.8709,-0.8238,-0.7513,0.0,0.0,0.0,0.0,0.0,0.0,0.0,0.0,0.0,0.0,0.0,0.0,0.0,0.0,0.0,0.0,0.0,0.0,0.0,0.0,0.0,0.0,0.0,0.0,0.0,-0.6911,0.0,0.0,0.0,0.0,0.0,0.0,0.0,0.0,0.0,0.0,0.0,-1.4425,-1.5149,-1.5608,-1.6115,-1.6742,-1.6815,-1.7041,0.0,0.0,0.0,0.0,0.0,0.0,0.0,0.0,0.0,0.0,0.0,0.0,0.0,0.0,-1.4115,-1.3861,-1.3659,-1.3556,-1.3429,0.0,0.0,0.0,0.0,0.0,0.0,0.0,0.0,0.0,0.0,0.0,0.0,0.0,0.0,0.0,0.0,-0.1334,0.0,0.0,0.0,0.0,0.0,0.0,0.0,0.0,-0.6236,-0.6612,-0.6867,-0.7,-0.7,0.0,-0.7,-0.6789,0.0,0.0,0.0,0.0,0.0,0.0,0.0,0.0,-0.5485,-0.5735,-0.6643,-0.7335,-0.7737,-0.8314,-0.8817,-0.9133,-0.8888,-0.8474,-0.7699,-0.725,-0.6763,0.0,0.0,0.0,0.0,0.0,0.0,0.0,0.0,0.0,0.0,0.0,0.0,0.0,0.0,0.0,0.0,0.0,0.0,0.0,0.0,0.0,0.0,0.0,-0.7155,0.0,0.0,0.0,0.0,0.0,0.0,0.0,0.0,0.0,-1.3507,-1.3978,-1.4497,-1.504,-1.5371,-1.5875,-1.6498,0.0,0.0,0.0,0.0,0.0,0.0,0.0,-1.7286,-1.7244,-1.702,-1.6899,-1.6506,-1.5975,-1.5658,-1.5494,0.0,0.0,-1.4394,-1.4328,-1.4194,-1.398,-1.3684,-1.3446,-1.3414,-1.279,-1.2154,0.0,0.0,0.0,0.0,0.0,0.0,0.0,0.0,-0.1292,-0.1311,0.0,-0.1462,0.0,0.0,0.0,0.0,0.0,0.0,0.0,0.0,-0.6562,-0.6895,-0.7159,-0.7473,-0.755,-0.7416,-0.7558,-0.7458,-0.7109,-0.6589,0.0,0.0,0.0,0.0,0.0,0.0,-0.5485,-0.5741,-0.6638,-0.7223,-0.7744,-0.8308,-0.881,-0.9226,-0.8991,-0.8713,-0.8139,-0.7876,-0.7469,-0.6909,-0.6723,0.0,0.0,0.0,0.0,0.0,0.0,0.0,0.0,0.0,0.0,0.0,0.0,0.0,0.0,0.0,0.0,0.0,0.0,0.0,0.0,-0.761,0.0,0.0,0.0,0.0,0.0,0.0,0.0,0.0,0.0,0.0,-1.3191,-1.392,-1.4521,-1.5065,0.0,0.0,0.0,0.0,-1.5966,-1.6469,-1.6785,-1.6903,-1.6891,-1.7041,-1.7244,-1.7486,0.0,0.0,-1.6718,-1.6718,-1.661,-1.6332,-1.6079,-1.5753,-1.5258,-1.4999,-1.4951,-1.4648,-1.4624,-1.448,-1.3981,-1.3324,-1.274,-0.2024,0.0,0.0,0.0,0.0,-0.1579,-0.1664,-0.1834,-0.1865,-0.1803,-0.1897,-0.1885,0.0,0.0,0.0,0.0,0.0,0.0,-0.602,-0.6592,-0.7217,-0.7588,-0.7793,-0.8018,-0.82,-0.8065,-0.82,-0.7983,-0.7628,-0.7282,-0.6791,-0.6041,0.0,0.0,0.0,0.0,-0.5442,-0.5833,-0.6328,-0.6949,-0.7638,-0.8104,-0.8554,-0.9286,-0.9453,-0.9327,-0.8744,-0.829,-0.792,-0.7484,-0.7171,0.0,0.0,0.0,0.0,0.0,0.0,0.0,0.0,0.0,0.0,0.0,0.0,0.0,0.0,0.0,0.0,0.0,0.0,0.0,-0.7155,-0.7336,-0.7383,0.0,0.0,0.0,0.0,0.0,0.0,0.0,0.0,0.0,-1.3803,-1.4448,-1.5065,0.0,0.0,-1.6053,-1.6421,-1.6161,-1.6172,-1.6492,0.0,0.0,0.0,-1.7208,-1.7406,-1.7499,-1.7426,-1.7201,-1.7008,-1.6984,-1.6774,-1.6287,-1.618,-1.5963,-1.558,-1.5083,-1.4742,-1.4378,-1.4287,-1.4095,-1.3901,-1.3392,-1.287,-0.2537,-0.2204,-0.1936,-0.1897,-0.1897,-0.1897,-0.1897,-0.2061,-0.2089,-0.2102,-0.2102,-0.2188,-0.2188,-0.2272,-0.2968,0.0,0.0,0.0,-0.6554,-0.7144,-0.7689,-0.8058,-0.834,-0.8528,-0.8722,-0.8715,-0.8629,-0.8482,-0.8131,-0.7797,-0.7332,-0.6661,0.0,0.0,-0.5671,-0.542,-0.5469,-0.5877,-0.6133,-0.6608,-0.7449,-0.8197,-0.8758,-0.9332,-0.9745,-0.9694,-0.918,-0.8798,-0.8391,-0.806,-0.7694,-0.743,0.0,0.0,0.0,0.0,0.0,0.0,0.0,0.0,0.0,0.0,0.0,-0.79,-0.7831,0.0,0.0,0.0,-0.7799,-0.7573,-0.7281,-0.7316,0.0,0.0,0.0,0.0,0.0,0.0,0.0,-1.1733,-1.2892,-1.3998,-1.4483,-1.4915,-1.5327,-1.5849,-1.5993,-1.6139,-1.6333,0.0,-1.5798,-1.6149,-1.6142,-1.6198,-1.6414,-1.7124,-1.7661,-1.7648,-1.7636,-1.7539,-1.7298,-1.7134,-1.6922,-1.6457,-1.6273,-1.6023,-1.5592,-1.5172,-1.4847,-1.4534,-1.4339,-1.4179,-1.4074,-1.3551,-1.2996,-0.2959,-0.2657,-0.2373,-0.221,-0.2123,-0.2125,-0.2123,-0.221,-0.221,-0.221,-0.2208,-0.2378,-0.2465,-0.2552,-0.3725,0.0,-0.5584,-0.6327,-0.6999,-0.7604,-0.8074,-0.8457,-0.8746,-0.8949,-0.9137,-0.9145,-0.9137,-0.8955,-0.8595,-0.8154,-0.7724,-0.7304,-0.6473,-0.6062,-0.5966,-0.5621,-0.5545,-0.5893,-0.6065,-0.6403,-0.7129,-0.8428,-0.914,-0.9212,-0.9831,-0.9892,-0.938,-0.9185,-0.8942,-0.8609,-0.8225,-0.7899,-0.7586,0.0,0.0,0.0,0.0,0.0,0.0,0.0,0.0,0.0,0.0,0.0,0.0,0.0,0.0,0.0,-0.7802,0.0,-0.7702,-0.7477,0.0,0.0,0.0,-0.8666,-0.956,-1.0315,-1.115,-1.2349,0.0,0.0,-1.5246,0.0,-1.5564,-1.5875,-1.5853,-1.5898,-1.6045,-1.5649,-1.5386,-1.5612,-1.5905,-1.6024,-1.6024,-1.7196,-1.8033,-1.795,-1.7901,-1.7817,-1.7575,-1.728,-1.695,-1.6576,-1.631,-1.6022,-1.5443,-1.5263,-1.5197,-1.5066,-1.4833,-1.4559,-1.4245,-1.3821,-1.3287,-0.302,-0.3012,-0.2912,-0.278,-0.2592,-0.2592,-0.2685,-0.287,-0.287,-0.287,-0.287,-0.2872,-0.315,-0.3523,-0.4189,-0.4948,-0.5717,-0.6403,-0.7051,-0.7465,-0.8144,-0.8594,-0.8803,-0.9299,-0.9502,-0.9502,-0.9502,-0.9405,-0.9131,-0.8769,-0.8322,-0.7893,-0.7197,-0.6634,-0.619,-0.5667,-0.5545,-0.5899,-0.5968,-0.6395,-0.7425,-0.8233,-0.877,-0.8837,-0.9138,-0.9268,-0.9083,-0.8895,-0.8798,-0.8763,-0.8376,-0.8235,-0.8346,-0.8078,0.0,0.0,0.0,0.0,0.0,0.0,0.0,0.0,0.0,-0.8034,-0.7815,0.0,-0.8251,0.0,-0.799,-0.795,-0.7966,-0.8006,0.0,0.0,-0.8671,-0.9208,-0.9862,-1.0819,-1.1736,-1.249,-1.3605,-1.4556,-1.5018,-1.5655,-1.6011,-1.6011,-1.5989,-1.6056,-1.6071,-1.6153,-1.6046,-1.586,-1.5777,-1.6151,-1.7088,-1.7883,-1.8287,-1.8203,-1.8191,-1.8094,-1.7829,-1.7781,-1.7458,-1.6738,-1.6446,-1.6188,-1.5653,-1.5406,-1.5275,-1.5199,-1.5004,-1.4719,-1.4393,-1.4045,-1.3708,-0.318,-0.3177,-0.3142,-0.3031,-0.293,-0.2879,-0.2954,-0.3144,-0.3144,-0.3144,-0.3144,-0.3144,-0.3337,-0.3816,-0.4418,-0.5106,-0.5782,-0.6605,-0.7252,-0.772,-0.8405,-0.8743,-0.9031,-0.9426,-0.9624,-0.9624,-0.9624,-0.9535,-0.9356,-0.906,-0.8613,-0.8109,-0.7562,-0.6903,-0.6325,-0.5849,-0.5686,-0.5899,-0.6013,-0.6509,-0.7339,-0.7814,-0.8228,-0.8571,-0.8974,-0.9015,-0.8863,-0.8784,-0.8734,-0.882,-0.856,-0.8459,-0.8462,-0.8263,-0.8226,0.0,0.0,0.0,0.0,0.0,0.0,0.0,0.0,0.0,0.0,0.0,-0.835,0.0,-0.8276,0.0,-0.8278,-0.8442,-0.8674,-0.8862,-0.9386,-0.993,-1.0439,-1.1278,-1.2171,-1.2792,-1.3848,-1.4746,-1.5288,-1.5682,-1.602,-1.6234,-1.6149,-1.6076,-1.6209,-1.6233,-1.6232,-1.6097,-1.6021,-1.6452,-1.7874,-1.8285,-1.8476,-1.8493,-1.8469,-1.8384,-1.8106,-1.7829,-1.7469,-1.697,-1.6629,-1.6194,-1.5839,-1.5622,-1.5408,-1.5386,-1.5184,-1.4897,-1.4489,-1.422,-1.3878,-0.3232,-0.3232,-0.3232,-0.3232,-0.3224,-0.3117,-0.3071,-0.3071,-0.3071,-0.3167,-0.317,-0.317,-0.3361,-0.3943,-0.4392,-0.5107,-0.5899,-0.6691,-0.7335,-0.7939,-0.8428,-0.8832,-0.9137,-0.9434,-0.9533,-0.9624,-0.9624,-0.9543,-0.9388,-0.9172,-0.8824,-0.8176,-0.7781,-0.7151,-0.6483,-0.6192,-0.5974,-0.5904,-0.6116,-0.648,-0.7211,-0.7409,-0.7805,-0.828,-0.8795,-0.8937,-0.8691,-0.8718,-0.8721,-0.8787,-0.8649,-0.8591,-0.8451,-0.8316,-0.8421,0.0,-0.8926,0.0,0.0,0.0,0.0,0.0,0.0,0.0,0.0,-0.8595,-0.8522,-0.8777,-0.8705,-0.8774,-0.8941,-0.9124,-0.9421,-0.9526,-1.0095,-1.0641,-1.0924,-1.169,-1.2365,-1.3052,-1.4004,-1.4794,-1.5495,-1.5616,-1.5814,-1.62,-1.6035,-1.6067,-1.6409,-1.6309,-1.6151,-1.6334,-1.6527,-1.7114,-1.807,-1.8407,-1.8465,-1.8656,-1.8734,-1.8638,-1.8384,-1.7911,-1.749,-1.7396,-1.6874,-1.625,-1.6098,-1.5839,-1.5709,-1.558,-1.5322,-1.4969,-1.4551,-1.4229,-1.3959,-0.3232,-0.3232,-0.3232,-0.3232,-0.3229,-0.3204,-0.3196,-0.3196,-0.3196,-0.3296,-0.3498,-0.3296,-0.3595,-0.4292,-0.4407,-0.4914,-0.5708,-0.6326,-0.6836,-0.7341,-0.7932,-0.8435,-0.8931,-0.913,-0.9434,-0.9624,-0.9624,-0.9608,-0.9575,-0.9429,-0.9132,-0.8878,-0.8355,-0.7716,-0.7038,0.0,0.0,0.0,-0.6045,-0.6361,-0.6772,-0.7491,-0.7719,-0.7488,-0.809,0.0,-0.8261,-0.839,-0.8493,-0.8625,-0.8584,0.0,0.0,0.0,0.0,0.0,0.0,0.0,0.0,0.0,0.0,0.0,-1.0319,-0.9904,-0.903,-0.9191,-0.9383,-0.9518,-0.9707,-0.9992,-1.0184,-1.0375,-1.0488,-1.0506,-1.0768,-1.106,-1.128,-1.1973,-1.2802,-1.3487,-1.4251,-1.4908,-1.5246,-1.5525,-1.5753,-1.6024,-1.5714,-1.5862,-1.6474,-1.6506,-1.6538,-1.6614,-1.6903,-1.758,-1.8291,-1.8431,-1.8676,-1.8884,-1.9,-1.8891,-1.8662,-1.8565,-1.8101,-1.7635,-1.7241,-1.6885,-1.6228,-1.6087,-1.5817,-1.572,-1.5353,-1.4966,-1.4657,-1.441,-1.4055,-0.3185,0.0,-0.3185,-0.3185,0.0,-0.3218,-0.3232,-0.3229,-0.3199,-0.3285,-0.3387,-0.3419,-0.3736,-0.4236,-0.4437,-0.4935,-0.5636,-0.6137,-0.6637,-0.7235,-0.7739,-0.8237,-0.8627,-0.8832,-0.913,-0.9434,-0.9434,-0.9426,-0.9624,-0.9535,-0.9348,-0.8972,-0.86,-0.8044,-0.7214,-0.681,-0.6429,-0.6083,-0.6178,-0.6458,-0.6923,-0.7408,-0.7624,-0.7508,0.0,0.0,0.0,0.0,0.0,0.0,0.0,0.0,0.0,0.0,0.0,-1.0222,-1.088,-1.1089,-1.0711,-1.0969,-1.1161,-1.1211,-1.1234,-1.0697,-0.9272,-0.9705,-1.0052,-1.0237,-1.043,-1.0553,-1.0571,-1.1021,-1.1156,-1.1075,-1.1435,-1.181,-1.1921,-1.2408,-1.3005,-1.3575,-1.4205,-1.4831,-1.5066,-1.5397,-1.5622,-1.582,-1.5761,-1.5805,-1.6456,-1.6477,-1.6435,-1.6807,-1.7044,-1.74,-1.7916,-1.8173,-1.8431,-1.8699,-1.8944,-1.9024,-1.8903,-1.877,-1.8553,-1.7911,-1.7396,-1.6782,-1.6306,-1.5809,-1.5522,-1.5397,-1.5184,-1.4831,-1.4488,-1.4331,-1.4052,-0.3155,-0.3155,-0.3155,-0.3155,-0.3158,-0.321,-0.3224,-0.3213,0.0,0.0,0.0,-0.351,-0.3736,-0.4131,-0.4533,-0.5035,-0.5536,-0.6037,-0.6537,-0.7135,-0.764,-0.8038,-0.8336,-0.8627,-0.8825,-0.9137,-0.9137,-0.9335,-0.9533,-0.9525,-0.9453,-0.9131,-0.8825,-0.8186,-0.7241,-0.6669,-0.6443,-0.6361,-0.6421,-0.6651,-0.7166,-0.7372,-0.7498,-0.7758,-0.8232,-0.8452,-0.8517,-0.9185,-0.9665,-0.9665,-0.9938,-1.0144,-1.018,-1.0068,-1.0171,-1.0603,-1.1586,-1.1974,-1.1452,-1.164,-1.1826,-1.1915,-1.1974,-1.1306,-0.9867,-1.0306,-1.0771,-1.0887,-1.1111,-1.107,-1.0884,-1.1422,-1.1787,-1.1585,-1.1968,-1.2389,-1.2455,-1.2776,-1.3117,-1.3605,-1.4162,-1.465,-1.4986,-1.5235,-1.5534,-1.569,-1.5535,-1.5846,-1.6229,-1.6327,-1.653,-1.6947,-1.699,-1.7141,-1.74,-1.7787,-1.8173,-1.8571,-1.8956,-1.9072,-1.9036,-1.8891,-1.8662,-1.8408,-1.7467,-1.677,-1.6366,-1.5698,-1.5189,-1.5225,-1.5014,-1.4645,-1.4392,-1.4162,-1.3917,-0.3215,-0.3218,-0.3218,-0.3218,-0.3218,-0.3229,-0.3199,-0.3158,-0.3199,-0.3318,-0.3522,-0.3632,-0.3836,-0.434,-0.4437,-0.4738,-0.524,-0.5536,-0.6037,0.0,-0.7036,-0.754,-0.8038,-0.8336,-0.8627,-0.8825,-0.9038,-0.9236,-0.9236,-0.9434,-0.9517,-0.9493,-0.8992,-0.8357,-0.7452,-0.7077,-0.6833,-0.6719,-0.7036,-0.719,-0.7112,-0.7916,-0.8147,-0.7726,-0.8514,-0.9107,-0.9151,-0.9747,-1.0138,-1.0334,-1.0626,-1.0895,-1.1359,-1.0934,-1.1116,-1.2243,-1.2689,-1.2892,-1.276,-1.3074,-1.3084,-1.2913,-1.2464,-1.184,-1.103,-1.1383,-1.168,-1.1668,-1.1775,-1.1906,-1.1728,-1.2037,-1.2196,-1.2018,-1.2037,-1.2247,-1.2446,-1.2663,-1.3183,-1.3761,-1.4134,-1.4411,-1.465,-1.4769,-1.4932,-1.5185,-1.5232,-1.5236,-1.5982,-1.6592,-1.684,-1.699,-1.7001,-1.7141,-1.74,-1.7787,-1.8173,-1.8571,-1.8828,-1.9072,-1.9072,-1.9036,-1.8891,-1.8662,-1.7942,-1.7416,-1.68,-1.6369,-1.577,-1.5278,-1.5014,-1.4613,-1.4229,-1.3884,-1.3529,-0.318,-0.3183,-0.3183,-0.3183,-0.3183,-0.3215,-0.3215,-0.3194,-0.3218,-0.3213,-0.3387,-0.3519,-0.3836,-0.4236,-0.434,-0.4742,-0.524,-0.5336,-0.5737,-0.6437,-0.6637,-0.7141,-0.7746,-0.8019,-0.8355,-0.8765,-0.8962,-0.9108,-0.9312,-0.9415,-0.9415,-0.9407,-0.8889,-0.8316,-0.7755,-0.7559,-0.741,-0.7422,-0.7351,-0.7285,-0.7345,-0.7898,-0.8309,-0.8508,-0.9027,-0.9576,-1.0096,-1.0526,-1.099,-1.1392,-1.1595,-1.1788,-1.2181,-1.2079,-1.223,-1.2648,-1.3193,-1.3296,-1.3059,-1.3495,-1.3559,-1.3247,-1.3046,-1.2684,-1.224,-1.2049,-1.1954,-1.1879,-1.2134,-1.2219,-1.202,-1.2266,-1.2361,-1.2162,-1.2228,-1.2436,-1.2701,-1.286,-1.3306,-1.3908,-1.4124,-1.44,-1.452,-1.453,-1.4691,-1.4988,-1.5236,-1.5495,-1.5694,-1.6234,-1.6753,-1.6872,-1.6882,-1.6882,-1.7141,-1.7529,-1.7916,-1.8173,-1.8559,-1.8828,-1.9072,-1.9072,-1.8963,-1.8459,-1.7866,-1.7138,-1.6526,-1.592,-1.5489,-1.5289,-1.513,-1.4835,-1.429,-1.3729,-1.3298,-0.3161,-0.3161,-0.3161,-0.3161,-0.3164,-0.321,-0.3232,-0.3232,-0.3232,-0.3204,-0.3172,-0.3413,-0.3736,-0.4034,-0.4239,-0.4638,-0.5039,-0.514,-0.5541,-0.6137,-0.6364,-0.6782,-0.7403,-0.7731,-0.8104,-0.8536,-0.8751,-0.9017,-0.9227,-0.9227,-0.9227,-0.9122,-0.88,-0.8401,-0.8117,-0.7905,-0.7867,-0.7877,-0.7708,-0.7672,-0.7886,-0.813,-0.8735,-0.9268,-0.9615,-1.0101,-1.0896,-1.1337,-1.1801,-1.244,-1.2617,-1.274,-1.3046,-1.3277,-1.3393,-1.3267,-1.3551,-1.3717,-1.3445,-1.3593,-1.3689,-1.3477,-1.3321,-1.3078,-1.292,-1.25,-1.2075,-1.2056,-1.2196,-1.2351,-1.22,-1.2313,-1.238,-1.2238,-1.2342,-1.2569,-1.2909,-1.3106,-1.3354,-1.3858,-1.4104,-1.4232,-1.4361,-1.4411,-1.4469,-1.4759,-1.5435,-1.5704,-1.5593,-1.5984,-1.6374,-1.6623,-1.6623,-1.6623,-1.6882,-1.7271,-1.7658,-1.7905,-1.8302,-1.8699,-1.8944,-1.9072,-1.8884,-1.8392,-1.7607,-1.7028,-1.6384,-1.5642,-1.5192,-1.5246,-1.513,-1.4877,-1.4205,-1.3509,-1.3184,-0.3221,-0.3221,-0.3218,-0.3221,-0.3221,-0.3229,-0.3232,-0.3232,-0.3232,-0.3229,-0.3221,-0.3433,-0.3736,-0.4034,-0.4239,-0.4537,-0.4834,-0.514,-0.5244,-0.5454,-0.6144,-0.6605,-0.6821,-0.7559,-0.8046,-0.8151,-0.8598,-0.8941,-0.8941,-0.9137,-0.9129,-0.8912,-0.8912,-0.8673,-0.836,-0.8265,-0.8112,-0.8023,-0.8357,-0.8533,-0.8652,-0.9332,-0.9752,-0.9774,-1.0333,-1.0914,-1.1634,-1.1845,-1.2406,-1.3325,-1.3625,-1.3841,-1.3923,-1.4168,-1.4403,-1.4484,-1.4203,-1.4025,-1.404,-1.3814,-1.3717,-1.3609,-1.3186,-1.2911,-1.2646,-1.2431,-1.2215,-1.2121,-1.2215,-1.2351,-1.2181,-1.2323,-1.2318,-1.229,-1.2309,-1.2531,-1.2776,-1.2947,-1.325,-1.3381,-1.367,-1.3794,-1.3913,-1.3961,-1.4004,-1.4385,-1.5061,-1.5593,-1.5463,-1.5593,-1.5724,-1.6104,-1.6234,-1.6504,-1.6623,-1.7141,-1.7529,-1.7905,-1.8291,-1.8664,-1.8896,-1.9024,-1.8908,-1.8289,-1.7792,-1.7066,-1.6575,-1.6101,-1.5451,-1.5205,-1.4929,-1.4624,-1.3854,-1.3356,-1.3117,-0.3232,-0.3232,-0.3232,-0.3232,-0.3232,-0.3232,-0.3232,-0.3232,-0.3232,-0.3232,-0.3232,-0.3332,-0.3534,-0.3732,-0.4034,-0.4336,-0.4642,-0.4892,-0.5222,-0.5537,-0.6049,-0.6516,-0.6945,-0.7593,-0.7981,-0.8207,-0.871,-0.8865,-0.8974,-0.8974,-0.8974,-0.8865,-0.8865,-0.8791,-0.8626,-0.8626,-0.8699,-0.8726,-0.8983,-0.9218,-0.9292,-0.9511,-0.9888,-1.0325,-1.0567,-1.12,-1.2107,-1.2264,-1.2785,-1.3818,-1.3939,-1.4086,-1.4406,-1.4643,-1.4767,-1.488,-1.4681,-1.441,-1.4187,-1.3946,-1.3785,-1.3217,-1.2989,-1.2733,-1.2548,-1.2398,-1.229,-1.2252,-1.229,-1.229,-1.2116,-1.2064,-1.211,-1.211,-1.2219,-1.2348,-1.2909,-1.3125,-1.3269,-1.3829,-1.376,-1.3798,-1.3942,-1.4032,-1.4109,-1.4336,-1.4933,-1.5453,-1.5202,-1.5332,-1.5463,-1.5453,-1.5724,-1.6114,-1.6374,-1.6882,-1.7271,-1.7636,-1.7919,-1.8082,-1.8463,-1.856,-1.8488,-1.8011,-1.7449,-1.6864,-1.6298,-1.5981,-1.5558,-1.5215,-1.4744,-1.4242,-1.3918,-1.3673,-1.3438,-0.3215,-0.3229,-0.3232,-0.3232,-0.3232,-0.3232,-0.3232,-0.3232,-0.3232,-0.3232,-0.3232,-0.3232,-0.3332,-0.3534,-0.3833,-0.4145,-0.4478,-0.4842,-0.5296,-0.5742,-0.5951,-0.6424,-0.7068,-0.7618,-0.801,-0.8247,-0.8659,-0.8933,-0.894,-0.894,-0.894,-0.894,-0.894,-0.894,-0.894,-0.894,-0.9008,-0.915,-0.93,-0.9456,-0.9578,-0.9537,-0.9905,-1.0614,-1.0786,-1.1447,-1.2586,-1.2645,-1.3168,-1.428,-1.4255,-1.4395,-1.4959,-1.5074,-1.5052,-1.5113,-1.4988,-1.4767,-1.4207,-1.4075,-1.375,-1.3108,-1.2969,-1.2721,-1.2455,-1.2436,-1.2446,-1.2337,-1.2327,-1.2219,-1.201,-1.19,-1.191,-1.1964,-1.1973,-1.2238,-1.288,-1.3069,-1.3336,-1.3868,-1.3769,-1.3858,-1.4072,-1.4147,-1.4298,-1.4345,-1.4923,-1.5332,-1.4931,-1.5202,-1.5202,-1.4931,-1.5202,-1.5724,-1.6244,-1.6623,-1.7012,-1.7367,-1.7641,-1.7943,-1.8254,-1.8316,-1.8161,-1.7839,-1.7288,-1.6695,-1.621,-1.5785,-1.5385,-1.4888,-1.453,-1.4172,-1.3994,-1.3794,-1.3435,-0.3177,-0.3226,-0.3232,-0.3232,-0.3232,-0.3232,-0.3232,-0.3232,-0.3232,-0.3232,-0.3232,-0.3232,-0.3232,-0.3234,-0.3739,-0.4177,-0.4549,-0.4878,-0.5235,-0.5633,-0.5948,-0.6325,-0.6655,-0.7529,-0.8029,-0.8134,-0.8589,-0.894,-0.894,-0.894,-0.894,-0.894,-0.894,-0.894,-0.894,-0.8947,-0.9015,-0.9171,-0.932,-0.9462,-0.9612,-0.9734,-1.0037,-1.0671,-1.1172,-1.1792,-1.2664,-1.29,-1.3517,-1.453,-1.4629,-1.4857,-1.544,-1.5548,-1.5451,-1.5268,-1.5235,-1.4897,-1.4468,-1.42,-1.3758,-1.3223,-1.2971,-1.2673,-1.2521,-1.2484,-1.2474,-1.2346,-1.2237,-1.2019,-1.1928,-1.1827,-1.1771,-1.181,-1.1845,-1.2176,-1.2593,-1.2873,-1.2993,-1.3447,-1.357,-1.3765,-1.3703,-1.4052,-1.427,-1.4383,-1.4666,-1.4931,-1.4931,-1.4931,-1.4931,-1.4931,-1.5202,-1.5593,-1.5974,-1.6364,-1.6882,-1.7238,-1.7591,-1.7965,-1.8442,-1.8625,-1.8218,-1.7792,-1.7211,-1.6619,-1.6046,-1.5576,-1.498,-1.458,-1.4341,-1.4101,-1.3942,-1.3453,-1.3204,-0.3172,-0.3229,-0.3232,-0.3232,-0.3232,-0.3232,-0.3232,-0.3232,-0.3232,-0.3232,-0.3232,-0.3232,-0.3253,-0.3289,-0.3594,-0.4017,-0.4364,-0.4669,-0.5268,-0.5854,-0.6165,-0.6548,-0.721,-0.7802,-0.8152,-0.8374,-0.8712,-0.894,-0.894,-0.894,-0.894,-0.894,-0.894,-0.894,-0.8954,-0.9035,-0.915,-0.9293,-0.9449,-0.9598,-0.9741,-0.989,-1.0088,-1.058,-1.1009,-1.1805,-1.3093,-1.3163,-1.3784,-1.5064,-1.5064,-1.5237,-1.5576,-1.5558,-1.5569,-1.5483,-1.5472,-1.5248,-1.4698,-1.4541,-1.4218,-1.3438,-1.3296,-1.3154,-1.2843,-1.2729,-1.2654,-1.2432,-1.2543,-1.2441,-1.2219,-1.2099,-1.2006,-1.2087,-1.2203,-1.2461,-1.2757,-1.2876,-1.2958,-1.3195,-1.3407,-1.3684,-1.3769,-1.4052,-1.4298,-1.4355,-1.4666,-1.4893,-1.4931,-1.4931,-1.4931,-1.4931,-1.5071,-1.5323,-1.5974,-1.6234,-1.6623,-1.6958,-1.7301,-1.7584,-1.7909,-1.7897,-1.7621,-1.7497,-1.71,-1.6641,-1.6097,-1.5596,-1.4963,-1.4508,-1.4256,-1.4086,-1.3712,-1.3416,-1.3147,-0.3469,-0.3428,-0.343,-0.343,-0.343,-0.3332,-0.3332,-0.3332,-0.3232,-0.3232,-0.3232,-0.3232,-0.3264,-0.3319,-0.3546,-0.3884,-0.4228,-0.4651,-0.5255,-0.617,-0.6241,-0.672,-0.7493,-0.7826,-0.8159,-0.8484,-0.8823,-0.894,-0.894,-0.894,-0.894,-0.894,-0.8981,-0.9008,-0.9028,-0.9157,-0.93,-0.9449,-0.9557,-0.9673,-0.9822,-0.9971,-1.0204,-1.0621,-1.1047,-1.1846,-1.3052,-1.3356,-1.3861,-1.4942,-1.5172,-1.5474,-1.5799,-1.5718,-1.5709,-1.5709,-1.5634,-1.5419,-1.5035,-1.4886,-1.4559,-1.3884,-1.3624,-1.349,-1.3298,-1.306,-1.288,-1.2758,-1.288,-1.289,-1.2664,-1.2588,-1.2625,-1.2406,-1.2515,-1.2669,-1.2976,-1.2885,-1.2958,-1.3039,-1.3315,-1.3573,-1.374,-1.4071,-1.427,-1.4317,-1.4666,-1.4912,-1.4931,-1.4931,-1.4931,-1.4931,-1.4931,-1.5323,-1.5714,-1.6234,-1.6504,-1.685,-1.7216,-1.7329,-1.7461,-1.7417,-1.7315,-1.7281,-1.6999,-1.6571,-1.6053,-1.5556,-1.5102,-1.4622,-1.4346,-1.4071,-1.3741,-1.3432,-1.3188,-0.3963,-0.4028,-0.4034,-0.3934,-0.3934,-0.3736,-0.3635,-0.3534,-0.3332,-0.333,-0.3232,-0.3232,-0.3267,-0.3327,-0.3382,-0.3761,-0.4358,-0.4706,-0.5296,-0.6144,-0.627,-0.6715,-0.7604,-0.7826,-0.8263,-0.8595,-0.883,-0.8947,-0.896,-0.8981,-0.8981,-0.8988,-0.9103,-0.9157,-0.9157,-0.9306,-0.9456,-0.9571,-0.9612,-0.9693,-0.9822,-0.9985,-1.0252,-1.077,-1.1298,-1.1962,-1.2834,-1.3378,-1.4034,-1.476,-1.5097,-1.5566,-1.6167,-1.6086,-1.6067,-1.5892,-1.5731,-1.5493,-1.5224,-1.5084,-1.4862,-1.4356,-1.4083,-1.3771,-1.3529,-1.3336,-1.3193,-1.3079,-1.3193,-1.3193,-1.3107,-1.324,-1.311,-1.2678,-1.266,-1.2876,-1.3012,-1.2826,-1.2715,-1.2973,-1.3102,-1.3343,-1.3667,-1.3976,-1.422,-1.4295,-1.4547,-1.48,-1.467,-1.467,-1.48,-1.48,-1.48,-1.5062,-1.5583,-1.6104,-1.6504,-1.6893,-1.7141,-1.7462,-1.7396,-1.7401,-1.7323,-1.7278,-1.7074,-1.6653,-1.615,-1.5635,-1.5177,-1.4712,-1.4452,-1.4279,-1.3936,-1.3633,-1.3189,-0.4461,-0.4533,-0.4131,-0.4034,-0.4034,-0.3934,-0.3833,-0.3833,-0.3732,-0.3635,-0.3534,-0.3534,-0.3389,-0.3368,-0.3406,-0.379,-0.4439,-0.4557,-0.5127,-0.5819,-0.6163,-0.672,-0.7493,-0.7937,-0.838,-0.9064,-0.9259,-0.942,-0.9441,-0.9525,-0.9474,-0.9259,-0.9286,-0.9306,-0.932,-0.9456,-0.9571,-0.9612,-0.9707,-0.9781,-0.9842,-1.0073,-1.0355,-1.0551,-1.1293,-1.2065,-1.2791,-1.3492,-1.428,-1.5257,-1.5396,-1.5701,-1.6034,-1.6199,-1.6129,-1.5968,-1.5881,-1.5752,-1.5504,-1.5364,-1.5213,-1.4677,-1.442,-1.4163,-1.3721,-1.3606,-1.3538,-1.3413,-1.3413,-1.3538,-1.3441,-1.3476,-1.3405,-1.3166,-1.3277,-1.3241,-1.3057,-1.2586,-1.2466,-1.2871,-1.2968,-1.3161,-1.3373,-1.3779,-1.3861,-1.3888,-1.4105,-1.4268,-1.4268,-1.4277,-1.4277,-1.4539,-1.467,-1.4959,-1.5643,-1.6247,-1.6602,-1.6944,-1.7282,-1.7358,-1.7433,-1.7334,-1.7268,-1.7224,-1.703,-1.6743,-1.6233,-1.5691,-1.5238,-1.4935,-1.4661,-1.4449,-1.422,-1.3843,-1.3518,-0.5023,-0.5131,-0.4734,-0.4634,-0.4533,-0.4433,-0.4332,-0.4232,-0.4031,-0.3934,-0.3736,-0.3635,-0.3606,-0.3498,-0.3412,-0.3802,-0.447,-0.448,-0.4927,-0.5601,-0.6163,-0.6715,-0.7504,-0.7991,-0.868,-0.9377,-0.9617,-0.9802,-0.981,-0.9903,-0.9838,-0.9613,-0.9552,-0.9462,-0.9483,-0.9612,-0.9686,-0.97,-0.9774,-0.9849,-0.9944,-1.0148,-1.0431,-1.0642,-1.1381,-1.2157,-1.2955,-1.3613,-1.4277,-1.5071,-1.5473,-1.5774,-1.6136,-1.6181,-1.6241,-1.6226,-1.6043,-1.5881,-1.5741,-1.5655,-1.5364,-1.4888,-1.465,-1.4411,-1.3913,-1.3798,-1.3632,-1.3622,-1.3622,-1.3622,-1.3523,-1.3599,-1.3618,-1.3523,-1.3608,-1.3564,-1.3204,-1.2586,-1.2259,-1.2457,-1.2568,-1.2794,-1.3065,-1.3509,-1.3594,-1.362,-1.3761,-1.3875,-1.3875,-1.3875,-1.4146,-1.4313,-1.4508,-1.5054,-1.5863,-1.6389,-1.6686,-1.7013,-1.7313,-1.738,-1.7456,-1.7174,-1.7076,-1.7205,-1.7033,-1.6894,-1.6379,-1.6012,-1.5584,-1.5297,-1.4981,-1.4695,-1.4373,-1.4089,-1.3868,-0.5548,-0.5832,-0.5636,-0.5536,-0.5436,-0.5035,-0.4834,-0.4734,-0.4332,-0.4135,-0.4034,-0.3836,-0.3708,-0.3707,-0.3518,-0.3799,-0.4349,-0.448,-0.4819,-0.5493,-0.6051,-0.6725,-0.7421,-0.8289,-0.9024,-0.9639,-0.9896,-1.0084,-1.0323,-1.0128,-0.9873,-0.9923,-0.9683,-0.9618,-0.9639,-0.9754,-0.9802,-0.9802,-0.9815,-0.989,-1.0032,-1.0195,-1.0472,-1.0991,-1.1548,-1.2305,-1.3087,-1.3779,-1.4295,-1.48,-1.5332,-1.5714,-1.6193,-1.6274,-1.6287,-1.6592,-1.6215,-1.6021,-1.5914,-1.5763,-1.5396,-1.5007,-1.465,-1.4411,-1.4043,-1.3784,-1.3655,-1.3655,-1.3665,-1.3665,-1.3665,-1.3684,-1.3684,-1.3703,-1.3703,-1.3573,-1.3222,-1.2991,-1.2595,-1.2233,-1.2291,-1.2623,-1.2817,-1.3259,-1.3483,-1.3535,-1.3657,-1.3726,-1.3761,-1.377,-1.4033,-1.4244,-1.4485,-1.5233,-1.5948,-1.65,-1.6922,-1.7162,-1.7459,-1.7507,-1.7532,-1.7249,-1.7173,-1.7152,-1.7098,-1.6817,-1.6665,-1.6436,-1.6014,-1.5664,-1.5265,-1.4791,-1.4502,-1.4298,-1.415,-0.5746,-0.5937,-0.5737,-0.5536,-0.5536,-0.5436,-0.5336,-0.5336,-0.5236,-0.4935,-0.4634,-0.4533,-0.4219,-0.3825,-0.3728,-0.4016,-0.4453,-0.448,-0.4819,-0.5382,-0.6051,-0.6995,-0.7844,-0.8458,-0.9218,-1.0011,-1.0288,-1.0605,-1.0848,-1.0584,-1.0405,-1.0187,-0.984,-0.9761,-0.9774,-0.9802,-0.9815,-0.9822,-0.9822,-0.9897,-1.0053,-1.0209,-1.06,-1.1005,-1.1563,-1.2173,-1.298,-1.3892,-1.4554,-1.4941,-1.5332,-1.5593,-1.5854,-1.6172,-1.6327,-1.6287,-1.6412,-1.6301,-1.6021,-1.5661,-1.5314,-1.4789,-1.455,-1.4172,-1.3813,-1.3813,-1.3693,-1.3693,-1.3693,-1.3693,-1.3693,-1.3703,-1.3759,-1.3882,-1.3816,-1.3778,-1.3761,-1.3441,-1.3014,-1.2674,-1.2826,-1.28,-1.29,-1.2888,-1.3004,-1.3021,-1.3054,-1.3244,-1.3269,-1.3609,-1.3918,-1.4281,-1.4647,-1.5287,-1.5934,-1.6489,-1.7001,-1.7433,-1.7644,-1.783,-1.7701,-1.7561,-1.754,-1.755,-1.731,-1.7124,-1.706,-1.6907,-1.654,-1.5964,-1.5672,-1.5298,-1.4838,-1.4642,-1.452,-0.6101,-0.6267,-0.6016,-0.5932,-0.5937,-0.5837,-0.5737,-0.5737,-0.5636,-0.5436,-0.5135,-0.4935,-0.4629,-0.4355,-0.4153,-0.4233,-0.4582,-0.4704,-0.4931,-0.539,-0.6093,-0.7048,-0.8022,-0.8527,-0.9211,-1.0179,-1.0569,-1.0882,-1.1025,-1.0868,-1.0664,-1.0415,-1.0065,-0.9822,-0.9815,-0.9822,-0.9822,-0.9836,-0.9883,-0.9992,-1.0148,-1.0417,-1.0826,-1.1352,-1.1871,-1.246,-1.3352,-1.4334,-1.4879,-1.4978,-1.5195,-1.5429,-1.5473,-1.5854,-1.6183,-1.6157,-1.6329,-1.6391,-1.6312,-1.5926,-1.538,-1.4842,-1.455,-1.413,-1.3832,-1.3693,-1.3693,-1.3693,-1.3693,-1.3693,-1.3703,-1.3769,-1.392,-1.4081,-1.4024,-1.4005,-1.4128,-1.389,-1.3608,-1.3383,-1.3268,-1.3122,-1.3059,-1.2906,-1.2816,-1.2832,-1.2824,-1.2881,-1.3079,-1.3453,-1.3957,-1.4323,-1.4846,-1.5512,-1.601,-1.655,-1.7184,-1.7482,-1.7877,-1.7951,-1.7927,-1.7787,-1.7755,-1.7733,-1.7442,-1.741,-1.7449,-1.7385,-1.6963,-1.6491,-1.6145,-1.5707,-1.5423,-1.4969,-1.4837,-0.653,-0.6663,-0.6487,-0.6537,-0.6437,-0.6237,-0.6142,-0.6042,-0.5937,-0.5737,-0.5536,-0.5135,-0.5043,-0.5108,-0.4581,-0.4557,-0.4927,-0.4819,-0.5154,-0.5626,-0.6242,-0.7111,-0.819,-0.8537,-0.9124,-1.0101,-1.0605,-1.0884,-1.1004,-1.0906,-1.0785,-1.0543,-1.0065,-0.9822,-0.9822,-0.9822,-0.9829,-0.9883,-1.0095,-1.0246,-1.0531,-1.0927,-1.1323,-1.1724,-1.2204,-1.3003,-1.3966,-1.4665,-1.5091,-1.5309,-1.5281,-1.531,-1.542,-1.5502,-1.5734,-1.6203,-1.6177,-1.6308,-1.6371,-1.5919,-1.5494,-1.4941,-1.4646,-1.4304,-1.3918,-1.3759,-1.3759,-1.3769,-1.3731,-1.3769,-1.3825,-1.3948,-1.4118,-1.4288,-1.4336,-1.4345,-1.4374,-1.4103,-1.4051,-1.4382,-1.3766,-1.3466,-1.3299,-1.3244,-1.2848,-1.2929,-1.2929,-1.2994,-1.3369,-1.3773,-1.4275,-1.4627,-1.5174,-1.5607,-1.6101,-1.6597,-1.7207,-1.7658,-1.7928,-1.8133,-1.8067,-1.7949,-1.7873,-1.7727,-1.7833,-1.7801,-1.7662,-1.762,-1.7349,-1.6996,-1.6469,-1.6261,-1.604,-1.5548,-1.5231,-0.6822,-0.6961,-0.6988,-0.7036,-0.7036,-0.6942,-0.6842,-0.6642,-0.6542,-0.6242,-0.5942,-0.5741,-0.5453,-0.5108,-0.501,-0.4882,-0.4916,-0.4931,-0.5266,-0.6065,-0.6261,-0.7159,-0.8292,-0.8543,-0.9268,-1.0109,-1.0279,-1.0543,-1.0793,-1.0664,-1.0422,-1.0308,-1.0058,-0.9822,-0.9822,-0.9836,-0.989,-0.9985,-1.0418,-1.0706,-1.0906,-1.1523,-1.1896,-1.218,-1.2712,-1.3477,-1.4423,-1.4804,-1.5081,-1.5559,-1.5574,-1.5557,-1.5357,-1.5565,-1.5761,-1.5894,-1.6203,-1.6208,-1.5936,-1.5727,-1.5489,-1.4903,-1.4605,-1.428,-1.3977,-1.3939,-1.3939,-1.3939,-1.3948,-1.4005,-1.4137,-1.4203,-1.4345,-1.4496,-1.4563,-1.4619,-1.4723,-1.4519,-1.4547,-1.454,-1.4335,-1.397,-1.363,-1.3384,-1.317,-1.3136,-1.321,-1.3267,-1.3662,-1.4225,-1.4587,-1.4943,-1.5477,-1.5896,-1.6075,-1.6574,-1.7066,-1.7561,-1.7845,-1.828,-1.8078,-1.8111,-1.8101,-1.8122,-1.8304,-1.8196,-1.8024,-1.8003,-1.7718,-1.7329,-1.6828,-1.6596,-1.6353,-1.5904,-1.5602,-0.7165,-0.726,-0.7254,-0.7235,-0.7235,-0.7235,-0.7141,-0.6942,-0.6842,-0.6642,-0.6342,-0.6142,-0.576,-0.5422,-0.5329,-0.521,-0.5123,-0.5158,-0.5514,-0.6242,-0.645,-0.7253,-0.8425,-0.8791,-0.9271,-0.9937,-1.0186,-1.0429,-1.0422,-1.0429,-1.0308,-1.0308,-0.9943,-0.9822,-0.9842,-0.989,-1.0088,-1.0315,-1.0706,-1.0984,-1.1379,-1.1881,-1.2389,-1.272,-1.3062,-1.3871,-1.4727,-1.485,-1.5307,-1.584,-1.5904,-1.5706,-1.5422,-1.5433,-1.5585,-1.5761,-1.5763,-1.6084,-1.5832,-1.5663,-1.5455,-1.4984,-1.4585,-1.4336,-1.4213,-1.4147,-1.4156,-1.4156,-1.4166,-1.4232,-1.443,-1.4459,-1.4563,-1.4714,-1.477,-1.4818,-1.4884,-1.4837,-1.4799,-1.4782,-1.452,-1.4268,-1.4024,-1.3831,-1.3776,-1.3629,-1.3891,-1.3959,-1.4242,-1.4666,-1.5041,-1.5411,-1.5802,-1.616,-1.633,-1.6529,-1.7053,-1.7428,-1.7652,-1.8114,-1.8359,-1.8296,-1.8396,-1.8464,-1.8487,-1.8401,-1.8261,-1.825,-1.8079,-1.7898,-1.742,-1.6965,-1.655,-1.6312,-1.5977,-0.7691,-0.7624,-0.7517,-0.7434,-0.7434,-0.7434,-0.7441,-0.7341,-0.7042,-0.6942,-0.6742,-0.6342,-0.6169,-0.5922,-0.5638,-0.5539,-0.5452,-0.5497,-0.5864,-0.6298,-0.6628,-0.7439,-0.8391,-0.8877,-0.9201,-0.9822,-1.0065,-1.0179,-1.0179,-1.0179,-1.0186,-1.0179,-0.9943,-0.9849,-0.989,-0.9978,-1.0211,-1.0685,-1.0991,-1.1394,-1.1735,-1.2266,-1.2704,-1.3086,-1.3425,-1.3899,-1.4552,-1.4947,-1.5319,-1.6037,-1.6178,-1.5989,-1.5715,-1.546,-1.5433,-1.5701,-1.5649,-1.5672,-1.5763,-1.5593,-1.5365,-1.5061,-1.4804,-1.4572,-1.4421,-1.4355,-1.4364,-1.4383,-1.4411,-1.4496,-1.4657,-1.4676,-1.4761,-1.4874,-1.4922,-1.4931,-1.4941,-1.495,-1.4978,-1.48,-1.4725,-1.4499,-1.4422,-1.4228,-1.4316,-1.427,-1.4411,-1.4689,-1.484,-1.5086,-1.5457,-1.5643,-1.6009,-1.6264,-1.6444,-1.6587,-1.6962,-1.73,-1.7544,-1.7885,-1.8217,-1.8269,-1.83,-1.8571,-1.8605,-1.853,-1.8466,-1.8401,-1.8261,-1.8304,-1.783,-1.7157,-1.6777,-1.6593,-1.6336,-0.8348,-0.8472,-0.8496,-0.8528,-0.8528,-0.8528,-0.823,-0.7939,-0.7739,-0.7441,-0.6842,-0.6748,-0.6476,-0.6338,-0.5955,-0.5647,-0.5567,-0.5717,-0.5989,-0.6436,-0.6884,-0.7578,-0.8558,-0.8914,-0.9214,-0.97,-0.9943,-0.9943,-0.9943,-0.9943,-0.9943,-0.9943,-0.9836,-0.9883,-0.9978,-1.0059,-1.0328,-1.0984,-1.125,-1.1735,-1.2142,-1.2728,-1.307,-1.3474,-1.362,-1.3999,-1.439,-1.4875,-1.5186,-1.5603,-1.6037,-1.6131,-1.6018,-1.5838,-1.5815,-1.5634,-1.5711,-1.5585,-1.5404,-1.542,-1.5342,-1.5014,-1.4865,-1.478,-1.4638,-1.4572,-1.4572,-1.461,-1.4704,-1.4827,-1.4874,-1.4855,-1.4884,-1.4931,-1.495,-1.4959,-1.4978,-1.5073,-1.513,-1.5054,-1.4846,-1.4787,-1.4861,-1.4818,-1.4946,-1.4919,-1.4898,-1.5162,-1.5438,-1.5502,-1.5689,-1.5867,-1.6178,-1.6301,-1.6558,-1.6759,-1.6892,-1.7194,-1.7409,-1.7586,-1.789,-1.7976,-1.8166,-1.8435,-1.8731,-1.8603,-1.867,-1.8595,-1.8389,-1.8107,-1.7642,-1.7178,-1.6885,-1.6603,-1.632,-0.8722,-0.8855,-0.8788,-0.8825,-0.8825,-0.8825,-0.8627,-0.8435,-0.8137,-0.7739,-0.7441,-0.7153,-0.6884,-0.6647,-0.6484,-0.6182,-0.6005,-0.5935,-0.6355,-0.6714,-0.7026,-0.7735,-0.8732,-0.883,-0.9207,-0.97,-0.9822,-0.9822,-0.9822,-0.9822,-0.9829,-0.9842,-0.989,-0.9978,-1.0073,-1.0215,-1.0586,-1.1272,-1.1612,-1.1995,-1.2712,-1.3086,-1.3482,-1.3595,-1.3734,-1.3965,-1.4449,-1.4768,-1.5186,-1.5612,-1.6037,-1.6188,-1.616,-1.6084,-1.5933,-1.5734,-1.5662,-1.5615,-1.5262,-1.5262,-1.5186,-1.4941,-1.4941,-1.4893,-1.4818,-1.4789,-1.478,-1.4808,-1.4837,-1.4931,-1.4922,-1.4941,-1.4931,-1.495,-1.5026,-1.5082,-1.5139,-1.529,-1.53,-1.5252,-1.5213,-1.5152,-1.5306,-1.5428,-1.5597,-1.558,-1.5542,-1.5634,-1.5877,-1.5886,-1.5895,-1.6112,-1.6301,-1.6635,-1.6778,-1.6812,-1.6953,-1.7269,-1.7447,-1.7624,-1.7663,-1.7793,-1.814,-1.8618,-1.8728,-1.8601,-1.8806,-1.8608,-1.8338,-1.808,-1.7511,-1.7196,-1.6793,-1.6461,-1.6368,-0.9189,-0.912,-0.9178,-0.9122,-0.9122,-0.9023,-0.9023,-0.8832,-0.8435,-0.8137,-0.7939,-0.7553,-0.7184,-0.6978,-0.6877,-0.6666,-0.627,-0.6386,-0.6611,-0.7,-0.728,-0.7875,-0.8666,-0.8976,-0.9342,-0.97,-0.9822,-0.9822,-0.9829,-0.9869,-0.9869,-0.9924,-1.0025,-1.012,-1.0202,-1.0358,-1.0998,-1.1489,-1.1702,-1.2257,-1.3046,-1.3457,-1.3669,-1.3709,-1.3863,-1.4104,-1.4416,-1.4906,-1.5211,-1.5632,-1.6053,-1.633,-1.6301,-1.6264,-1.616,-1.598,-1.5753,-1.5545,-1.5422,-1.5309,-1.5224,-1.5054,-1.5007,-1.4978,-1.4922,-1.4903,-1.4912,-1.4931,-1.4931,-1.4931,-1.4941,-1.4978,-1.4997,-1.5044,-1.5177,-1.5309,-1.5356,-1.546,-1.5583,-1.5593,-1.5503,-1.5512,-1.5668,-1.5782,-1.5812,-1.5831,-1.5793,-1.5812,-1.6037,-1.6037,-1.6074,-1.6196,-1.6462,-1.6835,-1.7016,-1.7038,-1.7142,-1.7171,-1.7369,-1.7416,-1.7615,-1.7805,-1.8128,-1.8391,-1.841,-1.8464,-1.8549,-1.8717,-1.8269,-1.7733,-1.7434,-1.7106,-1.676,-1.6549,-1.6558,-0.974,-0.9775,-1.0052,-1.0216,-1.0109,-0.992,-0.9723,-0.9426,-0.913,-0.8634,-0.8144,-0.7965,-0.7712,-0.7545,-0.7242,-0.6785,-0.6599,-0.6634,-0.6848,-0.7253,-0.7652,-0.8248,-0.8824,-0.9214,-0.9457,-0.9707,-0.9829,-0.9822,-0.9863,-0.9958,-1.0019,-1.0053,-1.0175,-1.0304,-1.0385,-1.048,-1.0953,-1.1593,-1.1776,-1.2342,-1.3175,-1.3408,-1.3717,-1.388,-1.4026,-1.414,-1.4446,-1.4975,-1.5492,-1.5665,-1.626,-1.6717,-1.6698,-1.6547,-1.6462,-1.6301,-1.6084,-1.581,-1.5734,-1.5602,-1.5422,-1.5252,-1.5205,-1.5101,-1.5016,-1.495,-1.4941,-1.4931,-1.495,-1.4988,-1.5035,-1.5111,-1.5167,-1.5262,-1.5385,-1.5489,-1.5555,-1.5697,-1.581,-1.5857,-1.5876,-1.5867,-1.5867,-1.6018,-1.615,-1.616,-1.6169,-1.6178,-1.6207,-1.6226,-1.6377,-1.6538,-1.6679,-1.6887,-1.7187,-1.7227,-1.7275,-1.7331,-1.7379,-1.7426,-1.7578,-1.7721,-1.7721,-1.7967,-1.8029,-1.812,-1.816,-1.8178,-1.7869,-1.7663,-1.7351,-1.7204,-1.6902,-1.6698,-1.6594,-1.0204,-1.0054,-1.0246,-1.0413,-1.0413,-1.0216,-1.0019,-0.9821,-0.9525,-0.9137,-0.8663,-0.8442,-0.8233,-0.7974,-0.7639,-0.7271,-0.7065,-0.7001,-0.7231,-0.7619,-0.7937,-0.8426,-0.9048,-0.9214,-0.9457,-0.9721,-0.9903,-0.9958,-0.9978,-1.0019,-1.008,-1.0202,-1.0324,-1.0419,-1.0514,-1.0582,-1.1045,-1.1681,-1.2358,-1.2854,-1.3359,-1.3701,-1.3872,-1.405,-1.414,-1.4229,-1.4473,-1.5121,-1.5624,-1.5771,-1.6361,-1.6802,-1.6783,-1.6698,-1.6468,-1.6462,-1.6177,-1.5962,-1.5886,-1.5782,-1.5621,-1.5479,-1.5404,-1.5328,-1.5139,-1.5016,-1.5016,-1.5101,-1.5101,-1.5148,-1.5243,-1.5366,-1.5394,-1.547,-1.5602,-1.5678,-1.5772,-1.5933,-1.6056,-1.6084,-1.6103,-1.6056,-1.6027,-1.6093,-1.6169,-1.6178,-1.6178,-1.6188,-1.6254,-1.632,-1.6547,-1.6683,-1.6963,-1.7105,-1.7227,-1.736,-1.736,-1.7398,-1.7407,-1.7435,-1.7426,-1.7426,-1.7636,-1.7616,-1.7692,-1.7786,-1.7888,-1.781,-1.7852,-1.7634,-1.7417,-1.7102,-1.6925,-1.6802,-1.6717,-1.0557,-1.0407,-1.0563,-1.0609,-1.0609,-1.0511,-1.0413,-1.0216,-0.9821,-0.9533,-0.9291,-0.8947,-0.8577,-0.838,-0.7974,-0.7826,-0.7727,-0.7624,-0.7743,-0.8102,-0.8349,-0.8834,-0.9176,-0.9335,-0.9579,-0.9822,-0.9964,-1.0053,-0.9982,-1.0035,-1.0122,-1.021,-1.035,-1.0411,-1.0451,-1.0649,-1.1129,-1.1873,-1.2702,-1.3335,-1.3644,-1.3863,-1.4026,-1.4164,-1.427,-1.4367,-1.4629,-1.5325,-1.579,-1.5949,-1.6554,-1.702,-1.7001,-1.6777,-1.6674,-1.6698,-1.644,-1.6243,-1.615,-1.598,-1.5838,-1.5697,-1.5564,-1.546,-1.5203,-1.5158,-1.513,-1.5175,-1.5319,-1.5404,-1.5517,-1.5583,-1.563,-1.5697,-1.5819,-1.5886,-1.5952,-1.6065,-1.6131,-1.6141,-1.615,-1.6018,-1.5999,-1.6018,-1.6037,-1.6188,-1.6188,-1.6216,-1.633,-1.6471,-1.6708,-1.6861,-1.7142,-1.7246,-1.7331,-1.7426,-1.7445,-1.7492,-1.7501,-1.7558,-1.7605,-1.7634,-1.769,-1.7624,-1.7549,-1.7596,-1.7952,-1.7817,-1.7834,-1.7577,-1.733,-1.7264,-1.7048,-1.6944,-1.6878,-1.0877,-1.0896,-1.1007,-1.11,-1.11,-1.0904,-1.0708,-1.0609,-1.0216,-0.9838,-0.953,-0.916,-0.8871,-0.8615,-0.842,-0.8263,-0.7937,-0.8188,-0.8214,-0.8457,-0.8822,-0.9093,-0.9418,-0.9579,-0.9707,-0.9849,-1.0005,-1.0148,-1.0136,-0.9993,-1.0052,-1.011,-1.0208,-1.028,-1.0426,-1.0704,-1.1192,-1.1985,-1.2956,-1.3424,-1.3725,-1.3937,-1.4301,-1.4253,-1.4481,-1.4684,-1.47,-1.5573,-1.6089,-1.6089,-1.6839,-1.7294,-1.7246,-1.7152,-1.7048,-1.6944,-1.6683,-1.6496,-1.6434,-1.6235,-1.6056,-1.5867,-1.5697,-1.5583,-1.5391,-1.5517,-1.5517,-1.5372,-1.5526,-1.5564,-1.564,-1.5715,-1.5829,-1.5886,-1.5971,-1.6037,-1.6084,-1.6112,-1.6169,-1.6178,-1.6046,-1.5914,-1.5827,-1.5703,-1.5845,-1.5855,-1.609,-1.6118,-1.6449,-1.6599,-1.6777,-1.6992,-1.7284,-1.7379,-1.7416,-1.7483,-1.7558,-1.7662,-1.7709,-1.7813,-1.7908,-1.7927,-1.7861,-1.7879,-1.7832,-1.7917,-1.7946,-1.7902,-1.774,-1.7464,-1.7369,-1.7275,-1.7227,-1.7161,-1.7105,-1.0962,-1.1085,-1.1161,-1.1189,-1.1198,-1.11,-1.0904,-1.0806,-1.0609,-1.0262,-0.9847,-0.9592,-0.9261,-0.9138,-0.8879,-0.8595,-0.8301,-0.828,-0.8493,-0.874,-0.9129,-0.9392,-0.9572,-0.97,-0.9822,-0.9883,-1.0059,-1.0209,-1.029,-0.9987,-0.982,-0.9871,-1.0035,-1.018,-1.0326,-1.0871,-1.1621,-1.2037,-1.2933,-1.3514,-1.3717,-1.3993,-1.4383,-1.4359,-1.4554,-1.4765,-1.5007,-1.5701,-1.6042,-1.6357,-1.6968,-1.7273,-1.7426,-1.7322,-1.7237,-1.7142,-1.6871,-1.6887,-1.6689,-1.6481,-1.6282,-1.6075,-1.5876,-1.5744,-1.5587,-1.5649,-1.5659,-1.5678,-1.5744,-1.5772,-1.5952,-1.6008,-1.6065,-1.6084,-1.6112,-1.6169,-1.6216,-1.6226,-1.6121,-1.6159,-1.5836,-1.5666,-1.5587,-1.5372,-1.5516,-1.5525,-1.5777,-1.604,-1.6361,-1.6666,-1.6814,-1.7095,-1.7236,-1.7511,-1.7549,-1.7615,-1.769,-1.7804,-1.7927,-1.8021,-1.8116,-1.804,-1.7993,-1.804,-1.8087,-1.8097,-1.804,-1.7917,-1.7785,-1.7662,-1.753,-1.7398,-1.7369,-1.735,-1.7294,-1.1066,-1.1189,-1.1189,-1.1189,-1.1189,-1.1189,-1.11,-1.0904,-1.0806,-1.0632,-1.0256,-0.9902,-0.9762,-0.9537,-0.9368,-0.9147,-0.9008,-0.8977,-0.9103,-0.9365,-0.9646,-0.9916,-0.9943,-1.0072,-0.9971,-1.006,-1.012,-1.029,-1.0371,-0.9952,-0.9889,-0.9915,-1.006,-1.0193,-1.0332,-1.1171,-1.1926,-1.2225,-1.294,-1.3587,-1.3815,-1.4244,-1.4498,-1.4513,-1.4708,-1.483,-1.5072,-1.5735,-1.6203,-1.651,-1.6815,-1.7273,-1.7426,-1.7407,-1.7341,-1.7256,-1.7171,-1.7095,-1.6897,-1.6632,-1.6434,-1.6264,-1.6075,-1.598,-1.5914,-1.5819,-1.5876,-1.5933,-1.5961,-1.6018,-1.6188,-1.616,-1.615,-1.6141,-1.6141,-1.6197,-1.6282,-1.633,-1.609,-1.5993,-1.583,-1.5732,-1.5232,-1.5173,-1.5328,-1.5492,-1.5718,-1.5972,-1.6071,-1.6514,-1.6793,-1.7065,-1.733,-1.7442,-1.769,-1.7785,-1.7889,-1.805,-1.8154,-1.821,-1.8258,-1.8191,-1.822,-1.8324,-1.8333,-1.8258,-1.821,-1.8172,-1.8031,-1.7861,-1.7709,-1.7549,-1.7501,-1.7483,-1.7264,-1.1189,-1.1189,-1.1189,-1.1189,-1.1189,-1.1189,-1.1198,-1.1138,-1.0959,-1.0777,-1.0602,-1.0225,-1.007,-1.0116,-0.9809,-0.9713,-0.969,-0.9931,-1.0084,-1.0179,-1.0278,-1.0649,-1.055,-1.0436,-1.025,-1.0418,-1.0454,-1.0472,-1.0466,-1.0241,-1.018,-1.0193,-1.0193,-1.0193,-0.994,-1.1256,-1.2082,-1.2383,-1.309,-1.3633,-1.4042,-1.4432,-1.4513,-1.4651,-1.4822,-1.4935,-1.5113,-1.5744,-1.6221,-1.641,-1.7023,-1.7483,-1.7473,-1.7473,-1.7435,-1.7388,-1.7388,-1.7294,-1.7105,-1.6717,-1.6547,-1.6471,-1.6292,-1.6178,-1.6169,-1.6141,-1.6093,-1.6093,-1.6131,-1.616,-1.6197,-1.6207,-1.6216,-1.6282,-1.6301,-1.633,-1.6434,-1.6337,-1.6103,-1.584,-1.5949,-1.5901,-1.5223,-1.4985,-1.5151,-1.5325,-1.5685,-1.5896,-1.5957,-1.6179,-1.6447,-1.7033,-1.7288,-1.7601,-1.787,-1.7974,-1.8097,-1.8258,-1.8361,-1.8418,-1.8475,-1.8484,-1.8532,-1.8607,-1.856,-1.8465,-1.8465,-1.8484,-1.8314,-1.8135,-1.7879,-1.7719,-1.7672,-1.7479,-1.7297,-1.1189,-1.1189,-1.1189,-1.1189,-1.1189,-1.1198,-1.1274,-1.1316,-1.1051,-1.0949,-1.094,-1.0519,-1.0309,-1.021,-1.0264,-1.009,-1.0115,-1.0167,-1.033,-1.0494,-1.0696,-1.0763,-1.0793,-1.0686,-1.0638,-1.055,-1.058,-1.0614,-1.0487,-1.0386,-1.018,-1.0193,-1.0193,-1.0326,-1.0591,-1.1452,-1.1933,-1.2255,-1.3051,-1.3766,-1.4018,-1.4383,-1.4643,-1.4716,-1.4887,-1.4968,-1.5138,-1.5923,-1.6283,-1.6525,-1.7161,-1.7624,-1.7624,-1.7624,-1.7568,-1.7483,-1.7435,-1.7407,-1.7275,-1.7048,-1.684,-1.6698,-1.6519,-1.6386,-1.6234,-1.6245,-1.6207,-1.6207,-1.6245,-1.6282,-1.6349,-1.6386,-1.6434,-1.6594,-1.6642,-1.6642,-1.6689,-1.6397,-1.6131,-1.57,-1.5615,-1.544,-1.4927,-1.4851,-1.5035,-1.5084,-1.543,-1.5599,-1.5641,-1.5837,-1.6068,-1.6816,-1.7253,-1.7585,-1.7892,-1.8172,-1.8295,-1.8456,-1.8541,-1.8588,-1.8645,-1.8673,-1.8664,-1.8636,-1.8654,-1.8664,-1.8626,-1.8579,-1.8569,-1.8418,-1.8163,-1.7974,-1.7917,-1.7751,-1.7428,-1.1296,-1.1198,-1.1274,-1.1302,-1.1302,-1.1312,-1.1425,-1.1531,-1.1218,-1.1168,-1.1176,-1.0708,-1.0474,-1.0453,-1.0374,-1.0461,-1.0401,-1.057,-1.074,-1.0917,-1.1079,-1.114,-1.1156,-1.105,-1.0942,-1.0842,-1.0735,-1.0756,-1.0582,-1.0412,-1.0452,-1.0459,-1.0326,-1.0459,-1.0871,-1.1445,-1.1963,-1.2452,-1.3145,-1.3888,-1.4164,-1.4456,-1.4724,-1.4814,-1.4911,-1.5146,-1.535,-1.5863,-1.6543,-1.6832,-1.7364,-1.7832,-1.7832,-1.7813,-1.7766,-1.7672,-1.7568,-1.752,-1.7388,-1.7312,-1.7133,-1.7048,-1.6764,-1.6458,-1.643,-1.65,-1.6453,-1.6434,-1.6386,-1.6462,-1.6556,-1.6594,-1.666,-1.6821,-1.6831,-1.6831,-1.6758,-1.661,-1.6211,-1.5764,-1.5351,-1.5152,-1.4908,-1.499,-1.5064,-1.5113,-1.5017,-1.5171,-1.5479,-1.5675,-1.5889,-1.6476,-1.7105,-1.7612,-1.7929,-1.8219,-1.8513,-1.8654,-1.8692,-1.8702,-1.8673,-1.8673,-1.8673,-1.8683,-1.8692,-1.8702,-1.8683,-1.8654,-1.8645,-1.8598,-1.8456,-1.8295,-1.8182,-1.7817,-1.7472,-1.1492,-1.1236,-1.1425,-1.151,-1.1529,-1.1548,-1.1661,-1.1737,-1.1424,-1.13,-1.1318,-1.0841,-1.068,-1.0688,-1.0704,-1.0826,-1.09,-1.1069,-1.1245,-1.1406,-1.1591,-1.1631,-1.1647,-1.1413,-1.1348,-1.1173,-1.1075,-1.0934,-1.0677,-1.0578,-1.0585,-1.0591,-1.0585,-1.0717,-1.1017,-1.1574,-1.2119,-1.2605,-1.3302,-1.3922,-1.4383,-1.4619,-1.4806,-1.5056,-1.5146,-1.5391,-1.5785,-1.6329,-1.6921,-1.7344,-1.7734,-1.7892,-1.7892,-1.7892,-1.7892,-1.7817,-1.7657,-1.7662,-1.7501,-1.7445,-1.7398,-1.7284,-1.7048,-1.6739,-1.6636,-1.6736,-1.667,-1.6679,-1.667,-1.6736,-1.6802,-1.6812,-1.6831,-1.6887,-1.6906,-1.6972,-1.6936,-1.6701,-1.6464,-1.6045,-1.5633,-1.5378,-1.5064,-1.4968,-1.5065,-1.509,-1.5139,-1.5187,-1.5351,-1.554,-1.5912,-1.6162,-1.6801,-1.7485,-1.7953,-1.8369,-1.8579,-1.8673,-1.8739,-1.8768,-1.8721,-1.8758,-1.8843,-1.8872,-1.8768,-1.8758,-1.8853,-1.8815,-1.8721,-1.8664,-1.8626,-1.836,-1.8219,-1.7787,-1.7262,-1.1579,-1.1725,-1.1592,-1.1605,-1.1746,-1.1898,-1.2002,-1.1962,-1.1621,-1.1485,-1.1494,-1.0891,-1.0712,-1.0704,-1.0834,-1.0988,-1.1159,-1.1338,-1.1524,-1.1663,-1.1744,-1.1768,-1.1776,-1.1671,-1.1634,-1.1439,-1.1337,-1.107,-1.092,-1.085,-1.0717,-1.0717,-1.0717,-1.085,-1.1263,-1.2035,-1.2335,-1.2818,-1.3674,-1.4123,-1.4554,-1.4765,-1.5048,-1.5292,-1.5537,-1.5793,-1.6364,-1.68,-1.7259,-1.7581,-1.8098,-1.8267,-1.8098,-1.8258,-1.8229,-1.7901,-1.7955,-1.787,-1.769,-1.7643,-1.7587,-1.7483,-1.7303,-1.7171,-1.7048,-1.6925,-1.6859,-1.6887,-1.6906,-1.6934,-1.7001,-1.7029,-1.7067,-1.7114,-1.7133,-1.7049,-1.7152,-1.6742,-1.6357,-1.5949,-1.5683,-1.5383,-1.5065,-1.5122,-1.5204,-1.5228,-1.5268,-1.5333,-1.5374,-1.5573,-1.5764,-1.6174,-1.6781,-1.745,-1.7882,-1.8309,-1.8491,-1.8683,-1.8796,-1.8891,-1.8919,-1.8976,-1.907,-1.907,-1.9004,-1.9042,-1.9136,-1.9051,-1.89,-1.8834,-1.8777,-1.8519,-1.8253,-1.7656,-1.727,-1.2093,-1.1932,-1.1913,-1.1983,-1.2068,-1.22,-1.2257,-1.2178,-1.1738,-1.1573,-1.1581,-1.099,-1.0802,-1.0834,-1.0988,-1.1159,-1.133,-1.1427,-1.1581,-1.1719,-1.1776,-1.1776,-1.1776,-1.1809,-1.1749,-1.1689,-1.1471,-1.1199,-1.1045,-1.085,-1.0717,-1.0717,-1.0717,-1.1066,-1.1504,-1.219,-1.2753,-1.3267,-1.3953,-1.434,-1.4676,-1.4982,-1.5378,-1.5675,-1.594,-1.6329,-1.6853,-1.7322,-1.7627,-1.7962,-1.8484,-1.8484,-1.8475,-1.8475,-1.838,-1.8229,-1.8163,-1.805,-1.7908,-1.7861,-1.7738,-1.7615,-1.7539,-1.7426,-1.7294,-1.7161,-1.7123,-1.7114,-1.7095,-1.7105,-1.7171,-1.7246,-1.7322,-1.7388,-1.7426,-1.7301,-1.7042,-1.6617,-1.6216,-1.5966,-1.568,-1.5376,-1.5244,-1.5309,-1.5358,-1.5398,-1.5472,-1.5561,-1.5585,-1.5601,-1.5786,-1.5996,-1.6606,-1.7403,-1.7819,-1.8247,-1.8632,-1.8862,-1.9004,-1.9089,-1.9127,-1.9165,-1.9221,-1.925,-1.9259,-1.9297,-1.9316,-1.9221,-1.9099,-1.9042,-1.8985,-1.8588,-1.8147,-1.7673,-1.7302,-1.2756,-1.202,-1.2421,-1.2461,-1.2417,-1.2427,-1.2436,-1.2356,-1.1827,-1.1599,-1.1524,-1.1226,-1.0964,-1.1013,-1.1167,-1.1321,-1.1443,-1.1533,-1.163,-1.1776,-1.1776,-1.1776,-1.1784,-1.1833,-1.1945,-1.1736,-1.1509,-1.1423,-1.1183,-1.085,-1.0717,-1.0724,-1.0884,-1.1128,-1.1783,-1.2492,-1.3221,-1.3822,-1.4324,-1.4667,-1.4843,-1.5076,-1.5489,-1.5897,-1.6277,-1.6658,-1.7385,-1.7916,-1.7989,-1.8444,-1.8664,-1.8654,-1.8645,-1.8636,-1.8522,-1.8456,-1.839,-1.8258,-1.8135,-1.8068,-1.7946,-1.7832,-1.7747,-1.7672,-1.7568,-1.736,-1.7294,-1.7284,-1.7265,-1.7322,-1.7398,-1.7445,-1.7511,-1.7596,-1.7653,-1.7536,-1.7263,-1.6676,-1.6077,-1.5822,-1.569,-1.5374,-1.5398,-1.5455,-1.5528,-1.5569,-1.5666,-1.578,-1.5788,-1.5788,-1.5804,-1.5991,-1.6554,-1.7156,-1.7754,-1.8183,-1.8782,-1.9051,-1.9203,-1.9288,-1.9325,-1.9344,-1.9363,-1.9439,-1.9524,-1.9448,-1.942,-1.9363,-1.9325,-1.9288,-1.9072,-1.867,-1.8208,-1.7723,-1.7095,-1.2811,-1.2735,-1.2471,-1.2398,-1.2436,-1.2436,-1.254,-1.2682,-1.2015,-1.1792,-1.169,-1.1301,-1.1053,-1.1183,-1.1354,-1.1484,-1.1516,-1.163,-1.1719,-1.176,-1.1776,-1.1801,-1.1849,-1.202,-1.2073,-1.2107,-1.2024,-1.1665,-1.1358,-1.0982,-1.0724,-1.0744,-1.1087,-1.1689,-1.2212,-1.294,-1.3597,-1.4167,-1.4453,-1.47,-1.4867,-1.5295,-1.5752,-1.6216,-1.6751,-1.7353,-1.8021,-1.836,-1.8426,-1.8673,-1.8673,-1.8673,-1.8673,-1.8673,-1.8654,-1.8607,-1.8569,-1.8456,-1.8352,-1.8267,-1.8172,-1.805,-1.7965,-1.7946,-1.7823,-1.7577,-1.7445,-1.7445,-1.7473,-1.7558,-1.7615,-1.7653,-1.77,-1.7785,-1.787,-1.7594,-1.7326,-1.6731,-1.6115,-1.583,-1.5696,-1.5561,-1.5577,-1.5618,-1.5683,-1.578,-1.5894,-1.5975,-1.5959,-1.5951,-1.5967,-1.6147,-1.6475,-1.7061,-1.7504,-1.8162,-1.8624,-1.9091,-1.9401,-1.9467,-1.9524,-1.9581,-1.9628,-1.9732,-1.9788,-1.9694,-1.9609,-1.959,-1.9552,-1.9524,-1.9287,-1.9033,-1.8452,-1.7812,-1.711,-1.3278,-1.2991,-1.2567,-1.2436,-1.2455,-1.254,-1.2654,-1.2655,-1.2176,-1.1925,-1.1994,-1.1553,-1.1256,-1.137,-1.1541,-1.1614,-1.163,-1.1719,-1.176,-1.1768,-1.1801,-1.1841,-1.1979,-1.2199,-1.232,-1.2347,-1.2287,-1.2033,-1.1519,-1.1387,-1.1269,-1.1354,-1.1646,-1.2153,-1.2841,-1.3527,-1.408,-1.4554,-1.4659,-1.4843,-1.5002,-1.5413,-1.605,-1.6653,-1.7244,-1.8023,-1.8276,-1.8617,-1.8645,-1.8673,-1.8673,-1.8673,-1.8673,-1.8673,-1.8673,-1.8664,-1.8645,-1.8617,-1.8522,-1.8456,-1.839,-1.8258,-1.8182,-1.8163,-1.8002,-1.7785,-1.7776,-1.7776,-1.7931,-1.7998,-1.7851,-1.7889,-1.7898,-1.7955,-1.7835,-1.7706,-1.7208,-1.6521,-1.6079,-1.5958,-1.5813,-1.5821,-1.5837,-1.5845,-1.5894,-1.5902,-1.6032,-1.604,-1.604,-1.6081,-1.6105,-1.6146,-1.6493,-1.6842,-1.7251,-1.7953,-1.8676,-1.9136,-1.9418,-1.9666,-1.9732,-1.9826,-1.9911,-1.9902,-1.9902,-1.9883,-1.9817,-1.976,-1.976,-1.9741,-1.9484,-1.9228,-1.8641,-1.8058,-1.7392,-1.3636,-1.2926,-1.2577,-1.2436,-1.2474,-1.2673,-1.2786,-1.273,-1.2443,-1.2293,-1.2325,-1.1871,-1.1651,-1.1598,-1.1687,-1.1744,-1.1776,-1.1768,-1.1776,-1.1825,-1.1833,-1.1979,-1.2166,-1.2345,-1.2564,-1.2548,-1.2413,-1.218,-1.1916,-1.1821,-1.1777,-1.2037,-1.2421,-1.2833,-1.3504,-1.3924,-1.4247,-1.4469,-1.4676,-1.4977,-1.5294,-1.5798,-1.6357,-1.7089,-1.7678,-1.8286,-1.855,-1.8673,-1.8673,-1.8673,-1.8673,-1.8673,-1.8673,-1.8673,-1.8673,-1.8673,-1.8673,-1.8664,-1.8645,-1.8626,-1.8541,-1.8447,-1.8409,-1.8314,-1.8163,-1.8125,-1.8116,-1.8106,-1.8265,-1.8227,-1.8236,-1.8255,-1.8097,-1.7985,-1.7854,-1.7713,-1.7082,-1.6416,-1.6131,-1.6016,-1.6016,-1.6016,-1.6024,-1.6032,-1.604,-1.6048,-1.6048,-1.6048,-1.6064,-1.6137,-1.6178,-1.6292,-1.6541,-1.6885,-1.7087,-1.773,-1.8488,-1.9121,-1.9405,-1.9671,-1.9921,-1.9921,-1.9921,-1.9921,-1.9921,-1.9921,-1.9921,-1.9864,-1.9892,-1.9892,-1.9826,-1.9377,-1.8658,-1.807,-1.7665,-1.3508,-1.2558,-1.2408,-1.2436,-1.2474,-1.2673,-1.2862,-1.3032,-1.2882,-1.2731,-1.249,-1.2303,-1.1952,-1.1727,-1.1752,-1.1784,-1.1817,-1.1809,-1.189,-1.1963,-1.1979,-1.219,-1.2434,-1.267,-1.3003,-1.2909,-1.2688,-1.232,-1.225,-1.2193,-1.1993,-1.221,-1.2928,-1.3348,-1.3574,-1.4128,-1.4485,-1.4659,-1.4761,-1.4894,-1.5673,-1.6107,-1.668,-1.7271,-1.8032,-1.8428,-1.8607,-1.8664,-1.8673,-1.8673,-1.8673,-1.8673,-1.8673,-1.8673,-1.8673,-1.8673,-1.8673,-1.8673,-1.8673,-1.8673,-1.8588,-1.8588,-1.856,-1.856,-1.8475,-1.8484,-1.8456,-1.8418,-1.8541,-1.8408,-1.8398,-1.8446,-1.8314,-1.8114,-1.8008,-1.7693,-1.7121,-1.65,-1.6024,-1.604,-1.604,-1.604,-1.604,-1.604,-1.604,-1.6048,-1.6048,-1.6056,-1.6105,-1.6178,-1.6259,-1.6414,-1.673,-1.7024,-1.7262,-1.7417,-1.8096,-1.873,-1.9342,-1.9544,-1.9737,-1.9921,-1.9921,-1.9921,-1.9921,-1.9921,-1.9921,-1.9921,-1.9911,-1.9911,-1.9911,-1.9525,-1.8802,-1.8244,-1.7818]}]]